[[{"header":{"parameterUnit":"m.s-1","parameterCategory":1,"la1":31.0,"la2":29.5877,"lo1":-88.7671,"lo2":-86.6584,"dy":0.0162,"dx":0.0185,"nx":115,"ny":88,"refTime":"2025-04-04T18:00:00:Z","depth":0,"parameterNumber":2,"parameterNumberName":"U-component_of_WINDS"},"data":[0.0,0.0,0.0,0.0,0.0,0.0,0.0,0.0,0.0,0.0,0.0,0.0,0.0,0.0,0.0,0.0,0.0,0.0,0.0,0.0,0.0,0.0,0.0,0.0,0.0,0.0,0.0,0.0,0.0,0.0,0.0,0.0,0.0,0.0,0.0,0.0,0.0,0.0,0.0,0.0,0.0,0.0,0.0,0.0,0.0,0.0,0.0,0.0,0.0,0.0,0.0,0.0,0.0,0.0,0.0,0.0,0.0,0.0,0.0,0.0,0.0,0.0,0.0,0.0,0.0,0.0,0.0,0.0,0.0,0.0,0.0,0.0,0.0,0.0,0.0,0.0,0.0,0.0,0.0,0.0,0.0,0.0,0.0,0.0,0.0,0.0,0.0,0.0,0.0,0.0,0.0,0.0,0.0,0.0,0.0,0.0,0.0,0.0,0.0,0.0,0.0,0.0,0.0,0.0,0.0,0.0,0.0,0.0,0.0,0.0,0.0,0.0,0.0,0.0,0.0,0.0,0.0,0.0,0.0,0.0,0.0,0.0,0.0,0.0,0.0,0.0,0.0,0.0,0.0,0.0,0.0,0.0,0.0,0.0,0.0,0.0,0.0,0.0,0.0,0.0,0.0,0.0,0.0,0.0,0.0,0.0,0.0,0.0,0.0,0.0,0.0,0.0,0.0,0.0,0.0,0.0,0.0,0.0,0.0,0.0,0.0,0.0,0.0,0.0,0.0,0.0,0.0,0.0,0.0,0.0,0.0,0.0,0.0,0.0,0.0,0.0,0.0,0.0,0.0,0.0,0.0,0.0,0.0,0.0,0.0,0.0,0.0,0.0,0.0,0.0,0.0,0.0,0.0,0.0,0.0,0.0,0.0,0.0,0.0,0.0,0.0,0.0,0.0,0.0,0.0,0.0,0.0,0.0,0.0,0.0,0.0,0.0,0.0,0.0,0.0,0.0,0.0,0.0,0.0,0.0,0.0,0.0,0.0,0.0,0.0,0.0,0.0,0.0,0.0,0.0,0.0,0.0,0.0,0.0,0.0,0.0,0.0,0.0,0.0,0.0,0.0,0.0,0.0,0.0,0.0,0.0,0.0,0.0,0.0,0.0,0.0,0.0,0.0,0.0,0.0,0.0,0.0,0.0,0.0,0.0,0.0,0.0,0.0,0.0,0.0,0.0,0.0,0.0,0.0,0.0,0.0,0.0,0.0,0.0,0.0,0.0,0.0,0.0,0.0,0.0,0.0,0.0,0.0,0.0,0.0,0.0,0.0,0.0,0.0,0.0,0.0,0.0,0.0,0.0,0.0,0.0,0.0,0.0,0.0,0.0,0.0,0.0,0.0,0.0,0.0,0.0,0.0,0.0,0.0,0.0,0.0,0.0,0.0,0.0,0.0,0.0,0.0,0.0,0.0,0.0,0.0,0.0,0.0,0.0,0.0,0.0,0.0,0.0,0.0,0.0,0.0,0.0,0.0,0.0,0.0,0.0,0.0,0.0,0.0,0.0,0.0,0.0,0.0,0.0,0.0,0.0,0.0,0.0,0.0,0.0,0.0,0.0,0.0,0.0,0.0,0.0,0.0,0.0,0.0,0.0,0.0,0.0,0.0,0.0,0.0,0.0,0.0,0.0,0.0,0.0,0.0,0.0,0.0,0.0,0.0,0.0,0.0,0.0,0.0,0.0,0.0,0.0,0.0,0.0,0.0,0.0,0.0,0.0,0.0,0.0,0.0,0.0,0.0,0.0,0.0,0.0,0.0,0.0,0.0,0.0,0.0,0.0,0.0,0.0,0.0,0.0,0.0,0.0,0.0,0.0,0.0,0.0,0.0,0.0,0.0,0.0,0.0,0.0,0.0,0.0,0.0,0.0,0.0,0.0,0.0,0.0,0.0,0.0,0.0,0.0,0.0,0.0,0.0,0.0,0.0,0.0,0.0,0.0,0.0,0.0,0.0,0.0,0.0,0.0,0.0,0.0,0.0,0.0,0.0,0.0,0.0,0.0,0.0,0.0,0.0,0.0,0.0,0.0,0.0,0.0,0.0,0.0,0.0,0.0,0.0,0.0,0.0,0.0,0.0,0.0,0.0,0.0,0.0,0.0,0.0,0.0,0.0,0.0,0.0,0.0,0.0,0.0,0.0,0.0,0.0,0.0,0.0,0.0,0.0,0.0,0.0,0.0,0.0,0.0,0.0,0.0,0.0,0.0,0.0,0.0,0.0,0.0,0.0,0.0,0.0,0.0,0.0,0.0,0.0,0.0,0.0,0.0,0.0,0.0,0.0,0.0,0.0,0.0,0.0,0.0,0.0,0.0,0.0,0.0,0.0,0.0,0.0,0.0,0.0,0.0,0.0,0.0,0.0,0.0,0.0,0.0,0.0,0.0,0.0,0.0,0.0,0.0,0.0,0.0,0.0,0.0,0.0,0.0,0.0,0.0,0.0,0.0,0.0,0.0,0.0,0.0,0.0,0.0,0.0,0.0,0.0,0.0,0.0,0.0,0.0,0.0,0.0,0.0,0.0,0.0,0.0,0.0,0.0,0.0,0.0,0.0,0.0,0.0,0.0,0.0,0.0,0.0,0.0,0.0,0.0,0.0,0.0,0.0,0.0,0.0,0.0,0.0,0.0,0.0,0.0,0.0,0.0,0.0,0.0,0.0,0.0,0.0,0.0,0.0,0.0,0.0,0.0,0.0,0.0,0.0,0.0,0.0,0.0,0.0,0.0,0.0,0.0,0.0,0.0,0.0,0.0,0.0,0.0,0.0,0.0,0.0,0.0,0.0,0.0,0.0,0.0,0.0,0.0,0.0,0.0,0.0,0.0,0.0,0.0,0.0,0.0,0.0,0.0,0.0,0.0,0.0,0.0,0.0,0.0,0.0,0.0,0.0,0.0,0.0,0.0,0.0,0.0,0.0,0.0,0.0,0.0,0.0,0.0,0.0,0.0,0.0,0.0,0.0,0.0,0.0,0.0,0.0,0.0,0.0,0.0,0.0,0.0,0.0,0.0,0.0,0.0,0.0,0.0,0.0,0.0,0.0,0.0,0.0,0.0,0.0,0.0,0.0,0.0,0.0,0.0,0.0,0.0,0.0,0.0,0.0,0.0,0.0,0.0,0.0,0.0,0.0,0.0,0.0,0.0,0.0,0.0,0.0,0.0,0.0,0.0,0.0,0.0,0.0,0.0,0.0,0.0,0.0,0.0,0.0,0.0,0.0,0.0,0.0,0.0,0.0,0.0,0.0,0.0,0.0,0.0,0.0,0.0,0.0,0.0,0.0,0.0,0.0,0.0,0.0,0.0,0.0,0.0,0.0,0.0,0.0,0.0,0.0,0.0,0.0,0.0,0.0,0.0,0.0,0.0,0.0,0.0,0.0,0.0,0.0,0.0,0.0,0.0,0.0,0.0,0.0,0.0,0.0,0.0,0.0,0.0,0.0,0.0,0.0,0.0,0.0,0.0,0.0,0.0,0.0,0.0,0.0,0.0,0.0,0.0,0.0,0.0,0.0,0.0,0.0,0.0,0.0,0.0,0.0,0.0,0.0,0.0,0.0,0.0,0.0,0.0,0.0,0.0,0.0,0.0,0.0,0.0,0.0,0.0,0.0,0.0,0.0,0.0,0.0,0.0,0.0,0.0,0.0,0.0,0.0,0.0,0.0,0.0,0.0,0.0,0.0,0.0,0.0,0.0,0.0,0.0,0.0,0.0,0.0,0.0,0.0,0.0,0.0,0.0,0.0,0.0,0.0,0.0,0.0,0.0,0.0,0.0,0.0,0.0,0.0,0.0,0.0,0.0,0.0,0.0,0.0,0.0,0.0,0.0,0.0,0.0,0.0,0.0,0.0,0.0,0.0,0.0,0.0,0.0,0.0,0.0,0.0,0.0,0.0,0.0,0.0,0.0,0.0,0.0,0.0,0.0,0.0,0.0,0.0,0.0,0.0,0.0,0.0,0.0,0.0,0.0,0.0,0.0,0.0,0.0,0.0,0.0,0.0,0.0,0.0,0.0,0.0,0.0,0.0,0.0,0.0,0.0,0.0,0.0,0.0,0.0,0.0,0.0,0.0,0.0,0.0,0.0,0.0,0.0,0.0,0.0,0.0,0.0,0.0,0.0,0.0,0.0,0.0,0.0,0.0,0.0,0.0,0.0,0.0,0.0,0.0,0.0,0.0,0.0,0.0,0.0,0.0,0.0,0.0,0.0,0.0,0.0,0.0,0.0,0.0,0.0,0.0,0.0,0.0,0.0,0.0,0.0,0.0,0.0,0.0,0.0,0.0,4.1276,0.0,0.0,0.0,0.0,0.0,0.0,0.0,0.0,0.0,0.0,0.0,0.0,0.0,0.0,0.0,0.0,0.0,0.0,0.0,0.0,0.0,0.0,0.0,0.0,0.0,0.0,0.0,0.0,0.0,0.0,0.0,0.0,0.0,0.0,0.0,0.0,0.0,0.0,0.0,0.0,0.0,0.0,0.0,0.0,0.0,0.0,0.0,0.0,0.0,0.0,0.0,0.0,0.0,0.0,0.0,0.0,0.0,0.0,0.0,0.0,0.0,0.0,0.0,0.0,0.0,0.0,0.0,0.0,0.0,0.0,0.0,0.0,0.0,0.0,0.0,0.0,0.0,0.0,0.0,0.0,0.0,0.0,0.0,0.0,0.0,0.0,0.0,0.0,0.0,0.0,0.0,0.0,0.0,0.0,0.0,0.0,0.0,0.0,0.0,0.0,0.0,0.0,0.0,0.0,0.0,0.0,0.0,0.0,0.0,0.0,4.3628,4.3628,4.2899,4.217,4.1409,0.0,0.0,0.0,0.0,0.0,0.0,0.0,0.0,0.0,0.0,0.0,0.0,0.0,0.0,0.0,0.0,0.0,0.0,0.0,0.0,0.0,0.0,0.0,0.0,0.0,0.0,0.0,0.0,0.0,0.0,0.0,0.0,0.0,0.0,0.0,0.0,0.0,0.0,0.0,0.0,0.0,0.0,0.0,0.0,0.0,0.0,0.0,0.0,0.0,0.0,0.0,0.0,0.0,0.0,0.0,0.0,0.0,0.0,0.0,0.0,0.0,0.0,0.0,0.0,0.0,0.0,0.0,0.0,0.0,0.0,0.0,0.0,0.0,0.0,0.0,0.0,0.0,0.0,0.0,0.0,0.0,0.0,0.0,0.0,0.0,0.0,0.0,0.0,0.0,0.0,0.0,0.0,0.0,0.0,0.0,0.0,0.0,0.0,0.0,0.0,0.0,0.0,0.0,0.0,0.0,0.0,0.0,0.0,0.0,0.0,0.0,0.0,4.3006,4.2113,4.0912,0.0,0.0,0.0,0.0,0.0,0.0,0.0,0.0,0.0,0.0,0.0,0.0,0.0,0.0,0.0,0.0,0.0,0.0,0.0,0.0,0.0,0.0,0.0,0.0,0.0,0.0,0.0,0.0,0.0,0.0,0.0,0.0,0.0,0.0,0.0,0.0,0.0,0.0,0.0,0.0,0.0,0.0,0.0,0.0,0.0,0.0,0.0,0.0,0.0,0.0,0.0,0.0,0.0,0.0,0.0,0.0,0.0,0.0,0.0,0.0,0.0,0.0,0.0,0.0,0.0,0.0,0.0,0.0,0.0,0.0,0.0,0.0,0.0,0.0,0.0,0.0,0.0,0.0,0.0,0.0,0.0,0.0,0.0,0.0,0.0,0.0,0.0,0.0,0.0,0.0,0.0,0.0,0.0,0.0,0.0,0.0,0.0,0.0,0.0,0.0,0.0,0.0,0.0,0.0,0.0,0.0,0.0,0.0,0.0,0.0,4.3235,4.3416,4.335,0.0,3.962,0.0,0.0,0.0,0.0,0.0,0.0,0.0,0.0,0.0,0.0,0.0,0.0,0.0,0.0,0.0,0.0,0.0,0.0,0.0,0.0,0.0,0.0,0.0,0.0,0.0,0.0,0.0,0.0,0.0,0.0,0.0,0.0,0.0,0.0,0.0,0.0,0.0,0.0,0.0,0.0,0.0,0.0,0.0,0.0,0.0,0.0,0.0,0.0,0.0,0.0,0.0,0.0,0.0,0.0,0.0,0.0,0.0,0.0,0.0,0.0,0.0,0.0,0.0,0.0,0.0,0.0,0.0,0.0,0.0,0.0,0.0,0.0,0.0,0.0,0.0,0.0,0.0,0.0,0.0,0.0,0.0,0.0,0.0,0.0,0.0,0.0,0.0,0.0,0.0,0.0,0.0,0.0,0.0,0.0,0.0,0.0,0.0,0.0,0.0,0.0,0.0,0.0,0.0,0.0,0.0,0.0,0.0,0.0,0.0,0.0,4.3174,4.3355,4.265,4.1683,0.0,0.0,0.0,0.0,0.0,0.0,0.0,0.0,0.0,0.0,0.0,0.0,0.0,0.0,0.0,0.0,0.0,0.0,0.0,0.0,0.0,0.0,0.0,0.0,0.0,0.0,0.0,0.0,0.0,0.0,0.0,0.0,0.0,0.0,0.0,0.0,0.0,0.0,0.0,0.0,0.0,0.0,0.0,0.0,0.0,0.0,0.0,0.0,0.0,0.0,0.0,0.0,0.0,0.0,0.0,0.0,0.0,0.0,0.0,0.0,0.0,0.0,0.0,0.0,0.0,0.0,0.0,0.0,0.0,0.0,0.0,0.0,0.0,0.0,0.0,0.0,0.0,0.0,0.0,0.0,0.0,0.0,0.0,0.0,0.0,0.0,0.0,0.0,0.0,0.0,0.0,0.0,0.0,0.0,0.0,0.0,0.0,0.0,0.0,0.0,0.0,0.0,0.0,0.0,0.0,0.0,0.0,0.0,0.0,0.0,4.3052,4.299,4.3108,4.1939,4.113,4.079,0.0,0.0,0.0,0.0,0.0,0.0,0.0,0.0,0.0,0.0,0.0,0.0,0.0,0.0,0.0,0.0,0.0,0.0,0.0,0.0,0.0,0.0,0.0,0.0,0.0,0.0,0.0,0.0,0.0,0.0,0.0,0.0,0.0,0.0,0.0,0.0,0.0,0.0,0.0,0.0,0.0,0.0,0.0,0.0,0.0,0.0,0.0,0.0,0.0,0.0,0.0,0.0,0.0,0.0,0.0,0.0,0.0,0.0,0.0,0.0,0.0,0.0,0.0,0.0,0.0,0.0,0.0,0.0,0.0,0.0,0.0,0.0,0.0,0.0,0.0,0.0,0.0,0.0,0.0,0.0,0.0,0.0,0.0,0.0,0.0,0.0,0.0,0.0,0.0,0.0,0.0,0.0,0.0,0.0,0.0,0.0,0.0,0.0,0.0,0.0,0.0,0.0,0.0,0.0,0.0,0.0,0.0,0.0,0.0,4.2587,4.2492,4.2618,4.1559,4.0442,0.0,0.0,0.0,0.0,0.0,0.0,0.0,0.0,0.0,0.0,0.0,0.0,0.0,0.0,0.0,0.0,0.0,0.0,0.0,0.0,0.0,0.0,0.0,0.0,0.0,0.0,0.0,0.0,0.0,0.0,0.0,0.0,0.0,0.0,0.0,0.0,0.0,0.0,0.0,0.0,0.0,0.0,0.0,0.0,0.0,0.0,0.0,0.0,0.0,0.0,0.0,0.0,0.0,0.0,0.0,0.0,0.0,0.0,0.0,0.0,0.0,0.0,0.0,0.0,0.0,0.0,0.0,0.0,0.0,0.0,0.0,0.0,0.0,0.0,0.0,0.0,0.0,0.0,0.0,0.0,0.0,0.0,0.0,0.0,0.0,0.0,0.0,0.0,0.0,0.0,0.0,0.0,0.0,0.0,0.0,0.0,0.0,0.0,0.0,0.0,0.0,0.0,0.0,0.0,0.0,0.0,0.0,0.0,0.0,4.268,4.2492,4.2429,4.2459,4.1379,4.041,0.0,0.0,0.0,0.0,0.0,0.0,0.0,0.0,0.0,0.0,0.0,0.0,0.0,0.0,0.0,0.0,0.0,0.0,0.0,0.0,0.0,0.0,0.0,0.0,0.0,0.0,0.0,0.0,0.0,0.0,0.0,0.0,0.0,0.0,0.0,0.0,0.0,0.0,0.0,0.0,0.0,0.0,0.0,0.0,0.0,0.0,0.0,0.0,0.0,0.0,0.0,0.0,0.0,0.0,0.0,0.0,0.0,0.0,0.0,0.0,0.0,0.0,0.0,0.0,0.0,0.0,0.0,0.0,0.0,0.0,0.0,0.0,0.0,0.0,0.0,0.0,0.0,0.0,0.0,0.0,0.0,0.0,0.0,0.0,0.0,0.0,0.0,0.0,0.0,0.0,0.0,0.0,0.0,0.0,0.0,0.0,0.0,0.0,0.0,0.0,0.0,0.0,0.0,0.0,0.0,0.0,0.0,0.0,0.0,4.2302,0.0,4.2045,0.0,4.0981,4.013,0.0,0.0,0.0,0.0,0.0,0.0,0.0,0.0,0.0,0.0,0.0,0.0,0.0,0.0,0.0,0.0,0.0,0.0,0.0,0.0,0.0,0.0,0.0,0.0,0.0,0.0,0.0,0.0,0.0,0.0,0.0,0.0,0.0,0.0,0.0,0.0,0.0,0.0,0.0,0.0,0.0,0.0,0.0,0.0,0.0,0.0,0.0,0.0,0.0,0.0,0.0,0.0,0.0,0.0,0.0,0.0,0.0,0.0,0.0,0.0,0.0,0.0,0.0,0.0,0.0,0.0,0.0,0.0,0.0,0.0,0.0,0.0,0.0,0.0,0.0,0.0,0.0,0.0,0.0,0.0,0.0,0.0,0.0,0.0,0.0,0.0,0.0,0.0,0.0,0.0,0.0,0.0,0.0,0.0,0.0,0.0,0.0,0.0,0.0,0.0,0.0,0.0,0.0,0.0,0.0,0.0,0.0,0.0,4.2141,4.1654,4.1421,4.1421,4.1557,4.042,3.962,0.0,0.0,0.0,0.0,0.0,0.0,0.0,0.0,0.0,0.0,0.0,0.0,0.0,0.0,0.0,0.0,0.0,0.0,0.0,0.0,0.0,0.0,0.0,0.0,0.0,0.0,0.0,0.0,0.0,0.0,0.0,0.0,0.0,0.0,0.0,0.0,0.0,0.0,0.0,0.0,0.0,0.0,0.0,0.0,0.0,0.0,0.0,0.0,0.0,0.0,0.0,0.0,0.0,0.0,0.0,0.0,0.0,0.0,0.0,0.0,0.0,0.0,0.0,0.0,0.0,0.0,0.0,0.0,0.0,0.0,0.0,0.0,0.0,0.0,0.0,0.0,0.0,0.0,0.0,0.0,0.0,0.0,0.0,0.0,0.0,0.0,0.0,0.0,0.0,0.0,0.0,0.0,0.0,0.0,0.0,0.0,0.0,0.0,0.0,0.0,0.0,0.0,0.0,0.0,0.0,0.0,0.0,0.0,0.0,4.1421,4.1591,4.1485,4.1055,4.0344,3.9471,0.0,0.0,0.0,0.0,0.0,0.0,0.0,0.0,0.0,0.0,0.0,0.0,0.0,0.0,0.0,0.0,0.0,0.0,0.0,0.0,0.0,0.0,0.0,0.0,0.0,0.0,0.0,0.0,0.0,0.0,0.0,0.0,0.0,0.0,0.0,0.0,0.0,0.0,0.0,0.0,0.0,0.0,0.0,0.0,0.0,0.0,0.0,0.0,0.0,0.0,0.0,0.0,0.0,0.0,0.0,0.0,0.0,0.0,0.0,0.0,0.0,0.0,0.0,0.0,0.0,0.0,0.0,0.0,0.0,0.0,0.0,0.0,0.0,0.0,0.0,0.0,0.0,0.0,0.0,0.0,0.0,0.0,0.0,0.0,0.0,0.0,0.0,0.0,0.0,0.0,0.0,0.0,0.0,0.0,0.0,0.0,0.0,0.0,0.0,0.0,0.0,0.0,0.0,0.0,0.0,0.0,0.0,0.0,0.0,4.1797,4.2169,4.215,4.1789,4.0962,3.9982,3.8745,0.0,0.0,0.0,0.0,0.0,0.0,0.0,0.0,0.0,0.0,0.0,0.0,0.0,0.0,0.0,0.0,0.0,0.0,0.0,0.0,0.0,0.0,0.0,0.0,0.0,0.0,0.0,0.0,0.0,0.0,0.0,0.0,0.0,0.0,0.0,0.0,0.0,0.0,0.0,0.0,0.0,0.0,0.0,0.0,0.0,0.0,0.0,0.0,0.0,0.0,0.0,0.0,0.0,0.0,0.0,0.0,0.0,0.0,0.0,0.0,0.0,0.0,0.0,0.0,0.0,0.0,0.0,0.0,0.0,0.0,0.0,0.0,0.0,0.0,0.0,0.0,0.0,0.0,0.0,0.0,0.0,0.0,0.0,0.0,0.0,0.0,0.0,0.0,0.0,0.0,0.0,0.0,0.0,0.0,0.0,0.0,0.0,0.0,0.0,0.0,0.0,0.0,0.0,0.0,0.0,0.0,0.0,0.0,4.2725,4.3254,4.3455,4.342,4.2191,4.09,0.0,0.0,0.0,0.0,0.0,0.0,0.0,0.0,0.0,0.0,0.0,0.0,0.0,0.0,0.0,0.0,0.0,0.0,0.0,0.0,0.0,0.0,0.0,0.0,0.0,0.0,0.0,0.0,0.0,0.0,0.0,0.0,0.0,0.0,0.0,0.0,0.0,0.0,0.0,0.0,0.0,0.0,0.0,0.0,0.0,0.0,0.0,0.0,0.0,0.0,0.0,0.0,0.0,0.0,0.0,0.0,0.0,0.0,0.0,0.0,0.0,0.0,0.0,0.0,0.0,0.0,0.0,0.0,0.0,0.0,0.0,0.0,0.0,0.0,0.0,0.0,0.0,0.0,0.0,0.0,0.0,0.0,0.0,0.0,0.0,0.0,0.0,0.0,0.0,0.0,0.0,0.0,0.0,0.0,0.0,0.0,0.0,0.0,0.0,0.0,0.0,0.0,0.0,0.0,0.0,0.0,0.0,0.0,0.0,4.4527,4.5231,4.4786,4.3424,4.2389,4.1534,0.0,0.0,0.0,0.0,0.0,0.0,0.0,0.0,0.0,0.0,0.0,0.0,0.0,0.0,0.0,0.0,0.0,0.0,0.0,0.0,0.0,0.0,0.0,0.0,0.0,0.0,0.0,0.0,0.0,0.0,0.0,0.0,0.0,0.0,0.0,0.0,0.0,0.0,0.0,0.0,0.0,0.0,0.0,0.0,0.0,0.0,0.0,0.0,0.0,0.0,0.0,0.0,0.0,0.0,0.0,0.0,0.0,0.0,0.0,0.0,0.0,0.0,0.0,0.0,0.0,0.0,0.0,0.0,0.0,0.0,0.0,0.0,0.0,0.0,0.0,0.0,0.0,0.0,0.0,0.0,0.0,0.0,0.0,0.0,0.0,0.0,0.0,0.0,0.0,0.0,0.0,0.0,0.0,0.0,0.0,0.0,0.0,0.0,0.0,0.0,0.0,0.0,0.0,0.0,0.0,0.0,0.0,0.0,4.4742,4.5196,4.6223,4.6009,4.4494,4.3396,4.2379,0.0,0.0,0.0,0.0,0.0,0.0,0.0,0.0,0.0,0.0,0.0,0.0,0.0,0.0,0.0,0.0,0.0,0.0,0.0,0.0,0.0,0.0,0.0,0.0,0.0,0.0,0.0,0.0,0.0,0.0,0.0,0.0,0.0,0.0,0.0,0.0,0.0,0.0,0.0,0.0,0.0,0.0,0.0,0.0,0.0,0.0,0.0,0.0,0.0,0.0,0.0,0.0,0.0,0.0,0.0,0.0,0.0,0.0,0.0,0.0,0.0,0.0,0.0,0.0,0.0,0.0,0.0,0.0,0.0,0.0,0.0,0.0,0.0,0.0,0.0,0.0,0.0,0.0,0.0,0.0,0.0,0.0,0.0,0.0,0.0,0.0,0.0,0.0,0.0,0.0,0.0,0.0,0.0,0.0,0.0,0.0,0.0,0.0,0.0,0.0,0.0,0.0,0.0,0.0,0.0,0.0,0.0,0.0,4.5602,4.5202,4.66,4.6823,4.6082,4.4716,4.3227,0.0,0.0,0.0,0.0,0.0,0.0,0.0,0.0,0.0,0.0,0.0,0.0,0.0,0.0,0.0,0.0,0.0,0.0,0.0,0.0,0.0,0.0,0.0,0.0,0.0,0.0,0.0,0.0,0.0,0.0,0.0,0.0,0.0,0.0,0.0,0.0,0.0,0.0,0.0,0.0,0.0,0.0,0.0,0.0,0.0,0.0,0.0,0.0,0.0,0.0,0.0,0.0,0.0,0.0,0.0,0.0,0.0,0.0,0.0,0.0,0.0,0.0,0.0,0.0,0.0,0.0,0.0,0.0,0.0,0.0,0.0,0.0,0.0,0.0,0.0,0.0,0.0,0.0,0.0,0.0,0.0,0.0,0.0,0.0,0.0,0.0,0.0,0.0,0.0,0.0,0.0,0.0,0.0,0.0,0.0,0.0,0.0,0.0,0.0,0.0,0.0,0.0,0.0,0.0,0.0,0.0,0.0,0.0,4.5666,4.6538,4.6924,4.6819,4.6471,4.472,4.3361,0.0,0.0,0.0,0.0,0.0,0.0,0.0,0.0,0.0,0.0,0.0,0.0,0.0,0.0,0.0,0.0,0.0,0.0,0.0,0.0,0.0,0.0,0.0,0.0,0.0,0.0,0.0,0.0,0.0,0.0,0.0,0.0,0.0,0.0,0.0,0.0,0.0,0.0,0.0,0.0,0.0,0.0,0.0,0.0,0.0,0.0,0.0,0.0,3.7754,0.0,0.0,0.0,0.0,0.0,0.0,0.0,0.0,0.0,0.0,0.0,0.0,0.0,0.0,0.0,0.0,0.0,0.0,0.0,0.0,0.0,0.0,0.0,0.0,0.0,0.0,0.0,0.0,0.0,0.0,0.0,0.0,0.0,0.0,0.0,0.0,0.0,0.0,0.0,0.0,0.0,0.0,0.0,0.0,0.0,0.0,0.0,0.0,0.0,0.0,0.0,0.0,0.0,0.0,0.0,0.0,0.0,0.0,0.0,4.6164,4.7304,4.6978,4.6562,4.595,4.4959,4.3818,0.0,0.0,0.0,0.0,0.0,0.0,0.0,0.0,0.0,0.0,0.0,0.0,0.0,0.0,0.0,0.0,0.0,0.0,0.0,0.0,0.0,0.0,0.0,0.0,0.0,0.0,0.0,0.0,0.0,0.0,0.0,0.0,0.0,0.0,0.0,0.0,0.0,0.0,0.0,0.0,0.0,0.0,0.0,0.0,0.0,0.0,0.0,0.0,0.0,0.0,0.0,0.0,0.0,0.0,0.0,0.0,0.0,0.0,0.0,0.0,0.0,0.0,0.0,0.0,0.0,0.0,0.0,0.0,0.0,0.0,0.0,0.0,0.0,0.0,0.0,0.0,0.0,0.0,0.0,0.0,0.0,0.0,0.0,0.0,0.0,0.0,0.0,0.0,0.0,0.0,0.0,0.0,0.0,0.0,0.0,0.0,0.0,0.0,0.0,0.0,0.0,0.0,0.0,0.0,0.0,0.0,0.0,4.5611,4.6681,4.7619,4.7081,4.6221,4.5304,4.5394,4.4436,4.2312,0.0,0.0,0.0,0.0,0.0,0.0,0.0,0.0,0.0,0.0,0.0,0.0,0.0,0.0,0.0,0.0,0.0,0.0,0.0,0.0,0.0,0.0,0.0,0.0,0.0,0.0,0.0,0.0,0.0,0.0,0.0,0.0,0.0,0.0,0.0,0.0,0.0,0.0,3.6836,3.7853,0.0,0.0,0.0,0.0,0.0,0.0,0.0,0.0,3.9743,0.0,0.0,0.0,0.0,0.0,0.0,0.0,0.0,0.0,0.0,0.0,0.0,0.0,0.0,0.0,0.0,0.0,0.0,0.0,0.0,0.0,0.0,0.0,0.0,0.0,0.0,0.0,0.0,0.0,0.0,0.0,0.0,0.0,0.0,0.0,0.0,0.0,0.0,0.0,0.0,0.0,0.0,0.0,0.0,0.0,0.0,0.0,0.0,0.0,0.0,0.0,0.0,0.0,0.0,0.0,0.0,4.4496,4.5342,4.635,4.7593,4.7362,4.6531,4.5364,4.5843,4.4706,4.1743,0.0,0.0,0.0,0.0,0.0,0.0,0.0,0.0,0.0,0.0,0.0,0.0,0.0,0.0,0.0,0.0,0.0,0.0,0.0,0.0,0.0,0.0,0.0,0.0,0.0,0.0,0.0,0.0,0.0,0.0,0.0,0.0,0.0,0.0,0.0,0.0,0.0,0.0,0.0,3.8996,3.9666,0.0,0.0,0.0,0.0,0.0,0.0,0.0,0.0,4.0469,0.0,0.0,0.0,0.0,0.0,0.0,0.0,0.0,0.0,0.0,0.0,0.0,0.0,0.0,0.0,0.0,0.0,0.0,0.0,0.0,0.0,0.0,0.0,0.0,0.0,0.0,0.0,0.0,0.0,0.0,0.0,0.0,0.0,0.0,0.0,0.0,0.0,0.0,0.0,0.0,0.0,0.0,0.0,0.0,0.0,0.0,0.0,0.0,0.0,0.0,0.0,0.0,0.0,0.0,0.0,4.5418,4.6072,4.7045,4.8558,4.7725,4.6651,4.5364,4.5963,4.4616,0.0,0.0,0.0,0.0,0.0,0.0,0.0,0.0,0.0,0.0,0.0,0.0,0.0,0.0,0.0,0.0,0.0,0.0,0.0,0.0,0.0,0.0,0.0,0.0,0.0,0.0,0.0,0.0,0.0,0.0,0.0,0.0,0.0,0.0,0.0,0.0,0.0,0.0,0.0,0.0,3.9622,4.0561,4.1359,0.0,0.0,0.0,0.0,0.0,0.0,4.1026,4.0654,0.0,0.0,0.0,0.0,0.0,0.0,0.0,0.0,0.0,0.0,0.0,0.0,0.0,0.0,0.0,0.0,0.0,0.0,0.0,0.0,0.0,0.0,0.0,0.0,0.0,0.0,0.0,0.0,0.0,0.0,0.0,0.0,0.0,0.0,0.0,0.0,0.0,0.0,0.0,0.0,0.0,0.0,0.0,0.0,0.0,0.0,0.0,0.0,0.0,0.0,0.0,0.0,0.0,0.0,0.0,4.5923,4.6671,4.7673,4.8982,4.7935,4.6651,4.5364,4.5723,4.4167,0.0,0.0,0.0,0.0,0.0,0.0,0.0,0.0,0.0,0.0,0.0,0.0,0.0,0.0,0.0,0.0,0.0,0.0,0.0,0.0,0.0,0.0,0.0,0.0,0.0,0.0,0.0,0.0,0.0,0.0,0.0,0.0,0.0,0.0,0.0,0.0,0.0,0.0,0.0,0.0,0.0,4.127,4.1962,4.1192,0.0,0.0,0.0,0.0,4.1792,4.1536,0.0,0.0,0.0,0.0,0.0,0.0,0.0,0.0,0.0,0.0,0.0,0.0,0.0,0.0,0.0,0.0,0.0,0.0,0.0,0.0,0.0,0.0,0.0,0.0,0.0,0.0,0.0,0.0,0.0,0.0,0.0,0.0,0.0,0.0,0.0,0.0,0.0,0.0,0.0,0.0,0.0,0.0,0.0,0.0,0.0,0.0,0.0,0.0,0.0,0.0,0.0,0.0,0.0,0.0,0.0,0.0,4.448,4.6133,4.7166,4.7575,4.7399,4.6681,4.5334,4.4796,4.324,0.0,0.0,0.0,0.0,0.0,0.0,0.0,0.0,0.0,0.0,0.0,0.0,0.0,0.0,0.0,0.0,0.0,0.0,0.0,0.0,0.0,0.0,0.0,0.0,0.0,0.0,0.0,0.0,0.0,0.0,0.0,0.0,0.0,0.0,0.0,0.0,0.0,0.0,0.0,0.0,0.0,4.134,4.2151,4.2291,4.2216,0.0,0.0,4.2586,4.2731,4.2996,0.0,0.0,0.0,0.0,0.0,0.0,0.0,0.0,0.0,0.0,0.0,0.0,0.0,0.0,0.0,0.0,0.0,0.0,0.0,0.0,0.0,0.0,0.0,0.0,0.0,0.0,0.0,0.0,0.0,0.0,0.0,0.0,0.0,0.0,0.0,0.0,0.0,0.0,0.0,0.0,0.0,0.0,0.0,0.0,0.0,0.0,0.0,0.0,0.0,0.0,0.0,0.0,0.0,0.0,0.0,4.3241,4.4739,4.6425,4.7563,4.7818,4.7489,4.6651,4.5334,4.5005,4.3299,0.0,0.0,0.0,0.0,0.0,0.0,0.0,0.0,0.0,0.0,0.0,0.0,0.0,0.0,0.0,0.0,0.0,0.0,0.0,0.0,0.0,0.0,0.0,0.0,0.0,0.0,0.0,0.0,0.0,0.0,0.0,0.0,0.0,0.0,0.0,0.0,0.0,0.0,0.0,0.0,0.0,0.0,4.2216,4.2685,0.0,0.0,0.0,4.2763,4.2415,0.0,0.0,0.0,0.0,0.0,0.0,0.0,0.0,0.0,0.0,0.0,0.0,0.0,0.0,0.0,0.0,0.0,0.0,0.0,0.0,0.0,0.0,0.0,0.0,0.0,0.0,0.0,0.0,0.0,0.0,0.0,0.0,0.0,0.0,0.0,0.0,0.0,0.0,0.0,0.0,0.0,0.0,0.0,0.0,0.0,0.0,0.0,0.0,0.0,0.0,0.0,0.0,0.0,0.0,0.0,0.0,0.0,4.4765,4.6592,4.7722,4.7997,4.7549,4.6651,4.5334,4.5274,0.0,0.0,0.0,0.0,0.0,0.0,0.0,0.0,0.0,0.0,0.0,0.0,0.0,0.0,0.0,0.0,0.0,0.0,0.0,0.0,0.0,0.0,0.0,0.0,0.0,0.0,0.0,2.9247,0.0,0.0,0.0,0.0,0.0,0.0,0.0,0.0,0.0,0.0,0.0,0.0,0.0,0.0,4.1354,4.2286,4.3018,4.3571,0.0,0.0,4.2969,4.248,4.282,4.2672,0.0,0.0,0.0,0.0,0.0,0.0,0.0,0.0,0.0,0.0,0.0,0.0,0.0,0.0,0.0,0.0,0.0,0.0,0.0,0.0,0.0,0.0,0.0,0.0,0.0,0.0,0.0,0.0,0.0,0.0,0.0,0.0,0.0,0.0,0.0,0.0,0.0,0.0,0.0,0.0,0.0,0.0,0.0,0.0,0.0,0.0,0.0,0.0,0.0,0.0,0.0,0.0,0.0,0.0,0.0,4.3735,4.6297,4.7482,4.7369,4.7339,4.6681,4.5334,4.5274,4.3748,0.0,0.0,0.0,0.0,0.0,0.0,0.0,0.0,0.0,0.0,0.0,0.0,0.0,0.0,0.0,0.0,0.0,0.0,0.0,0.0,0.0,0.0,0.0,0.0,0.0,0.0,0.0,0.0,0.0,0.0,0.0,0.0,0.0,0.0,0.0,0.0,0.0,0.0,0.0,0.0,0.0,4.0683,4.2307,4.3457,4.4142,0.0,4.3873,4.3783,4.3726,4.3807,4.335,4.1568,0.0,0.0,0.0,0.0,0.0,0.0,0.0,0.0,0.0,0.0,0.0,0.0,0.0,0.0,0.0,0.0,0.0,0.0,0.0,0.0,0.0,0.0,0.0,0.0,0.0,0.0,0.0,0.0,0.0,0.0,0.0,0.0,0.0,0.0,0.0,0.0,0.0,0.0,0.0,0.0,0.0,0.0,0.0,0.0,0.0,0.0,0.0,0.0,0.0,0.0,0.0,0.0,0.0,4.2622,4.3645,4.61,4.7366,4.7309,4.7309,4.686,4.5963,4.5933,4.4377,0.0,0.0,0.0,0.0,0.0,0.0,0.0,0.0,0.0,0.0,0.0,0.0,0.0,0.0,0.0,0.0,0.0,0.0,0.0,0.0,0.0,0.0,0.0,0.0,0.0,0.0,0.0,0.0,3.3176,3.3346,3.3211,0.0,0.0,0.0,0.0,0.0,0.0,0.0,0.0,0.0,0.0,4.0904,4.2711,4.3535,0.0,0.0,4.4216,4.3798,4.3589,4.3696,4.3185,4.1368,3.9843,0.0,0.0,0.0,0.0,0.0,0.0,0.0,0.0,0.0,0.0,0.0,0.0,0.0,0.0,0.0,0.0,0.0,0.0,0.0,0.0,0.0,0.0,0.0,0.0,0.0,0.0,0.0,0.0,0.0,0.0,0.0,0.0,0.0,0.0,0.0,0.0,0.0,0.0,0.0,0.0,0.0,0.0,0.0,0.0,0.0,0.0,0.0,0.0,0.0,0.0,0.0,0.0,4.2395,4.3566,4.6017,4.7309,4.7309,4.7309,4.698,4.6381,4.6501,4.5244,0.0,0.0,0.0,0.0,0.0,0.0,0.0,0.0,0.0,0.0,0.0,0.0,0.0,0.0,0.0,0.0,0.0,0.0,0.0,0.0,0.0,0.0,0.0,0.0,0.0,0.0,0.0,0.0,3.357,3.3475,3.26,0.0,0.0,0.0,0.0,0.0,0.0,0.0,0.0,0.0,0.0,4.1199,4.2701,4.3257,4.3645,4.3963,4.365,4.3333,4.281,4.2722,4.2205,4.091,0.0,0.0,0.0,0.0,0.0,0.0,0.0,0.0,0.0,0.0,0.0,0.0,0.0,0.0,0.0,0.0,0.0,0.0,0.0,0.0,0.0,0.0,0.0,0.0,0.0,0.0,0.0,4.329,0.0,0.0,4.1276,0.0,0.0,0.0,0.0,0.0,0.0,0.0,0.0,0.0,0.0,0.0,0.0,0.0,0.0,0.0,0.0,0.0,0.0,0.0,0.0,0.0,0.0,4.2166,4.3329,4.5963,4.7309,4.7309,4.7309,4.701,4.6381,4.695,4.6292,4.4227,0.0,0.0,0.0,0.0,0.0,0.0,0.0,0.0,0.0,0.0,0.0,0.0,0.0,0.0,0.0,0.0,0.0,0.0,0.0,0.0,0.0,0.0,0.0,0.0,0.0,0.0,3.2119,3.2435,3.2521,0.0,0.0,0.0,0.0,0.0,0.0,0.0,0.0,0.0,0.0,4.0208,4.1369,4.2126,4.2711,4.2879,4.2377,4.2266,4.2015,4.1485,4.1045,4.0501,0.0,0.0,0.0,0.0,0.0,0.0,0.0,0.0,0.0,0.0,0.0,0.0,0.0,0.0,0.0,0.0,0.0,0.0,0.0,0.0,0.0,0.0,0.0,0.0,0.0,0.0,0.0,4.4885,4.4362,0.0,0.0,0.0,0.0,0.0,0.0,0.0,0.0,0.0,0.0,0.0,4.4329,4.4109,0.0,0.0,0.0,0.0,0.0,0.0,0.0,0.0,0.0,0.0,0.0,0.0,4.2749,4.4018,4.6172,4.7309,4.7309,4.7309,4.7189,4.698,4.677,4.5514,4.309,0.0,0.0,0.0,0.0,0.0,0.0,0.0,0.0,0.0,0.0,0.0,0.0,0.0,0.0,0.0,0.0,0.0,0.0,0.0,0.0,0.0,0.0,0.0,0.0,0.0,3.2715,0.0,0.0,0.0,0.0,0.0,0.0,0.0,0.0,0.0,0.0,0.0,3.6944,3.9311,3.9826,4.0302,4.159,4.1379,4.1644,0.0,0.0,0.0,0.0,0.0,0.0,0.0,0.0,0.0,0.0,0.0,0.0,0.0,0.0,3.4946,3.3326,3.2918,3.2748,3.2509,0.0,0.0,0.0,0.0,0.0,0.0,0.0,0.0,0.0,0.0,0.0,0.0,0.0,0.0,4.6309,0.0,4.4852,0.0,0.0,0.0,0.0,0.0,0.0,0.0,0.0,4.5395,4.5894,4.5851,4.5603,4.5187,0.0,4.4172,4.2932,0.0,0.0,0.0,0.0,0.0,0.0,0.0,0.0,4.3,4.4317,4.6292,4.7309,4.7309,4.7309,4.7309,4.7279,4.6651,4.5394,4.3449,4.1893,4.0098,0.0,0.0,0.0,0.0,0.0,0.0,0.0,0.0,0.0,0.0,0.0,0.0,0.0,0.0,0.0,0.0,0.0,0.0,0.0,0.0,0.0,0.0,0.0,3.2415,0.0,0.0,0.0,0.0,0.0,0.0,0.0,0.0,0.0,3.6099,3.6674,3.7702,3.9486,3.9671,3.987,4.0404,0.0,0.0,0.0,0.0,0.0,0.0,0.0,4.0575,4.0172,3.9748,3.9717,4.0305,3.9788,3.9066,3.8492,0.0,0.0,3.5059,3.4533,3.4332,3.4244,3.3839,3.3434,3.3305,3.304,3.2678,0.0,0.0,0.0,0.0,0.0,0.0,0.0,0.0,4.7919,4.763,0.0,4.6007,0.0,0.0,0.0,0.0,0.0,4.5271,0.0,0.0,4.7558,4.7935,4.7323,4.657,4.6184,4.5961,4.4904,4.4264,4.391,4.2999,0.0,0.0,0.0,0.0,0.0,0.0,4.306,4.4407,4.6322,4.7309,4.7309,4.7309,4.7309,4.7249,4.6681,4.5992,4.5244,4.3449,4.1833,4.0457,3.8003,0.0,0.0,0.0,0.0,0.0,0.0,0.0,0.0,0.0,0.0,0.0,0.0,0.0,0.0,0.0,0.0,0.0,0.0,0.0,0.0,3.2093,0.0,0.0,0.0,0.0,0.0,0.0,0.0,0.0,0.0,0.0,3.7315,3.8059,3.8787,3.9264,0.0,0.0,0.0,0.0,4.0279,3.9311,3.9527,3.9436,3.8416,3.9137,3.9843,3.9651,0.0,0.0,4.0948,4.0203,3.9694,3.9382,3.9251,3.8591,3.6748,3.5721,3.5232,3.5565,3.4628,3.4078,3.4762,3.4383,3.3786,4.892,0.0,0.0,0.0,0.0,4.7659,4.7977,4.8604,4.892,4.8716,4.8243,4.8383,0.0,0.0,0.0,0.0,0.0,0.0,4.6265,4.6484,4.7191,4.7668,4.7775,4.7562,4.7471,4.7357,4.6826,4.6562,4.6562,4.6117,4.4599,4.2136,0.0,0.0,0.0,0.0,4.4407,4.5723,4.677,4.7309,4.7309,4.7309,4.707,4.6621,4.689,4.6262,4.4676,4.4496,4.3419,4.1205,3.9948,0.0,0.0,0.0,0.0,0.0,0.0,0.0,0.0,0.0,0.0,0.0,0.0,0.0,0.0,0.0,0.0,0.0,0.0,0.0,3.3696,3.2739,3.1984,0.0,0.0,0.0,0.0,0.0,0.0,0.0,0.0,0.0,3.8755,3.8194,3.8096,0.0,0.0,3.8701,3.8939,3.9323,4.0012,4.1311,4.1037,0.0,4.1439,4.1083,4.0833,4.0922,4.1542,4.1935,4.1547,4.1529,4.1458,4.1016,4.0623,4.0013,3.9152,3.8359,3.7726,3.7543,3.6904,3.6443,3.605,3.5669,3.5244,5.0615,5.0082,4.9032,4.8874,4.9379,4.93,4.9707,5.0454,5.0642,5.0485,4.9997,5.0203,4.9501,4.8183,4.8009,0.0,0.0,0.0,4.7527,4.7707,4.8049,4.8304,4.8494,4.8524,4.8494,4.8494,4.832,4.8263,4.8233,4.7905,4.6766,4.5031,0.0,0.0,4.3878,4.4728,4.5633,4.6711,4.7608,4.8087,4.8087,4.7818,4.7399,4.6741,4.686,4.6202,4.4766,4.4825,4.4047,4.2222,4.1294,3.9875,0.0,0.0,0.0,0.0,0.0,0.0,0.0,0.0,0.0,0.0,0.0,3.2698,3.3054,0.0,0.0,0.0,3.3645,3.3971,3.4335,3.3378,0.0,0.0,0.0,0.0,0.0,0.0,0.0,3.5231,3.7025,3.8359,3.8885,3.8503,3.8556,3.9664,3.9291,3.9024,3.9554,0.0,4.071,4.1865,4.1603,4.1476,4.1982,4.1905,4.1904,4.2128,4.2359,4.2459,4.2152,4.209,4.2037,4.1672,4.1112,4.0691,4.0235,3.9608,3.8891,3.8202,3.7679,3.7268,3.6545,3.6238,3.5929,5.2154,5.2033,5.0252,5.0268,5.1465,5.1327,5.2013,5.3072,5.2542,5.2324,5.2175,5.1444,5.0824,5.031,4.9378,0.0,4.9512,4.9371,4.933,4.9613,4.9613,4.9524,4.9254,4.9254,4.9254,4.9254,4.9254,4.9254,4.9224,4.8656,4.8356,4.8297,4.6471,4.5185,4.4646,4.5783,4.6741,4.7399,4.8566,4.9164,4.9164,4.8596,4.7967,4.7309,4.6711,4.6082,4.5394,4.4796,4.4137,4.3419,4.2252,4.1189,4.0159,0.0,0.0,0.0,0.0,0.0,0.0,0.0,0.0,0.0,0.0,0.0,0.0,0.0,0.0,0.0,3.4476,0.0,3.5165,3.402,0.0,0.0,0.0,3.3404,3.4476,3.5652,3.6593,3.709,0.0,0.0,3.8394,3.891,3.9673,4.0841,4.069,4.0514,4.054,4.1481,4.2056,4.1615,4.1723,4.1673,4.1544,4.2051,4.2612,4.2846,4.2737,4.2488,4.2375,4.2037,4.1606,4.1606,4.1057,4.0711,4.0595,3.9826,3.901,3.7977,3.7381,3.6938,3.661,3.6383,3.6132,5.3459,5.3368,5.2429,5.1756,5.1114,5.1114,5.0992,5.0808,5.1175,5.1359,5.1359,5.1635,5.1422,5.075,5.0049,4.9661,4.9549,4.9549,4.9462,4.9344,4.9344,4.9344,4.9254,4.9254,4.9254,4.9254,4.9254,4.9254,4.9254,4.9105,4.9045,4.8985,4.8057,4.7249,4.6621,4.692,4.7399,4.8027,4.8356,4.8536,4.8506,4.8356,4.7967,4.7339,4.716,4.677,4.6112,4.5933,4.5304,4.4137,4.3778,4.2802,4.0931,3.8847,0.0,0.0,0.0,0.0,0.0,0.0,0.0,0.0,0.0,3.3516,3.3861,0.0,3.3971,0.0,3.5144,3.5778,3.6082,3.5416,0.0,0.0,3.5391,3.5574,3.6332,3.7612,3.8376,3.8065,3.8608,3.9334,3.9925,4.013,4.0747,4.2188,4.1722,4.1272,4.169,4.2164,4.2631,4.2891,4.317,4.3208,4.2812,4.2815,4.2922,4.2961,4.2762,4.2425,4.2224,4.1859,4.1492,4.1287,4.0942,4.0595,4.013,3.9638,3.9003,3.8044,3.7524,3.7188,3.6838,3.6374,3.5907,5.4014,5.3953,5.332,5.2627,5.1997,5.1607,5.1213,5.0909,5.1273,5.1455,5.1486,5.185,5.1698,5.1243,5.085,5.0487,5.0305,5.0305,5.0214,5.0122,5.0152,5.0122,5.0122,5.0122,5.0152,5.0152,5.0152,5.0122,5.0122,5.0152,5.0152,5.0122,4.9763,4.9254,4.8626,4.8027,4.7908,4.8297,4.8865,4.9164,4.9134,4.8865,4.8267,4.7339,4.701,4.6411,4.5454,4.5424,4.4825,4.3539,4.3718,4.3041,4.1169,3.9652,3.8072,0.0,0.0,0.0,0.0,0.0,0.0,0.0,0.0,0.0,0.0,0.0,3.4819,3.5062,3.5721,3.632,3.6727,3.6429,3.6446,3.7168,3.7273,3.7495,3.8262,3.9103,3.9452,3.9303,3.985,4.0287,4.0619,4.1129,4.1741,4.2684,4.2651,4.2553,4.2837,4.3093,4.3269,4.3579,4.3669,4.3543,4.3295,4.3073,4.2961,4.2762,4.2538,4.2199,4.1972,4.1631,4.1287,4.1081,4.0711,4.0246,3.9638,3.919,3.8596,3.7878,3.7253,3.6889,3.6667,3.63,3.5911,5.4461,5.4401,5.3713,5.3384,5.3234,5.248,5.2152,5.2152,5.2061,5.197,5.191,5.191,5.1787,5.1572,5.1572,5.1386,5.1229,5.1229,5.1229,5.1229,5.1229,5.1229,5.1229,5.1229,5.1229,5.1229,5.1229,5.1229,5.1229,5.1229,5.1229,5.1229,5.1139,5.081,5.0212,4.9015,4.8446,4.8536,4.9643,5.0212,5.0122,4.9464,4.8506,4.7219,4.6621,4.5723,4.4526,4.4436,4.3868,4.2731,4.315,4.2783,4.1525,4.0368,3.9311,0.0,3.6744,0.0,0.0,0.0,0.0,0.0,0.0,0.0,0.0,3.5736,3.5698,3.6023,3.6437,3.6964,3.7299,3.7351,3.7769,3.8789,3.8919,3.9172,4.0016,4.0124,4.0256,4.0542,4.0796,4.0917,4.1174,4.1904,4.2511,4.2747,4.3161,4.3559,4.3738,4.3687,4.3713,4.3789,4.3543,4.3295,4.3098,4.2986,4.2874,4.2513,4.2312,4.1972,4.172,4.1378,4.1081,4.0735,4.0479,3.9989,3.9308,3.8834,3.8238,3.7517,3.6911,3.6423,3.63,3.6055,3.5788,5.5807,5.5748,5.5089,5.4521,5.3952,5.3271,5.3008,5.2978,5.2437,5.1832,5.1323,5.1323,5.1323,5.1323,5.1323,5.1199,5.1229,5.1229,5.1229,5.1229,5.1229,5.1229,5.1229,5.1229,5.1229,5.1229,5.1229,5.1229,5.1229,5.1229,5.1229,5.1199,5.069,5.0361,5.0212,0.0,0.0,0.0,5.0122,4.9972,4.9464,4.8805,4.7848,4.6561,4.6381,0.0,4.5155,4.5125,4.4766,4.3988,4.4077,0.0,0.0,0.0,0.0,0.0,0.0,0.0,0.0,0.0,0.0,0.0,3.8921,3.8169,3.6329,3.6485,3.7138,3.8044,3.8254,3.8475,3.905,3.9128,3.939,3.9991,3.9901,3.999,4.0663,4.0722,4.0745,4.0847,4.1039,4.1462,4.1864,4.2167,4.2443,4.2846,4.3022,4.3209,4.3209,4.3295,4.3517,4.3517,4.3295,4.3073,4.2986,4.2986,4.2849,4.2513,4.2312,4.1972,4.1631,4.1402,4.1081,4.0711,4.0479,3.9873,3.9049,3.8596,3.8141,3.7154,3.6667,3.63,3.6055,3.5665,3.5418,5.6466,5.6166,5.6137,5.5748,0.0,5.479,5.464,5.4581,5.3234,5.2486,5.2187,5.2187,5.2187,5.2187,5.2187,5.2187,5.2157,5.1858,5.1708,5.1678,5.1379,5.1229,5.1229,5.1229,5.1229,5.1229,5.1229,5.1229,5.1229,5.1229,5.1229,5.1199,5.09,5.072,5.072,5.0391,5.0242,5.0242,5.0242,5.0242,5.0212,4.9583,4.8775,4.7788,4.713,0.0,0.0,0.0,0.0,0.0,0.0,0.0,0.0,0.0,0.0,4.1865,4.1624,4.1237,4.0781,4.0912,4.0971,4.0586,4.0267,3.9492,3.7926,3.8134,3.8527,3.9102,3.9155,3.939,3.9939,4.0017,4.0331,4.1141,4.0971,4.1002,4.1441,4.1358,4.1195,4.1165,4.1512,4.1856,4.2108,4.2298,4.2413,4.2687,4.265,4.2538,4.265,4.2961,4.3184,4.3184,4.3098,4.2986,4.2986,4.2986,4.2874,4.2425,4.2224,4.1883,4.1516,4.1287,4.1057,4.0595,4.0339,3.9873,3.8834,3.85,3.8021,3.6911,3.6545,3.6178,3.5788,3.5541,3.5418,5.6705,5.6376,5.6885,5.6795,5.6346,5.6346,5.6256,5.6047,0.0,0.0,0.0,5.3174,5.3174,5.3174,5.3174,5.3174,5.3144,5.2606,5.2366,5.2366,5.1798,5.1498,5.1409,5.1409,5.1319,5.1229,5.1229,5.1229,5.1229,5.1229,5.1229,5.1229,5.1229,5.1229,5.1229,5.1229,5.096,5.0421,5.0301,5.0481,5.102,5.0391,4.9763,4.9105,4.8057,4.713,4.6352,4.5783,4.5185,4.4556,4.5005,4.4691,4.3553,4.3997,4.3921,4.2982,4.2952,4.2934,4.2767,4.2386,4.2049,4.1911,4.1207,4.0399,3.9708,3.9754,3.9808,3.9913,4.0017,4.0252,4.0671,4.0827,4.1246,4.2213,4.2009,4.1879,4.2106,4.1966,4.167,4.153,4.1957,4.2283,4.2223,4.2351,4.2513,4.2425,4.2312,4.211,4.2224,4.2538,4.2849,4.2849,4.2986,4.2986,4.2986,4.2986,4.2762,4.2224,4.211,4.1883,4.1426,4.1196,4.0942,4.0363,4.0223,3.9638,3.8738,3.838,3.79,3.6667,3.6423,3.6178,3.5562,3.55,3.5562,5.6555,5.6974,5.7064,5.7034,5.6974,5.6944,5.6675,5.6077,5.467,5.3743,5.3174,5.3174,5.3174,5.3174,5.3174,5.3174,5.3174,5.3084,5.3025,5.3025,5.2965,5.2606,5.2067,5.2067,5.1768,5.1259,5.1229,5.1229,5.1229,5.1229,5.1229,5.1229,5.1229,5.1229,5.1229,5.1229,5.1169,5.1079,5.0511,5.0272,5.0361,4.9733,4.9105,4.8446,4.8267,4.7578,4.6381,4.6232,4.5843,4.5214,4.5244,4.5287,4.528,4.5282,4.5375,4.5374,4.5432,4.5194,4.471,4.428,4.3565,4.256,4.2529,4.2047,4.0694,4.035,4.0514,4.1036,4.1481,4.1821,4.1951,4.2317,4.2631,4.2762,4.2475,4.2211,4.2234,4.2214,4.2141,4.2057,4.2534,4.2724,4.2476,4.2463,4.2425,4.2199,4.2086,4.211,4.2086,4.2312,4.2513,4.2625,4.2874,4.2986,4.2986,4.2986,4.2762,4.2224,4.211,4.1859,4.1311,4.1196,4.0942,4.0339,4.0223,3.9779,3.8619,3.838,3.79,3.6789,3.6423,3.6178,3.5583,3.5769,3.6039,5.6974,5.6765,5.7723,5.7752,5.7124,5.7483,5.7094,5.6137,5.5538,5.488,5.4311,5.4281,5.4281,5.4281,5.4281,5.4281,5.4251,5.3892,5.3743,5.3713,5.3354,5.3025,5.2755,5.2725,5.2576,5.2276,5.2276,5.2276,5.2247,5.1947,5.1768,5.1708,5.1409,5.1229,5.1229,5.1229,5.1229,5.1199,5.093,5.075,5.075,5.0481,5.0182,4.9883,4.9553,4.9075,4.8476,4.7758,4.7249,4.692,4.6561,4.6275,4.6108,4.6167,4.6109,4.5956,4.5895,4.5859,4.5652,4.524,4.4441,4.3352,4.3392,4.3035,4.2102,4.1847,4.1951,4.2213,4.2474,4.2631,4.2631,4.2866,4.3049,4.323,4.2832,4.2746,4.2812,4.2739,4.2585,4.261,4.2811,4.2849,4.2513,4.2425,4.2199,4.1859,4.1745,4.1655,4.1631,4.1834,4.2174,4.24,4.2625,4.2762,4.2986,4.2986,4.2762,4.2224,4.211,4.1883,4.1311,4.1196,4.0942,4.0595,4.0339,3.9755,3.8834,3.8477,3.79,3.7054,3.6545,3.6241,3.6143,3.6476,3.6825,5.7393,5.6795,5.8231,5.8381,5.7603,5.7962,5.7453,5.6406,5.6226,5.5807,5.5239,5.5209,5.5209,5.5209,5.5209,5.5179,5.5119,5.467,5.4431,5.4371,5.3862,5.3563,5.3414,5.3414,5.3324,5.3174,5.3174,5.3174,5.3114,5.2665,5.2426,5.2366,5.1917,5.1678,5.1648,5.1648,5.1588,5.1468,5.1439,5.1379,5.1229,5.1229,5.1229,5.1199,5.072,5.0391,5.0212,4.9284,4.8656,4.8506,4.8027,4.7583,4.7022,4.7022,4.6843,4.6392,4.6301,4.6229,4.6064,4.5707,4.4966,4.3926,4.3957,4.3804,4.331,4.3337,4.3284,4.3075,4.3127,4.3206,4.3232,4.3363,4.3466,4.3562,4.3316,4.3252,4.3305,4.3184,4.2986,4.2986,4.2986,4.2874,4.2538,4.2312,4.1997,4.1606,4.1287,4.1196,4.1172,4.1402,4.172,4.2174,4.24,4.2625,4.2849,4.2961,4.2762,4.2199,4.211,4.1883,4.1402,4.1287,4.1081,4.0711,4.0363,3.9873,3.9167,3.8596,3.8021,3.7175,3.6875,3.6784,3.6876,3.7186,3.7556,5.7483,5.7932,5.8171,5.8501,5.88,5.8351,5.7723,5.6974,5.6436,5.5807,5.5269,5.5209,5.5209,5.5209,5.5209,5.5209,5.5209,5.5119,5.5089,5.5089,5.5029,5.47,5.4162,5.4132,5.3803,5.3294,5.3264,5.3294,5.3294,5.3174,5.3084,5.3084,5.3025,5.2935,5.2965,5.2965,5.2695,5.2127,5.2097,5.1828,5.1259,5.1229,5.1229,5.1229,5.1169,5.084,5.0301,5.0122,4.9763,4.9254,4.9105,4.8865,4.8411,4.8319,4.8135,4.7672,4.7579,4.7261,4.6305,4.5733,4.5021,4.3953,4.4356,4.444,4.3939,4.4251,4.4121,4.3415,4.352,4.3781,4.3833,4.4225,4.4379,4.4106,4.3965,4.3713,4.3381,4.3184,4.2986,4.2986,4.2986,4.2874,4.2513,4.2199,4.1859,4.1402,4.1287,4.1196,4.1196,4.1287,4.1402,4.172,4.2061,4.2513,4.2625,4.2849,4.2762,4.2513,4.2199,4.1972,4.1631,4.1287,4.1057,4.085,4.0479,4.0013,3.9426,3.8834,3.8261,3.7813,3.7588,3.7567,3.7826,3.7947,3.7921,5.8201,5.8171,5.853,5.886,5.9039,5.88,5.8321,5.7663,5.7004,5.6376,5.5748,5.5359,5.5209,5.5209,5.5209,5.5209,5.5209,5.5209,5.5209,5.5209,5.5209,5.5029,5.482,5.479,5.461,5.4401,5.4371,5.4371,5.4311,5.3982,5.3593,5.3204,5.3174,5.3174,5.3174,5.3174,5.3025,5.2785,5.2785,5.2456,5.1828,5.1409,5.1229,5.1229,5.1229,5.1109,5.081,5.0451,5.0122,4.9853,4.9494,4.9073,4.8525,4.8525,4.8341,4.7905,4.7845,4.7441,4.656,4.655,4.6031,4.4994,4.5102,4.5023,4.449,4.4591,4.4513,4.4173,4.4251,4.4382,4.4382,4.4591,4.4613,4.4313,4.4094,4.3764,4.3406,4.3184,4.2986,4.2986,4.2986,4.2849,4.2513,4.2086,4.172,4.1378,4.1287,4.1172,4.1196,4.1196,4.1287,4.1402,4.1859,4.2312,4.2538,4.2762,4.2874,4.2513,4.2312,4.1997,4.1745,4.1402,4.1172,4.0942,4.0711,4.0246,3.9755,3.9331,3.8783,3.8497,3.8591,3.8698,3.8315,3.8481,3.8498,5.883,5.8501,5.8919,5.9099,5.9099,5.9099,5.874,5.8112,5.7603,5.7004,5.6376,5.5748,5.5448,5.5448,5.5269,5.5209,5.5209,5.5209,5.5209,5.5209,5.5209,5.5179,5.5209,5.5209,5.5209,5.5209,5.5149,5.5179,5.5149,5.473,5.4221,5.3803,5.3743,5.3743,5.3743,5.3713,5.3653,5.3473,5.3443,5.3144,5.2486,5.2007,5.1588,5.1259,5.1229,5.1229,5.1199,5.075,5.0511,5.0481,5.0062,4.961,4.9056,4.9056,4.8776,4.8238,4.8229,4.7801,4.7002,4.7142,4.6769,4.5795,4.5582,4.5395,4.483,4.4748,4.4748,4.4696,4.4748,4.4722,4.4748,4.4748,4.4639,4.4313,4.4119,4.3764,4.3406,4.3184,4.2986,4.2986,4.2986,4.2874,4.2513,4.2174,4.1834,4.1606,4.1402,4.1287,4.1172,4.1287,4.1287,4.1402,4.1859,4.2199,4.2425,4.2762,4.2762,4.265,4.2425,4.2086,4.1834,4.1516,4.1172,4.1172,4.0826,4.0737,4.0411,4.0058,3.9671,3.9534,3.9663,3.9686,3.9261,3.9411,3.9299,5.9069,5.9069,5.9099,5.9099,5.9099,5.9099,5.874,5.8201,5.8082,5.7663,5.7034,5.6406,5.6137,5.6077,5.5538,5.5209,5.5209,5.5209,5.5209,5.5209,5.5209,5.5209,5.5209,5.5209,5.5209,5.5209,5.5209,5.5209,5.5209,5.5149,5.5149,5.5059,5.4999,5.5029,5.4999,5.497,5.476,5.4221,5.4162,5.3832,5.3234,5.3084,5.2486,5.1468,5.1259,5.1259,5.1229,5.1199,5.1139,5.1169,5.1079,5.0892,5.0449,5.0353,4.994,4.9259,4.8894,4.8453,4.7717,4.7363,4.6796,4.5848,4.5662,4.5421,4.5014,4.4905,4.4905,4.48,4.4879,4.4853,4.4853,4.48,4.4613,4.4313,4.4119,4.3815,4.3432,4.3336,4.3011,4.3062,4.3087,4.2925,4.2538,4.2513,4.2174,4.1834,4.1606,4.1492,4.1402,4.1516,4.1606,4.172,4.2086,4.2425,4.2224,4.265,4.2986,4.2849,4.265,4.2425,4.2086,4.1859,4.1516,4.1311,4.1038,4.0996,4.107,4.0924,4.0548,4.049,4.0603,4.0501,4.0125,4.017,4.0018,5.9099,5.9099,5.9099,5.9099,5.9099,5.9099,5.8979,5.871,5.8291,5.7992,5.7663,5.7064,5.6765,5.6735,5.6107,5.5598,5.5209,5.5209,5.5209,5.5209,5.5209,5.5209,5.5209,5.5209,5.5209,5.5209,5.5209,5.5209,5.5209,5.5209,5.5209,5.5209,5.5209,5.5209,5.5209,5.5209,5.5059,5.488,5.485,5.4521,5.3892,5.3832,5.3384,5.2516,5.2067,5.1648,5.1229,5.1229,5.1229,5.1229,5.1229,5.0947,5.0501,5.0183,4.9698,4.9108,4.8909,4.8509,4.7624,4.7391,4.696,4.6249,4.6168,4.6111,4.5878,4.5846,4.5846,4.5846,4.5846,4.5846,4.5689,4.5192,4.4639,4.4557,4.4428,4.4326,4.4265,4.413,4.4016,4.3991,4.374,4.3388,4.3025,4.265,4.24,4.2174,4.2061,4.1859,4.1883,4.1859,4.1972,4.1972,4.2174,4.24,4.2425,4.2762,4.2986,4.2874,4.2762,4.2513,4.2287,4.1948,4.1606,4.1662,4.1413,4.1492,4.1638,4.1895,4.1538,4.125,4.1365,4.1361,4.1013,4.0906,4.0517,5.9099,5.9099,5.9099,5.9099,5.9099,5.9099,5.9099,5.9069,5.862,5.8441,5.8321,5.7723,5.7423,5.7334,5.6735,5.6137,5.5508,5.5299,5.5209,5.5209,5.5209,5.5209,5.5209,5.5209,5.5209,5.5209,5.5209,5.5209,5.5209,5.5209,5.5209,5.5209,5.5209,5.5209,5.5209,5.5209,5.5209,5.5209,5.5209,5.497,5.4581,5.4521,5.4221,5.3563,5.3084,5.2426,5.1588,5.1528,5.1409,5.1259,5.1135,5.0852,5.0375,4.999,4.9473,4.9009,4.9009,4.859,4.7826,4.7548,4.7349,4.6837,4.6671,4.6637,4.6559,4.6499,4.6499,4.6499,4.6499,4.6499,4.6342,4.5741,4.5297,4.5213,4.5107,4.5001,4.5027,4.4738,4.4543,4.4518,4.4267,4.3915,4.3614,4.3312,4.3123,4.2836,4.2584,4.2445,4.2159,4.2224,4.2199,4.2224,4.2538,4.265,4.265,4.2874,4.2986,4.2986,4.2874,4.2737,4.2587,4.211,4.1981,4.1898,4.1934,4.2062,4.2233,4.2658,4.2474,4.2288,4.2223,4.2328,4.1911,4.1527,4.1164,5.9129,5.9099,5.9099,5.9099,5.9099,5.9099,5.9099,5.9099,5.9069,5.9009,5.889,5.8381,5.8112,5.7992,5.7423,5.6765,5.6256,5.5688,5.5329,5.5209,5.5209,5.5209,5.5209,5.5209,5.5209,5.5209,5.5209,5.5209,5.5209,5.5209,5.5209,5.5209,5.5209,5.5209,5.5209,5.5209,5.5209,5.5209,5.5209,5.5179,5.5179,5.5119,5.482,5.4281,5.4162,5.3563,5.2306,5.2217,5.1947,5.1439,5.1036,5.0662,5.0359,5.0038,4.9589,4.9238,4.9234,4.8977,4.836,4.8162,4.7866,4.7478,4.7145,4.6863,4.6795,4.6682,4.6656,4.6708,4.6656,4.6604,4.663,4.6552,4.6421,4.6473,4.5969,4.5705,4.5476,4.5016,4.4644,4.4694,4.4644,4.4618,4.4593,4.4327,4.4127,4.3597,4.3358,4.3119,4.2658,4.2648,4.2587,4.2562,4.2787,4.2874,4.2986,4.2986,4.2986,4.3011,4.2986,4.2874,4.2824,4.2648,4.2692,4.2659,4.2652,4.2804,4.2975,4.3327,4.3369,4.3161,4.3177,4.3075,4.2546,4.2166,4.1806,5.9518,5.9129,5.9099,5.9099,5.9099,5.9099,5.9099,5.9099,5.9099,5.9099,5.9069,5.889,5.88,5.865,5.8112,5.7693,5.7453,5.6795,5.6047,5.5329,5.5209,5.5239,5.5209,5.5209,5.5209,5.5209,5.5209,5.5209,5.5209,5.5209,5.5209,5.5209,5.5209,5.5209,5.5209,5.5209,5.5209,5.5209,5.5209,5.5209,5.5209,5.5209,5.5089,5.491,5.488,5.4461,5.3623,5.3114,5.2785,5.2546,5.2286,5.1964,5.1473,5.1104,5.0702,5.0223,5.0029,4.9651,4.8941,4.8463,4.8134,4.7958,4.7642,4.7626,4.7712,4.7623,4.7597,4.7623,4.7649,4.7649,4.7649,4.7649,4.731,4.6578,4.6498,4.6386,4.6064,4.5876,4.5573,4.5296,4.5221,4.507,4.4744,4.4669,4.4527,4.4327,4.4277,4.4036,4.3861,4.3487,4.345,4.3425,4.3313,4.3137,4.3237,4.3338,4.3388,4.3363,4.3288,4.3338,4.335,4.3248,4.3292,4.3431,4.3423,4.3529,4.3818,4.3883,4.3903,4.3826,4.3678,4.3428,4.3075,4.2822,4.2443,5.9847,5.9458,5.9219,5.9099,5.9099,5.9099,5.9099,5.9099,5.9099,5.9099,5.9099,5.9099,5.9099,5.9009,5.865,5.8351,5.8082,5.7663,5.6915,5.6017,5.5897,5.5777,5.5538,5.5269,5.5209,5.5209,5.5209,5.5209,5.5209,5.5209,5.5209,5.5209,5.5209,5.5209,5.5209,5.5209,5.5209,5.5209,5.5209,5.5209,5.5209,5.5209,5.5209,5.5179,5.5179,5.497,5.4551,5.4132,5.3683,5.3294,5.2881,5.2417,5.1887,5.1585,5.1206,5.0823,5.0473,5.0057,4.9442,4.8926,4.8476,4.8486,4.8224,4.8011,4.8094,4.8172,4.8172,4.8172,4.8146,4.8172,4.8172,4.8172,4.7832,4.7231,4.721,4.7069,4.6652,4.6458,4.615,4.5874,4.5799,4.5598,4.5372,4.5246,4.5146,4.502,4.4945,4.4794,4.4669,4.4317,4.4192,4.4066,4.394,4.379,4.3664,4.3714,4.379,4.374,4.3689,4.3815,4.3851,4.3976,4.3946,4.4259,4.4323,4.4497,4.4572,4.4497,4.447,4.4199,4.4051,4.3826,4.3576,4.3326,4.3075,6.0116,5.9997,5.9428,5.9159,5.9129,5.9099,5.9099,5.9099,5.9099,5.9099,5.9099,5.9099,5.9099,5.9099,5.9009,5.874,5.8261,5.8201,5.7872,5.7363,5.7184,5.6915,5.6226,5.5748,5.5538,5.5478,5.5448,5.5418,5.5508,5.5508,5.5269,5.5329,5.5359,5.5239,5.5209,5.5209,5.5209,5.5209,5.5209,5.5209,5.5209,5.5209,5.5209,5.5209,5.5179,5.5149,5.5089,5.4999,5.4491,5.3405,5.2881,5.2511,5.1889,5.1424,5.1334,5.1109,5.0635,5.0429,5.0051,4.9324,4.8965,4.9019,4.8442,4.8172,4.8172,4.8172,4.8172,4.8172,4.8172,4.8172,4.8172,4.8172,4.812,4.8172,4.7691,4.7272,4.69,4.6541,4.625,4.6276,4.6301,4.6276,4.615,4.615,4.5949,4.5673,4.5522,4.5321,4.5045,4.4869,4.4719,4.4593,4.4493,4.4292,4.4116,4.4116,4.4242,4.4468,4.4367,4.4443,4.4618,4.4627,4.4686,4.4973,4.5055,4.5255,4.5184,4.4963,4.4717,4.4594,4.4323,4.4199,4.395,4.3826,4.36,6.0535,6.0086,5.9907,5.9548,5.9159,5.9099,5.9099,5.9099,5.9099,5.9099,5.9099,5.9099,5.9099,5.9099,5.9099,5.9009,5.883,5.883,5.88,5.862,5.859,5.7902,5.7034,5.6675,5.6555,5.6526,5.6466,5.6585,5.6615,5.6496,5.6316,5.5927,5.5897,5.5658,5.5269,5.5269,5.5209,5.5209,5.5209,5.5239,5.5209,5.5209,5.5209,5.5209,5.5209,5.5209,5.5179,5.5006,5.4684,5.4095,5.3904,5.3627,5.292,5.2636,5.2292,5.2003,5.1393,5.0988,5.0463,4.9702,4.9125,4.901,4.8521,4.8172,4.8172,4.8172,4.8172,4.8172,4.8172,4.8172,4.8172,4.8172,4.8172,4.8172,4.7703,4.7324,4.7112,4.6636,4.6326,4.6326,4.6326,4.6326,4.6326,4.6301,4.625,4.61,4.6024,4.5999,4.5648,4.5422,4.5246,4.5095,4.4945,4.4719,4.4568,4.4568,4.4719,4.5121,4.5171,4.5171,4.5347,4.5547,4.5535,4.5643,4.5569,4.5646,4.5428,4.5208,4.5086,4.4963,4.4717,4.4594,4.4347,4.4099,4.4022,6.0984,6.0086,6.0086,5.9697,5.9129,5.9099,5.9099,5.9099,5.9099,5.9099,5.9099,5.9099,5.9099,5.9099,5.9099,5.9099,5.9099,5.9099,5.9099,5.9099,5.9069,5.8471,5.7663,5.7304,5.7094,5.7094,5.7124,5.7094,5.7064,5.7094,5.6885,5.6615,5.6555,5.6346,5.6077,5.5987,5.5987,5.5957,5.5777,5.5628,5.5598,5.5329,5.5209,5.5209,5.5209,5.5209,5.5179,5.4905,5.4671,5.4406,5.42,5.3919,5.35,5.3107,5.2787,5.2437,5.1677,5.1017,5.046,4.9556,4.9125,4.8895,4.8431,4.8289,4.8172,4.8172,4.8172,4.8172,4.8172,4.8172,4.8172,4.8172,4.8172,4.8172,4.7703,4.7324,4.7205,4.6755,4.6421,4.6326,4.6326,4.6326,4.6326,4.6326,4.6326,4.6301,4.625,4.625,4.62,4.5974,4.5773,4.5598,4.5547,4.5422,4.5347,4.5347,4.5296,4.5648,4.5723,4.5748,4.5849,4.6075,4.603,4.6035,4.6059,4.5939,4.5696,4.5574,4.5453,4.5331,4.5086,4.4865,4.4766,4.4908,4.4659,6.1343,6.0266,6.0146,5.9727,5.9249,5.9129,5.9099,5.9099,5.9099,5.9099,5.9099,5.9099,5.9099,5.9099,5.9099,5.9099,5.9099,5.9099,5.9099,5.9099,5.9069,5.871,5.8261,5.7782,5.7543,5.7513,5.7334,5.7423,5.7543,5.7453,5.7304,5.7244,5.7214,5.7124,5.6885,5.6944,5.7064,5.6855,5.6466,5.6256,5.6196,5.5867,5.5658,5.5628,5.5448,5.5329,5.5138,5.4875,5.4568,5.4304,5.4023,5.3815,5.35,5.3001,5.2573,5.2113,5.1458,5.0683,5.001,4.9442,4.901,4.8779,4.8431,4.8198,4.8198,4.8277,4.8381,4.8381,4.8277,4.8303,4.8172,4.8172,4.8172,4.8172,4.7938,4.7586,4.7324,4.6993,4.6686,4.6301,4.6301,4.6326,4.6326,4.6326,4.6326,4.6326,4.6326,4.6326,4.6326,4.6175,4.6125,4.6125,4.615,4.6225,4.62,4.62,4.6125,4.6175,4.6125,4.6125,4.61,4.6225,4.6276,4.618,4.618,4.618,4.618,4.6059,4.5842,4.577,4.5601,4.5331,4.5134,4.5622,4.5691,6.1463,6.1553,6.0535,5.9997,5.9817,5.9338,5.9129,5.9099,5.9099,5.9099,5.9099,5.9099,5.9099,5.9099,5.9099,5.9099,5.9099,5.9099,5.9099,5.9099,5.9099,5.9069,5.886,5.862,5.862,5.859,5.865,5.865,5.862,5.8471,5.8411,5.7962,5.7872,5.7633,5.7244,5.7274,5.7124,5.7094,5.6974,5.6915,5.6885,5.6705,5.6555,5.6526,5.6196,5.5616,5.4994,5.4539,5.4304,5.3993,5.3977,5.3856,5.353,5.3001,5.2573,5.2113,5.1348,5.0683,5.0037,4.9496,4.9037,4.8795,4.8589,4.8172,4.8224,4.8669,4.8852,4.8878,4.8878,4.8721,4.8407,4.8224,4.8303,4.8329,4.8186,4.8042,4.7611,4.7138,4.6661,4.6421,4.6301,4.6326,4.6326,4.6326,4.6326,4.6326,4.6326,4.6326,4.6326,4.6326,4.6326,4.6326,4.6326,4.6326,4.6326,4.6326,4.6326,4.6326,4.6326,4.6326,4.6326,4.6326,4.6326,4.6326,4.6301,4.6326,4.6326,4.6401,4.6209,4.6163,4.6043,4.6093,4.6068,4.6486,4.663,6.1702,6.1164,6.1044,6.0475,5.9697,5.9578,5.9398,5.9159,5.9099,5.9099,5.9099,5.9099,5.9099,5.9099,5.9099,5.9099,5.9099,5.9099,5.9099,5.9099,5.9099,5.9099,5.9099,5.9099,5.9099,5.9099,5.9099,5.9099,5.9099,5.9099,5.889,5.862,5.856,5.8441,5.8082,5.7992,5.8082,5.8022,5.7723,5.7573,5.7543,5.7244,5.7094,5.7064,5.6765,5.6332,5.5783,5.5381,5.5142,5.4797,5.4661,5.4187,5.3511,5.3001,5.2465,5.2004,5.1348,5.0624,5.0108,4.9783,4.9425,4.9311,4.9101,4.8982,4.9008,4.9296,4.9427,4.9453,4.9427,4.9296,4.9035,4.8982,4.8982,4.8982,4.8982,4.8864,4.8402,4.7564,4.69,4.6541,4.6421,4.6301,4.6326,4.6451,4.6401,4.6426,4.6401,4.6376,4.6326,4.6326,4.6326,4.6326,4.6326,4.6326,4.6326,4.6326,4.6326,4.6326,4.6326,4.6326,4.6326,4.6326,4.6326,4.6351,4.6426,4.6326,4.6326,4.6451,4.6702,4.6731,4.6711,4.6836,4.7009,4.7255,4.7351,6.2002,6.0625,6.1553,6.0954,5.9638,5.9877,5.9668,5.9159,5.9099,5.9099,5.9099,5.9099,5.9099,5.9099,5.9099,5.9099,5.9099,5.9099,5.9099,5.9099,5.9099,5.9099,5.9099,5.9099,5.9099,5.9099,5.9099,5.9099,5.9099,5.9099,5.9069,5.9069,5.9099,5.8949,5.9039,5.9099,5.8949,5.883,5.8471,5.8261,5.8231,5.7782,5.7543,5.7334,5.7199,5.6944,5.6479,5.6102,5.5947,5.5713,5.5496,5.4807,5.3955,5.3288,5.2641,5.2124,5.1683,5.0976,5.0381,5.0137,5.0088,4.9992,4.9845,4.9845,4.9819,4.9923,5.0028,5.0028,5.0002,4.9949,4.9897,4.9714,4.9766,4.9793,4.9845,4.975,4.9352,4.824,4.7573,4.7161,4.695,4.6878,4.6803,4.6828,4.6652,4.6552,4.6527,4.6527,4.6502,4.6451,4.6527,4.6426,4.6426,4.6326,4.6326,4.6376,4.6376,4.6476,4.6426,4.6527,4.6552,4.6778,4.6853,4.6577,4.6552,4.6527,4.6702,4.7029,4.723,4.733,4.7457,4.7708,4.7882,4.8181,4.8075,6.2391,6.251,6.1642,6.1074,6.0715,6.0326,5.9787,5.9159,5.9159,5.9099,5.9099,5.9099,5.9099,5.9099,5.9099,5.9099,5.9099,5.9099,5.9099,5.9099,5.9099,5.9099,5.9099,5.9099,5.9099,5.9099,5.9099,5.9099,5.9099,5.9099,5.9099,5.9099,5.9099,5.9099,5.9099,5.9099,5.9099,5.9099,5.8919,5.886,5.877,5.865,5.8351,5.7886,5.7749,5.7298,5.6563,5.6094,5.5713,5.5496,5.5416,5.5221,5.4748,5.4333,5.3751,5.2939,5.2459,5.1714,5.0907,5.0724,5.0393,5.0112,5.0002,4.9976,5.008,5.0342,5.0603,5.0629,5.0577,5.0472,4.9923,5.0054,4.9949,4.9923,5.0002,5.0028,4.9828,4.9404,4.8762,4.8299,4.7904,4.7506,4.7355,4.728,4.728,4.723,4.7255,4.728,4.728,4.7129,4.7004,4.6828,4.6577,4.6451,4.6326,4.6401,4.6476,4.6677,4.6778,4.7004,4.7129,4.7481,4.7506,4.728,4.7129,4.7129,4.7355,4.7631,4.7757,4.7832,4.8209,4.8611,4.866,4.8732,4.8932,6.26,6.254,6.2211,6.1732,6.1194,6.1164,6.0535,5.9668,5.9608,5.9398,5.9189,5.9099,5.9099,5.9099,5.9099,5.9099,5.9099,5.9099,5.9099,5.9099,5.9099,5.9099,5.9099,5.9099,5.9099,5.9099,5.9099,5.9099,5.9099,5.9099,5.9099,5.9099,5.9099,5.9099,5.9099,5.9099,5.9099,5.9099,5.9099,5.9099,5.9099,5.9099,5.8752,5.8524,5.8189,5.7823,5.7181,5.6954,5.6735,5.6514,5.6403,5.6181,5.5705,5.531,5.4658,5.3497,5.2899,5.2315,5.1469,5.131,5.1081,5.0883,5.0734,5.0786,5.0812,5.1047,5.1178,5.1204,5.1204,5.11,5.0838,5.0734,5.076,5.076,5.0734,5.0707,5.0734,5.0487,4.9966,4.949,4.8683,4.8182,4.7807,4.7782,4.7883,4.7908,4.7958,4.7983,4.8033,4.7782,4.7531,4.733,4.7129,4.7054,4.6903,4.6878,4.6878,4.7004,4.723,4.7456,4.7631,4.7908,4.8109,4.8083,4.7958,4.7807,4.7832,4.8033,4.8184,4.8385,4.8786,4.9113,4.9238,4.9389,4.9386,6.278,6.2331,6.2869,6.2391,6.1493,6.1852,6.1403,6.0446,6.0296,5.9937,5.9368,5.9308,5.9249,5.9129,5.9099,5.9099,5.9099,5.9099,5.9099,5.9099,5.9099,5.9099,5.9099,5.9099,5.9099,5.9099,5.9099,5.9099,5.9099,5.9099,5.9099,5.9099,5.9099,5.9099,5.9099,5.9099,5.9099,5.9099,5.9099,5.9099,5.9099,5.9099,5.8991,5.8694,5.8664,5.8305,5.7745,5.7494,5.7382,5.7158,5.7104,5.6907,5.6509,5.6077,5.5162,5.3772,5.3204,5.2661,5.2098,5.1896,5.1811,5.1485,5.1544,5.157,5.1544,5.1465,5.157,5.1596,5.157,5.1544,5.1439,5.1544,5.1544,5.1518,5.1492,5.157,5.1465,5.1164,5.0861,5.0227,4.949,4.8962,4.8586,4.851,4.8636,4.8636,4.8686,4.8636,4.8636,4.8309,4.8058,4.7883,4.7757,4.7732,4.7657,4.7581,4.7556,4.7531,4.7807,4.8058,4.8159,4.8284,4.8485,4.8736,4.8661,4.851,4.8485,4.851,4.8761,4.9038,4.9364,4.9515,4.9464,4.949,4.9565,6.3019,6.2959,6.3049,6.266,6.2061,6.2091,6.1702,6.1044,6.0984,6.0595,5.9997,5.9937,5.9668,5.9249,5.9129,5.9099,5.9099,5.9099,5.9099,5.9099,5.9099,5.9099,5.9099,5.9099,5.9099,5.9099,5.9099,5.9099,5.9099,5.9099,5.9099,5.9099,5.9099,5.9099,5.9099,5.9099,5.9099,5.9099,5.9099,5.9099,5.9099,5.9099,5.8912,5.8664,5.8445,5.8114,5.7781,5.7557,5.7303,5.7303,5.7078,5.6737,5.6394,5.5817,5.5261,5.4623,5.4002,5.3522,5.2673,5.2402,5.2156,5.1695,5.1596,5.1596,5.1596,5.1596,5.1596,5.1596,5.1596,5.1596,5.1596,5.1596,5.1596,5.1596,5.1596,5.1596,5.1596,5.1471,5.122,5.0968,5.0076,4.9825,4.9391,4.9467,4.9414,4.9414,4.9389,4.9289,4.9188,4.8837,4.8611,4.846,4.8385,4.8385,4.841,4.8335,4.8284,4.8184,4.8385,4.8661,4.8711,4.8837,4.9138,4.9314,4.9213,4.9138,4.9113,4.9188,4.9414,4.949,4.954,4.9565,4.959,4.959,4.959,6.3079,6.3079,6.3079,6.2929,6.266,6.266,6.2271,6.1762,6.1672,6.1283,6.0745,6.0655,6.0296,5.9727,5.9308,5.9099,5.9099,5.9129,5.9099,5.9129,5.9129,5.9099,5.9099,5.9099,5.9099,5.9099,5.9099,5.9099,5.9099,5.9099,5.9099,5.9099,5.9099,5.9099,5.9099,5.9099,5.9099,5.9099,5.9099,5.9099,5.9099,5.8991,5.8773,5.8445,5.8114,5.7892,5.7557,5.7445,5.7303,5.7303,5.7107,5.6737,5.6279,5.5701,5.5026,5.4699,5.4074,5.3443,5.2711,5.2588,5.2218,5.1846,5.1596,5.1596,5.1596,5.1596,5.1596,5.1596,5.1596,5.1596,5.1596,5.1596,5.1596,5.1596,5.1596,5.1596,5.1596,5.1596,5.1471,5.1094,5.0842,5.0359,4.9976,4.9694,4.9668,4.9515,4.949,4.9464,4.9439,4.9339,4.9163,4.9063,4.9012,4.9012,4.9063,4.9063,4.9038,4.8987,4.8987,4.9213,4.9264,4.9439,4.9565,4.959,4.9464,4.9464,4.959,4.959,4.954,4.9565,4.959,4.959,4.959,4.959,4.959,6.3079,6.3079,6.3079,6.3079,6.3079,6.3079,6.278,6.2361,6.2331,6.1972,6.1433,6.1194,6.0775,6.0356,5.9907,5.9757,5.9668,5.9428,5.9368,5.9338,5.9189,5.9099,5.9099,5.9099,5.9099,5.9129,5.9099,5.9099,5.9099,5.9099,5.9099,5.9099,5.9099,5.9099,5.9099,5.9099,5.9099,5.9099,5.9099,5.9099,5.9099,5.8773,5.8555,5.8225,5.7892,5.7669,5.7303,5.7303,5.7303,5.7191,5.6993,5.6652,5.6279,5.5496,5.4936,5.4488,5.3981,5.3349,5.2834,5.2588,5.2218,5.1846,5.1596,5.1596,5.1596,5.1596,5.1596,5.1596,5.1596,5.1596,5.1596,5.1596,5.1596,5.1596,5.1596,5.1596,5.1596,5.1596,5.1596,5.1346,5.0968,5.0741,5.0232,4.9976,4.9719,4.959,4.959,4.959,4.959,4.959,4.9515,4.9339,4.9339,4.9339,4.9389,4.949,4.9565,4.959,4.959,4.959,4.9515,4.9515,4.959,4.959,4.959,4.959,4.959,4.959,4.959,4.959,4.959,4.959,4.959,4.959,4.959,6.3079,6.3079,6.3079,6.3079,6.3079,6.3079,6.3049,6.2929,6.2959,6.26,6.2002,6.1463,6.1164,6.0984,6.0864,6.0775,6.0864,6.0296,6.0086,5.9817,5.9488,5.9368,5.9368,5.9398,5.9279,5.9279,5.9398,5.9368,5.9159,5.9308,5.9219,5.9099,5.9159,5.9129,5.9099,5.9099,5.9099,5.9099,5.9099,5.9099,5.8991,5.8773,5.8555,5.8195,5.7863,5.7669,5.7303,5.7303,5.7303,5.7303,5.6737,5.6537,5.6193,5.5379,5.4817,5.446,5.4101,5.3349,5.2861,5.2588,5.2218,5.1846,5.1596,5.1596,5.1596,5.1596,5.1596,5.1596,5.1596,5.1596,5.1596,5.1596,5.1596,5.1596,5.1596,5.1596,5.1596,5.1596,5.1596,5.1471,5.122,5.0867,5.0487,5.0104,4.9847,4.959,4.959,4.959,4.959,4.959,4.959,4.954,4.954,4.954,4.954,4.959,4.959,4.959,4.959,4.959,4.959,4.959,4.959,4.959,4.959,4.959,4.959,4.959,4.959,4.959,4.959,4.959,4.959,4.959,4.959,6.3079,6.3079,6.3079,6.3079,6.3079,6.3079,6.3079,6.3079,6.3079,6.2959,6.263,6.2032,6.1732,6.1642,6.1253,6.1104,6.1074,6.0864,6.0745,6.0655,6.0446,6.0356,6.0356,6.0266,6.0356,6.0296,6.0296,6.0356,6.0386,5.9907,5.9727,5.9638,5.9368,5.9159,5.9099,5.9099,5.9099,5.9099,5.9099,5.9099,5.9021,5.8773,5.8555,5.8195,5.7892,5.764,5.7303,5.7303,5.7303,5.7191,5.6737,5.6509,5.6279,5.5379,5.4817,5.458,5.4101,5.3592,5.2983,5.2738,5.2342,5.1721,5.1596,5.1596,5.1596,5.1596,5.1596,5.1596,5.1596,5.1596,5.1596,5.1596,5.1596,5.1596,5.1596,5.1596,5.1596,5.1596,5.1596,5.1596,5.122,5.0994,5.0614,5.0232,4.9976,4.9719,4.959,4.959,4.959,4.959,4.959,4.959,4.959,4.959,4.959,4.959,4.959,4.959,4.959,4.959,4.959,4.959,4.959,4.959,4.959,4.959,4.959,4.959,4.959,4.959,4.959,4.959,4.959,4.959,4.9665,6.3079,6.3079,6.3079,6.3079,6.3079,6.3079,6.3079,6.3079,6.3079,6.3079,6.3049,6.257,6.2391,6.2241,6.2002,6.1762,6.1762,6.1553,6.1433,6.1283,6.1164,6.1164,6.1104,6.1044,6.0924,6.1104,6.1104,6.1044,6.0954,6.0595,6.0446,6.0206,5.9757,5.9428,5.9099,5.9099,5.9099,5.9099,5.9099,5.9099,5.9129,5.8773,5.8555,5.8195,5.8003,5.764,5.7416,5.7303,5.7303,5.7191,5.6851,5.6509,5.6164,5.5729,5.5026,5.458,5.4221,5.3833,5.3227,5.2615,5.2218,5.1721,5.1596,5.1596,5.1596,5.1596,5.1596,5.1596,5.1596,5.1596,5.1596,5.1596,5.1596,5.1596,5.1596,5.1596,5.1596,5.1596,5.1596,5.1596,5.1346,5.112,5.0741,5.0359,4.9976,4.9719,4.959,4.959,4.959,4.959,4.959,4.959,4.959,4.959,4.959,4.959,4.959,4.959,4.959,4.959,4.959,4.959,4.959,4.959,4.959,4.959,4.959,4.9615,4.959,4.959,4.959,4.959,4.959,4.9615,4.9791,6.3079,6.3079,6.3079,6.3079,6.3079,6.3079,6.3079,6.3079,6.3079,6.3079,6.3079,6.2959,6.2959,6.2929,6.275,6.272,6.263,6.2271,6.2061,6.1972,6.1702,6.1313,6.1283,6.1373,6.1523,6.1194,6.1343,6.1463,6.1313,6.1164,6.1104,6.0835,6.0326,5.9638,5.9159,5.9099,5.9099,5.9099,5.9099,5.9099,5.9099,5.8882,5.8555,5.8335,5.8003,5.7751,5.7416,5.7303,5.7303,5.7191,5.6993,5.6766,5.6423,5.5845,5.5289,5.4699,5.4341,5.3833,5.3132,5.2492,5.2121,5.1721,5.1721,5.1596,5.1596,5.1596,5.1596,5.1596,5.1596,5.1596,5.1596,5.1596,5.1596,5.1596,5.1596,5.1596,5.1596,5.1596,5.1596,5.1596,5.1596,5.1497,5.0994,5.0487,5.0104,4.9719,4.959,4.959,4.959,4.959,4.959,4.959,4.959,4.959,4.959,4.959,4.959,4.959,4.959,4.959,4.959,4.959,4.959,4.9615,4.959,4.959,4.9615,4.9615,4.9741,4.9841,4.964,4.959,4.959,4.9741,4.9992,6.3079,6.3079,6.3079,6.3079,6.3079,6.3079,6.3079,6.3079,6.3079,6.3079,6.3079,6.3079,6.3079,6.3079,6.3079,6.3079,6.3019,6.2989,6.275,6.269,6.2391,6.248,6.2361,6.2271,6.2331,6.2421,6.2391,6.2301,6.245,6.2002,6.1792,6.1553,6.0685,5.9787,5.9279,5.9099,5.9099,5.9099,5.9099,5.9099,5.9099,5.8991,5.8773,5.8555,5.8225,5.7892,5.764,5.7416,5.7303,5.7303,5.7078,5.688,5.6652,5.6193,5.5641,5.5172,5.4699,5.3981,5.3376,5.2861,5.2492,5.2121,5.1721,5.1596,5.1596,5.1596,5.1596,5.1675,5.1753,5.1727,5.1596,5.1622,5.1622,5.1596,5.1596,5.1596,5.1596,5.1596,5.1596,5.1596,5.1596,5.1372,5.112,5.0741,5.0232,4.9847,4.9719,4.959,4.959,4.959,4.959,4.959,4.959,4.959,4.959,4.959,4.959,4.959,4.959,4.959,4.959,4.959,4.9665,4.969,4.964,4.9615,4.9816,5.0017,5.0092,5.0117,5.0017,5.0017,5.0142,5.0268,5.0419,6.3079,6.3079,6.3079,6.3079,6.3079,6.3079,6.3079,6.3079,6.3079,6.3079,6.3079,6.3079,6.3079,6.3079,6.3079,6.3079,6.3079,6.3079,6.3079,6.3079,6.3049,6.2959,6.2989,6.3079,6.2899,6.3079,6.3079,6.3019,6.2929,6.263,6.2301,6.1822,6.0984,6.0236,5.9638,5.9308,5.9099,5.9099,5.9099,5.9099,5.9099,5.9099,5.8991,5.8664,5.8445,5.8225,5.7892,5.764,5.7416,5.7303,5.7191,5.6993,5.6766,5.6537,5.6077,5.5524,5.4817,5.4101,5.3592,5.3132,5.2738,5.2368,5.1996,5.1721,5.1675,5.1831,5.1936,5.1988,5.2067,5.2171,5.2197,5.2145,5.2119,5.2145,5.2145,5.2171,5.2171,5.2197,5.1988,5.1936,5.1701,5.1424,5.1172,5.0867,5.0487,5.0232,4.9847,4.9719,4.959,4.959,4.959,4.959,4.959,4.959,4.959,4.959,4.959,4.959,4.959,4.9615,4.959,4.9615,4.969,4.9841,4.9941,5.0067,5.0293,5.0444,5.0645,5.067,5.0544,5.0594,5.0695,5.082,5.0921,6.3079,6.3079,6.3079,6.3079,6.3079,6.3079,6.3079,6.3079,6.3079,6.3079,6.3079,6.3079,6.3079,6.3079,6.3079,6.3079,6.3079,6.3079,6.3079,6.3079,6.3079,6.3079,6.3079,6.3079,6.3079,6.3079,6.3079,6.3079,6.3049,6.2929,6.263,6.2091,6.1463,6.0685,6.0027,5.9548,5.9249,5.9159,5.9099,5.9099,5.9099,5.9099,5.8991,5.8773,5.8664,5.8335,5.8114,5.7781,5.764,5.7416,5.7303,5.7078,5.6993,5.688,5.6308,5.5613,5.4671,5.4314,5.3954,5.347,5.324,5.2775,5.2501,5.2049,5.1957,5.2223,5.2459,5.2642,5.2772,5.306,5.3217,5.3191,5.3138,5.3138,5.3164,5.3138,5.3086,5.2929,5.2642,5.238,5.1988,5.1732,5.1454,5.1149,5.0869,5.0487,5.0232,5.0001,4.9847,4.959,4.959,4.959,4.959,4.959,4.959,4.959,4.959,4.959,4.9615,4.9615,4.9615,4.9791,5.0042,5.0268,5.0393,5.0544,5.072,5.0971,5.1247,5.1247,5.1247,5.1247,5.1373,5.1322,5.1448,6.3079,6.3079,6.3079,6.3079,6.3079,6.3079,6.3079,6.3079,6.3079,6.3079,6.3079,6.3079,6.3079,6.3079,6.3079,6.3079,6.3079,6.3079,6.3079,6.3079,6.3079,6.3079,6.3079,6.3079,6.3079,6.3079,6.3079,6.3079,6.3079,6.3079,6.275,6.2121,6.1852,6.1134,6.0416,5.9907,5.9518,5.9189,5.9129,5.9099,5.9099,5.9099,5.8991,5.8991,5.8773,5.8555,5.8335,5.8003,5.7781,5.7669,5.7416,5.7191,5.7191,5.6993,5.6537,5.5613,5.5144,5.4908,5.4194,5.3954,5.3754,5.3493,5.3254,5.2754,5.266,5.2746,5.3112,5.3243,5.3426,5.3635,5.3713,5.3687,5.3687,5.3713,5.3713,5.3687,5.3635,5.3452,5.3138,5.2877,5.2459,5.2302,5.197,5.1635,5.1304,5.097,5.0665,5.0487,5.0052,4.9923,4.959,4.959,4.959,4.959,4.959,4.959,4.959,4.959,4.969,4.9866,5.0117,5.0318,5.0519,5.077,5.1046,5.1122,5.1147,5.1473,5.185,5.2026,5.2051,5.2051,5.2026,5.195,5.1975,6.3079,6.3079,6.3079,6.3079,6.3079,6.3079,6.3079,6.3079,6.3079,6.3079,6.3079,6.3079,6.3079,6.3079,6.3079,6.3079,6.3079,6.3079,6.3079,6.3079,6.3079,6.3079,6.3079,6.3079,6.3079,6.3079,6.3079,6.3079,6.3079,6.3049,6.281,6.254,6.2301,6.1463,6.0745,6.0176,5.9697,5.9338,5.9099,5.9099,5.9099,5.9099,5.9099,5.9099,5.8882,5.8773,5.8694,5.8225,5.8114,5.7892,5.7557,5.7416,5.739,5.7166,5.7139,5.6475,5.6007,5.5653,5.5206,5.4605,5.4433,5.4267,5.4298,5.406,5.3655,5.366,5.3661,5.3766,5.3975,5.4131,5.4105,5.4079,5.4105,5.4105,5.4105,5.4105,5.4001,5.387,5.3635,5.3373,5.3138,5.2929,5.2592,5.2178,5.1946,5.182,5.1743,5.1614,5.0971,5.0383,4.9845,4.959,4.959,4.959,4.964,4.9895,4.9841,4.9916,5.0017,5.0243,5.0569,5.087,5.1071,5.1423,5.18,5.185,5.1875,5.2151,5.2452,5.2578,5.2603,5.2528,5.2477,5.2477,5.2578,6.3079,6.3079,6.3079,6.3079,6.3079,6.3079,6.3079,6.3079,6.3079,6.3079,6.3079,6.3079,6.3079,6.3079,6.3079,6.3079,6.3079,6.3079,6.3079,6.3079,6.3079,6.3079,6.3079,6.3079,6.3079,6.3079,6.3079,6.3079,6.3079,6.3049,6.3049,6.3019,6.254,6.1882,6.1253,6.0775,6.0236,5.9518,5.9338,5.9308,5.9159,5.9099,5.9099,5.9099,5.9099,5.8991,5.8803,5.8584,5.8445,5.8114,5.7781,5.764,5.7477,5.7482,5.7513,5.734,5.6617,5.6378,5.5961,5.5539,5.5182,5.5127,5.5375,5.5243,5.5017,5.4576,5.4525,5.4341,5.4497,5.4602,5.4628,5.4602,5.4628,5.4628,5.4628,5.4628,5.4576,5.4419,5.4236,5.3949,5.3687,5.3504,5.3373,5.2983,5.2568,5.2725,5.2647,5.2466,5.2025,5.1124,5.0687,5.0201,5.0276,5.0507,5.0352,5.0453,5.0348,5.0424,5.055,5.077,5.1197,5.1448,5.1624,5.1975,5.2352,5.2578,5.2729,5.2779,5.2754,5.2804,5.2829,5.2879,5.2879,5.2829,5.2854,6.3079,6.3079,6.3079,6.3079,6.3079,6.3079,6.3079,6.3079,6.3079,6.3079,6.3079,6.3079,6.3079,6.3079,6.3079,6.3079,6.3079,6.3079,6.3079,6.3079,6.3079,6.3079,6.3079,6.3079,6.3079,6.3079,6.3079,6.3079,6.3079,6.3079,6.3079,6.3079,6.278,6.2421,6.1822,6.1403,6.0924,5.9937,5.9847,5.9578,5.9249,5.9129,5.9099,5.9099,5.9099,5.9099,5.8912,5.8803,5.8664,5.8445,5.8003,5.7669,5.7332,5.7393,5.7338,5.711,5.7025,5.679,5.6632,5.6353,5.6027,5.6045,5.6296,5.6266,5.6019,5.5603,5.5261,5.5049,5.4968,5.5046,5.5099,5.5099,5.5099,5.5099,5.5099,5.5099,5.5099,5.4942,5.4759,5.4524,5.421,5.4079,5.3949,5.3766,5.3478,5.3244,5.3218,5.3088,5.288,5.2361,5.2282,5.1841,5.1739,5.1634,5.1376,5.1195,5.122,5.1241,5.1286,5.1531,5.1825,5.2186,5.2387,5.2528,5.2829,5.2904,5.2929,5.2904,5.2904,5.2929,5.2929,5.2929,5.2929,5.2879,5.2904,6.3079,6.3079,6.3079,6.3079,6.3079,6.3079,6.3079,6.3079,6.3079,6.3079,6.3079,6.3079,6.3079,6.3079,6.3079,6.3079,6.3079,6.3079,6.3079,6.3079,6.3079,6.3079,6.3079,6.3079,6.3079,6.3079,6.3079,6.3079,6.3079,6.3079,6.3079,6.3079,6.3019,6.278,6.2211,6.2032,6.1613,6.0595,6.0565,6.0176,5.9548,5.9338,5.9129,5.9099,5.9099,5.9099,5.9099,5.8882,5.8773,5.8664,5.8225,5.7892,5.7757,5.7907,5.7768,5.7598,5.7456,5.734,5.7302,5.7168,5.7052,5.7135,5.7267,5.7314,5.6753,5.6313,5.6025,5.5815,5.5419,5.5339,5.5365,5.5232,5.5099,5.5099,5.5099,5.5099,5.5099,5.502,5.4942,5.4863,5.468,5.4654,5.4576,5.455,5.4314,5.4314,5.4184,5.4079,5.3791,5.3477,5.3424,5.3372,5.2928,5.2513,5.1969,5.1995,5.1991,5.2037,5.2133,5.2488,5.2844,5.3037,5.3179,5.3179,5.3042,5.2929,5.2929,5.3067,5.2929,5.2929,5.2929,5.2929,5.2929,5.2929,5.2929,6.3079,6.3079,6.3079,6.3079,6.3079,6.3079,6.3079,6.3079,6.3079,6.3079,6.3079,6.3079,6.3079,6.3079,6.3079,6.3079,6.3079,6.3079,6.3079,6.3079,6.3079,6.3079,6.3079,6.3079,6.3079,6.3079,6.3079,6.3079,6.3079,6.3079,6.3079,6.3079,6.2959,6.281,6.2391,6.2181,6.1882,6.1403,6.1134,6.0835,6.0236,5.9578,5.9308,5.9189,5.9099,5.9099,5.9099,5.9099,5.8991,5.8773,5.8445,5.8114,5.798,5.8102,5.8052,5.8027,5.7858,5.8119,5.8287,5.8127,5.8099,5.8267,5.83,5.8043,5.756,5.7174,5.6915,5.6524,5.6,5.5604,5.5604,5.5498,5.5365,5.5232,5.5232,5.5099,5.5099,5.5099,5.5099,5.5099,5.5072,5.5046,5.5046,5.5046,5.5072,5.5072,5.5099,5.5099,5.4968,5.4548,5.4285,5.4207,5.3893,5.3292,5.2876,5.2796,5.3002,5.3048,5.3145,5.3561,5.3817,5.3674,5.3478,5.3478,5.3341,5.3204,5.3204,5.3341,5.3204,5.3067,5.3067,5.3067,5.2929,5.2929,5.2929,6.3079,6.3079,6.3079,6.3079,6.3079,6.3079,6.3079,6.3079,6.3079,6.3079,6.3079,6.3079,6.3079,6.3079,6.3079,6.3079,6.3079,6.3079,6.3079,6.3079,6.3079,6.3079,6.3079,6.3079,6.3079,6.3079,6.3079,6.3079,6.3079,6.3079,6.3079,6.3079,6.3079,6.3019,6.2959,6.275,6.251,6.2091,6.1822,6.1583,6.0954,6.0296,5.9608,5.9368,5.9099,5.9099,5.9099,5.9099,5.9099,5.8991,5.8773,5.8445,5.8283,5.8179,5.8102,5.8253,5.8087,5.8466,5.8694,5.8946,5.8952,5.9059,5.9052,5.8704,5.8325,5.8071,5.7688,5.7303,5.6785,5.6263,5.6,5.5868,5.5736,5.5736,5.5736,5.5498,5.5232,5.5232,5.5099,5.5099,5.5099,5.5072,5.5072,5.5072,5.5072,5.5099,5.5099,5.5099,5.5099,5.5099,5.5099,5.4809,5.4467,5.473,5.4626,5.3993,5.3989,5.4118,5.4035,5.4113,5.4164,5.3945,5.3861,5.3861,5.3861,5.3725,5.3725,5.3589,5.3614,5.3478,5.3478,5.3341,5.3067,5.2929,5.3067]},{"header":{"parameterUnit":"m.s-1","parameterCategory":1,"la1":31.0,"la2":29.5877,"lo1":-88.7671,"lo2":-86.6584,"dy":0.0162,"dx":0.0185,"nx":115,"ny":88,"refTime":"2025-04-04T18:00:00:Z","depth":0,"parameterNumber":3,"parameterNumberName":"V-component_of_WINDS"},"data":[0.0,0.0,0.0,0.0,0.0,0.0,0.0,0.0,0.0,0.0,0.0,0.0,0.0,0.0,0.0,0.0,0.0,0.0,0.0,0.0,0.0,0.0,0.0,0.0,0.0,0.0,0.0,0.0,0.0,0.0,0.0,0.0,0.0,0.0,0.0,0.0,0.0,0.0,0.0,0.0,0.0,0.0,0.0,0.0,0.0,0.0,0.0,0.0,0.0,0.0,0.0,0.0,0.0,0.0,0.0,0.0,0.0,0.0,0.0,0.0,0.0,0.0,0.0,0.0,0.0,0.0,0.0,0.0,0.0,0.0,0.0,0.0,0.0,0.0,0.0,0.0,0.0,0.0,0.0,0.0,0.0,0.0,0.0,0.0,0.0,0.0,0.0,0.0,0.0,0.0,0.0,0.0,0.0,0.0,0.0,0.0,0.0,0.0,0.0,0.0,0.0,0.0,0.0,0.0,0.0,0.0,0.0,0.0,0.0,0.0,0.0,0.0,0.0,0.0,0.0,0.0,0.0,0.0,0.0,0.0,0.0,0.0,0.0,0.0,0.0,0.0,0.0,0.0,0.0,0.0,0.0,0.0,0.0,0.0,0.0,0.0,0.0,0.0,0.0,0.0,0.0,0.0,0.0,0.0,0.0,0.0,0.0,0.0,0.0,0.0,0.0,0.0,0.0,0.0,0.0,0.0,0.0,0.0,0.0,0.0,0.0,0.0,0.0,0.0,0.0,0.0,0.0,0.0,0.0,0.0,0.0,0.0,0.0,0.0,0.0,0.0,0.0,0.0,0.0,0.0,0.0,0.0,0.0,0.0,0.0,0.0,0.0,0.0,0.0,0.0,0.0,0.0,0.0,0.0,0.0,0.0,0.0,0.0,0.0,0.0,0.0,0.0,0.0,0.0,0.0,0.0,0.0,0.0,0.0,0.0,0.0,0.0,0.0,0.0,0.0,0.0,0.0,0.0,0.0,0.0,0.0,0.0,0.0,0.0,0.0,0.0,0.0,0.0,0.0,0.0,0.0,0.0,0.0,0.0,0.0,0.0,0.0,0.0,0.0,0.0,0.0,0.0,0.0,0.0,0.0,0.0,0.0,0.0,0.0,0.0,0.0,0.0,0.0,0.0,0.0,0.0,0.0,0.0,0.0,0.0,0.0,0.0,0.0,0.0,0.0,0.0,0.0,0.0,0.0,0.0,0.0,0.0,0.0,0.0,0.0,0.0,0.0,0.0,0.0,0.0,0.0,0.0,0.0,0.0,0.0,0.0,0.0,0.0,0.0,0.0,0.0,0.0,0.0,0.0,0.0,0.0,0.0,0.0,0.0,0.0,0.0,0.0,0.0,0.0,0.0,0.0,0.0,0.0,0.0,0.0,0.0,0.0,0.0,0.0,0.0,0.0,0.0,0.0,0.0,0.0,0.0,0.0,0.0,0.0,0.0,0.0,0.0,0.0,0.0,0.0,0.0,0.0,0.0,0.0,0.0,0.0,0.0,0.0,0.0,0.0,0.0,0.0,0.0,0.0,0.0,0.0,0.0,0.0,0.0,0.0,0.0,0.0,0.0,0.0,0.0,0.0,0.0,0.0,0.0,0.0,0.0,0.0,0.0,0.0,0.0,0.0,0.0,0.0,0.0,0.0,0.0,0.0,0.0,0.0,0.0,0.0,0.0,0.0,0.0,0.0,0.0,0.0,0.0,0.0,0.0,0.0,0.0,0.0,0.0,0.0,0.0,0.0,0.0,0.0,0.0,0.0,0.0,0.0,0.0,0.0,0.0,0.0,0.0,0.0,0.0,0.0,0.0,0.0,0.0,0.0,0.0,0.0,0.0,0.0,0.0,0.0,0.0,0.0,0.0,0.0,0.0,0.0,0.0,0.0,0.0,0.0,0.0,0.0,0.0,0.0,0.0,0.0,0.0,0.0,0.0,0.0,0.0,0.0,0.0,0.0,0.0,0.0,0.0,0.0,0.0,0.0,0.0,0.0,0.0,0.0,0.0,0.0,0.0,0.0,0.0,0.0,0.0,0.0,0.0,0.0,0.0,0.0,0.0,0.0,0.0,0.0,0.0,0.0,0.0,0.0,0.0,0.0,0.0,0.0,0.0,0.0,0.0,0.0,0.0,0.0,0.0,0.0,0.0,0.0,0.0,0.0,0.0,0.0,0.0,0.0,0.0,0.0,0.0,0.0,0.0,0.0,0.0,0.0,0.0,0.0,0.0,0.0,0.0,0.0,0.0,0.0,0.0,0.0,0.0,0.0,0.0,0.0,0.0,0.0,0.0,0.0,0.0,0.0,0.0,0.0,0.0,0.0,0.0,0.0,0.0,0.0,0.0,0.0,0.0,0.0,0.0,0.0,0.0,0.0,0.0,0.0,0.0,0.0,0.0,0.0,0.0,0.0,0.0,0.0,0.0,0.0,0.0,0.0,0.0,0.0,0.0,0.0,0.0,0.0,0.0,0.0,0.0,0.0,0.0,0.0,0.0,0.0,0.0,0.0,0.0,0.0,0.0,0.0,0.0,0.0,0.0,0.0,0.0,0.0,0.0,0.0,0.0,0.0,0.0,0.0,0.0,0.0,0.0,0.0,0.0,0.0,0.0,0.0,0.0,0.0,0.0,0.0,0.0,0.0,0.0,0.0,0.0,0.0,0.0,0.0,0.0,0.0,0.0,0.0,0.0,0.0,0.0,0.0,0.0,0.0,0.0,0.0,0.0,0.0,0.0,0.0,0.0,0.0,0.0,0.0,0.0,0.0,0.0,0.0,0.0,0.0,0.0,0.0,0.0,0.0,0.0,0.0,0.0,0.0,0.0,0.0,0.0,0.0,0.0,0.0,0.0,0.0,0.0,0.0,0.0,0.0,0.0,0.0,0.0,0.0,0.0,0.0,0.0,0.0,0.0,0.0,0.0,0.0,0.0,0.0,0.0,0.0,0.0,0.0,0.0,0.0,0.0,0.0,0.0,0.0,0.0,0.0,0.0,0.0,0.0,0.0,0.0,0.0,0.0,0.0,0.0,0.0,0.0,0.0,0.0,0.0,0.0,0.0,0.0,0.0,0.0,0.0,0.0,0.0,0.0,0.0,0.0,0.0,0.0,0.0,0.0,0.0,0.0,0.0,0.0,0.0,0.0,0.0,0.0,0.0,0.0,0.0,0.0,0.0,0.0,0.0,0.0,0.0,0.0,0.0,0.0,0.0,0.0,0.0,0.0,0.0,0.0,0.0,0.0,0.0,0.0,0.0,0.0,0.0,0.0,0.0,0.0,0.0,0.0,0.0,0.0,0.0,0.0,0.0,0.0,0.0,0.0,0.0,0.0,0.0,0.0,0.0,0.0,0.0,0.0,0.0,0.0,0.0,0.0,0.0,0.0,0.0,0.0,0.0,0.0,0.0,0.0,0.0,0.0,0.0,0.0,0.0,0.0,0.0,0.0,0.0,0.0,0.0,0.0,0.0,0.0,0.0,0.0,0.0,0.0,0.0,0.0,0.0,0.0,0.0,0.0,0.0,0.0,0.0,0.0,0.0,0.0,0.0,0.0,0.0,0.0,0.0,0.0,0.0,0.0,0.0,0.0,0.0,0.0,0.0,0.0,0.0,0.0,0.0,0.0,0.0,0.0,0.0,0.0,0.0,0.0,0.0,0.0,0.0,0.0,0.0,0.0,0.0,0.0,0.0,0.0,0.0,0.0,0.0,0.0,0.0,0.0,0.0,0.0,0.0,0.0,0.0,0.0,0.0,0.0,0.0,0.0,0.0,0.0,0.0,0.0,0.0,0.0,0.0,0.0,0.0,0.0,0.0,0.0,0.0,0.0,0.0,0.0,0.0,0.0,0.0,0.0,0.0,0.0,0.0,0.0,0.0,0.0,0.0,0.0,0.0,0.0,0.0,0.0,0.0,0.0,0.0,0.0,0.0,0.0,0.0,0.0,0.0,0.0,0.0,0.0,0.0,0.0,0.0,0.0,0.0,0.0,0.0,0.0,0.0,0.0,0.0,0.0,0.0,0.0,0.0,0.0,0.0,0.0,0.0,0.0,0.0,0.0,0.0,0.0,0.0,0.0,0.0,0.0,0.0,0.0,0.0,0.0,0.0,0.0,0.0,0.0,0.0,0.0,0.0,0.0,0.0,0.0,0.0,0.0,0.0,0.0,0.0,0.0,0.0,0.0,0.0,0.0,0.0,0.0,0.0,0.0,0.0,0.0,0.0,0.0,0.0,0.0,0.0,0.0,0.0,0.0,0.0,0.0,0.0,0.0,0.0,0.0,0.0,0.0,0.0,-2.5792,0.0,0.0,0.0,0.0,0.0,0.0,0.0,0.0,0.0,0.0,0.0,0.0,0.0,0.0,0.0,0.0,0.0,0.0,0.0,0.0,0.0,0.0,0.0,0.0,0.0,0.0,0.0,0.0,0.0,0.0,0.0,0.0,0.0,0.0,0.0,0.0,0.0,0.0,0.0,0.0,0.0,0.0,0.0,0.0,0.0,0.0,0.0,0.0,0.0,0.0,0.0,0.0,0.0,0.0,0.0,0.0,0.0,0.0,0.0,0.0,0.0,0.0,0.0,0.0,0.0,0.0,0.0,0.0,0.0,0.0,0.0,0.0,0.0,0.0,0.0,0.0,0.0,0.0,0.0,0.0,0.0,0.0,0.0,0.0,0.0,0.0,0.0,0.0,0.0,0.0,0.0,0.0,0.0,0.0,0.0,0.0,0.0,0.0,0.0,0.0,0.0,0.0,0.0,0.0,0.0,0.0,0.0,0.0,0.0,0.0,-2.7262,-2.7262,-2.6806,-2.6351,-2.5875,0.0,0.0,0.0,0.0,0.0,0.0,0.0,0.0,0.0,0.0,0.0,0.0,0.0,0.0,0.0,0.0,0.0,0.0,0.0,0.0,0.0,0.0,0.0,0.0,0.0,0.0,0.0,0.0,0.0,0.0,0.0,0.0,0.0,0.0,0.0,0.0,0.0,0.0,0.0,0.0,0.0,0.0,0.0,0.0,0.0,0.0,0.0,0.0,0.0,0.0,0.0,0.0,0.0,0.0,0.0,0.0,0.0,0.0,0.0,0.0,0.0,0.0,0.0,0.0,0.0,0.0,0.0,0.0,0.0,0.0,0.0,0.0,0.0,0.0,0.0,0.0,0.0,0.0,0.0,0.0,0.0,0.0,0.0,0.0,0.0,0.0,0.0,0.0,0.0,0.0,0.0,0.0,0.0,0.0,0.0,0.0,0.0,0.0,0.0,0.0,0.0,0.0,0.0,0.0,0.0,0.0,0.0,0.0,0.0,0.0,0.0,0.0,-2.7004,-2.6443,-2.5564,0.0,0.0,0.0,0.0,0.0,0.0,0.0,0.0,0.0,0.0,0.0,0.0,0.0,0.0,0.0,0.0,0.0,0.0,0.0,0.0,0.0,0.0,0.0,0.0,0.0,0.0,0.0,0.0,0.0,0.0,0.0,0.0,0.0,0.0,0.0,0.0,0.0,0.0,0.0,0.0,0.0,0.0,0.0,0.0,0.0,0.0,0.0,0.0,0.0,0.0,0.0,0.0,0.0,0.0,0.0,0.0,0.0,0.0,0.0,0.0,0.0,0.0,0.0,0.0,0.0,0.0,0.0,0.0,0.0,0.0,0.0,0.0,0.0,0.0,0.0,0.0,0.0,0.0,0.0,0.0,0.0,0.0,0.0,0.0,0.0,0.0,0.0,0.0,0.0,0.0,0.0,0.0,0.0,0.0,0.0,0.0,0.0,0.0,0.0,0.0,0.0,0.0,0.0,0.0,0.0,0.0,0.0,0.0,0.0,0.0,-2.7809,-2.7526,-2.7484,0.0,-2.4757,0.0,0.0,0.0,0.0,0.0,0.0,0.0,0.0,0.0,0.0,0.0,0.0,0.0,0.0,0.0,0.0,0.0,0.0,0.0,0.0,0.0,0.0,0.0,0.0,0.0,0.0,0.0,0.0,0.0,0.0,0.0,0.0,0.0,0.0,0.0,0.0,0.0,0.0,0.0,0.0,0.0,0.0,0.0,0.0,0.0,0.0,0.0,0.0,0.0,0.0,0.0,0.0,0.0,0.0,0.0,0.0,0.0,0.0,0.0,0.0,0.0,0.0,0.0,0.0,0.0,0.0,0.0,0.0,0.0,0.0,0.0,0.0,0.0,0.0,0.0,0.0,0.0,0.0,0.0,0.0,0.0,0.0,0.0,0.0,0.0,0.0,0.0,0.0,0.0,0.0,0.0,0.0,0.0,0.0,0.0,0.0,0.0,0.0,0.0,0.0,0.0,0.0,0.0,0.0,0.0,0.0,0.0,0.0,0.0,0.0,-2.7904,-2.762,-2.691,-2.6173,0.0,0.0,0.0,0.0,0.0,0.0,0.0,0.0,0.0,0.0,0.0,0.0,0.0,0.0,0.0,0.0,0.0,0.0,0.0,0.0,0.0,0.0,0.0,0.0,0.0,0.0,0.0,0.0,0.0,0.0,0.0,0.0,0.0,0.0,0.0,0.0,0.0,0.0,0.0,0.0,0.0,0.0,0.0,0.0,0.0,0.0,0.0,0.0,0.0,0.0,0.0,0.0,0.0,0.0,0.0,0.0,0.0,0.0,0.0,0.0,0.0,0.0,0.0,0.0,0.0,0.0,0.0,0.0,0.0,0.0,0.0,0.0,0.0,0.0,0.0,0.0,0.0,0.0,0.0,0.0,0.0,0.0,0.0,0.0,0.0,0.0,0.0,0.0,0.0,0.0,0.0,0.0,0.0,0.0,0.0,0.0,0.0,0.0,0.0,0.0,0.0,0.0,0.0,0.0,0.0,0.0,0.0,0.0,0.0,0.0,-2.8092,-2.8186,-2.7861,-2.6718,-2.5951,-2.5612,0.0,0.0,0.0,0.0,0.0,0.0,0.0,0.0,0.0,0.0,0.0,0.0,0.0,0.0,0.0,0.0,0.0,0.0,0.0,0.0,0.0,0.0,0.0,0.0,0.0,0.0,0.0,0.0,0.0,0.0,0.0,0.0,0.0,0.0,0.0,0.0,0.0,0.0,0.0,0.0,0.0,0.0,0.0,0.0,0.0,0.0,0.0,0.0,0.0,0.0,0.0,0.0,0.0,0.0,0.0,0.0,0.0,0.0,0.0,0.0,0.0,0.0,0.0,0.0,0.0,0.0,0.0,0.0,0.0,0.0,0.0,0.0,0.0,0.0,0.0,0.0,0.0,0.0,0.0,0.0,0.0,0.0,0.0,0.0,0.0,0.0,0.0,0.0,0.0,0.0,0.0,0.0,0.0,0.0,0.0,0.0,0.0,0.0,0.0,0.0,0.0,0.0,0.0,0.0,0.0,0.0,0.0,0.0,0.0,-2.8861,-2.8932,-2.8746,-2.7377,-2.6013,0.0,0.0,0.0,0.0,0.0,0.0,0.0,0.0,0.0,0.0,0.0,0.0,0.0,0.0,0.0,0.0,0.0,0.0,0.0,0.0,0.0,0.0,0.0,0.0,0.0,0.0,0.0,0.0,0.0,0.0,0.0,0.0,0.0,0.0,0.0,0.0,0.0,0.0,0.0,0.0,0.0,0.0,0.0,0.0,0.0,0.0,0.0,0.0,0.0,0.0,0.0,0.0,0.0,0.0,0.0,0.0,0.0,0.0,0.0,0.0,0.0,0.0,0.0,0.0,0.0,0.0,0.0,0.0,0.0,0.0,0.0,0.0,0.0,0.0,0.0,0.0,0.0,0.0,0.0,0.0,0.0,0.0,0.0,0.0,0.0,0.0,0.0,0.0,0.0,0.0,0.0,0.0,0.0,0.0,0.0,0.0,0.0,0.0,0.0,0.0,0.0,0.0,0.0,0.0,0.0,0.0,0.0,0.0,0.0,-2.8653,-2.8932,-2.9024,-2.891,-2.7648,-2.6494,0.0,0.0,0.0,0.0,0.0,0.0,0.0,0.0,0.0,0.0,0.0,0.0,0.0,0.0,0.0,0.0,0.0,0.0,0.0,0.0,0.0,0.0,0.0,0.0,0.0,0.0,0.0,0.0,0.0,0.0,0.0,0.0,0.0,0.0,0.0,0.0,0.0,0.0,0.0,0.0,0.0,0.0,0.0,0.0,0.0,0.0,0.0,0.0,0.0,0.0,0.0,0.0,0.0,0.0,0.0,0.0,0.0,0.0,0.0,0.0,0.0,0.0,0.0,0.0,0.0,0.0,0.0,0.0,0.0,0.0,0.0,0.0,0.0,0.0,0.0,0.0,0.0,0.0,0.0,0.0,0.0,0.0,0.0,0.0,0.0,0.0,0.0,0.0,0.0,0.0,0.0,0.0,0.0,0.0,0.0,0.0,0.0,0.0,0.0,0.0,0.0,0.0,0.0,0.0,0.0,0.0,0.0,0.0,0.0,-2.9209,0.0,-2.9577,0.0,-2.8165,-2.7195,0.0,0.0,0.0,0.0,0.0,0.0,0.0,0.0,0.0,0.0,0.0,0.0,0.0,0.0,0.0,0.0,0.0,0.0,0.0,0.0,0.0,0.0,0.0,0.0,0.0,0.0,0.0,0.0,0.0,0.0,0.0,0.0,0.0,0.0,0.0,0.0,0.0,0.0,0.0,0.0,0.0,0.0,0.0,0.0,0.0,0.0,0.0,0.0,0.0,0.0,0.0,0.0,0.0,0.0,0.0,0.0,0.0,0.0,0.0,0.0,0.0,0.0,0.0,0.0,0.0,0.0,0.0,0.0,0.0,0.0,0.0,0.0,0.0,0.0,0.0,0.0,0.0,0.0,0.0,0.0,0.0,0.0,0.0,0.0,0.0,0.0,0.0,0.0,0.0,0.0,0.0,0.0,0.0,0.0,0.0,0.0,0.0,0.0,0.0,0.0,0.0,0.0,0.0,0.0,0.0,0.0,0.0,0.0,-2.9508,-3.0125,-3.051,-3.051,-3.0193,-2.9098,-2.8,0.0,0.0,0.0,0.0,0.0,0.0,0.0,0.0,0.0,0.0,0.0,0.0,0.0,0.0,0.0,0.0,0.0,0.0,0.0,0.0,0.0,0.0,0.0,0.0,0.0,0.0,0.0,0.0,0.0,0.0,0.0,0.0,0.0,0.0,0.0,0.0,0.0,0.0,0.0,0.0,0.0,0.0,0.0,0.0,0.0,0.0,0.0,0.0,0.0,0.0,0.0,0.0,0.0,0.0,0.0,0.0,0.0,0.0,0.0,0.0,0.0,0.0,0.0,0.0,0.0,0.0,0.0,0.0,0.0,0.0,0.0,0.0,0.0,0.0,0.0,0.0,0.0,0.0,0.0,0.0,0.0,0.0,0.0,0.0,0.0,0.0,0.0,0.0,0.0,0.0,0.0,0.0,0.0,0.0,0.0,0.0,0.0,0.0,0.0,0.0,0.0,0.0,0.0,0.0,0.0,0.0,0.0,0.0,0.0,-3.051,-3.1199,-3.1404,-3.0937,-3.0127,-2.9207,0.0,0.0,0.0,0.0,0.0,0.0,0.0,0.0,0.0,0.0,0.0,0.0,0.0,0.0,0.0,0.0,0.0,0.0,0.0,0.0,0.0,0.0,0.0,0.0,0.0,0.0,0.0,0.0,0.0,0.0,0.0,0.0,0.0,0.0,0.0,0.0,0.0,0.0,0.0,0.0,0.0,0.0,0.0,0.0,0.0,0.0,0.0,0.0,0.0,0.0,0.0,0.0,0.0,0.0,0.0,0.0,0.0,0.0,0.0,0.0,0.0,0.0,0.0,0.0,0.0,0.0,0.0,0.0,0.0,0.0,0.0,0.0,0.0,0.0,0.0,0.0,0.0,0.0,0.0,0.0,0.0,0.0,0.0,0.0,0.0,0.0,0.0,0.0,0.0,0.0,0.0,0.0,0.0,0.0,0.0,0.0,0.0,0.0,0.0,0.0,0.0,0.0,0.0,0.0,0.0,0.0,0.0,0.0,0.0,-3.1639,-3.2504,-3.2783,-3.2357,-3.1574,-3.0541,-2.9329,0.0,0.0,0.0,0.0,0.0,0.0,0.0,0.0,0.0,0.0,0.0,0.0,0.0,0.0,0.0,0.0,0.0,0.0,0.0,0.0,0.0,0.0,0.0,0.0,0.0,0.0,0.0,0.0,0.0,0.0,0.0,0.0,0.0,0.0,0.0,0.0,0.0,0.0,0.0,0.0,0.0,0.0,0.0,0.0,0.0,0.0,0.0,0.0,0.0,0.0,0.0,0.0,0.0,0.0,0.0,0.0,0.0,0.0,0.0,0.0,0.0,0.0,0.0,0.0,0.0,0.0,0.0,0.0,0.0,0.0,0.0,0.0,0.0,0.0,0.0,0.0,0.0,0.0,0.0,0.0,0.0,0.0,0.0,0.0,0.0,0.0,0.0,0.0,0.0,0.0,0.0,0.0,0.0,0.0,0.0,0.0,0.0,0.0,0.0,0.0,0.0,0.0,0.0,0.0,0.0,0.0,0.0,0.0,-3.338,-3.4098,-3.4411,-3.4076,-3.3112,-3.2099,0.0,0.0,0.0,0.0,0.0,0.0,0.0,0.0,0.0,0.0,0.0,0.0,0.0,0.0,0.0,0.0,0.0,0.0,0.0,0.0,0.0,0.0,0.0,0.0,0.0,0.0,0.0,0.0,0.0,0.0,0.0,0.0,0.0,0.0,0.0,0.0,0.0,0.0,0.0,0.0,0.0,0.0,0.0,0.0,0.0,0.0,0.0,0.0,0.0,0.0,0.0,0.0,0.0,0.0,0.0,0.0,0.0,0.0,0.0,0.0,0.0,0.0,0.0,0.0,0.0,0.0,0.0,0.0,0.0,0.0,0.0,0.0,0.0,0.0,0.0,0.0,0.0,0.0,0.0,0.0,0.0,0.0,0.0,0.0,0.0,0.0,0.0,0.0,0.0,0.0,0.0,0.0,0.0,0.0,0.0,0.0,0.0,0.0,0.0,0.0,0.0,0.0,0.0,0.0,0.0,0.0,0.0,0.0,0.0,-3.526,-3.5818,-3.5624,-3.4387,-3.3869,-3.3186,0.0,0.0,0.0,0.0,0.0,0.0,0.0,0.0,0.0,0.0,0.0,0.0,0.0,0.0,0.0,0.0,0.0,0.0,0.0,0.0,0.0,0.0,0.0,0.0,0.0,0.0,0.0,0.0,0.0,0.0,0.0,0.0,0.0,0.0,0.0,0.0,0.0,0.0,0.0,0.0,0.0,0.0,0.0,0.0,0.0,0.0,0.0,0.0,0.0,0.0,0.0,0.0,0.0,0.0,0.0,0.0,0.0,0.0,0.0,0.0,0.0,0.0,0.0,0.0,0.0,0.0,0.0,0.0,0.0,0.0,0.0,0.0,0.0,0.0,0.0,0.0,0.0,0.0,0.0,0.0,0.0,0.0,0.0,0.0,0.0,0.0,0.0,0.0,0.0,0.0,0.0,0.0,0.0,0.0,0.0,0.0,0.0,0.0,0.0,0.0,0.0,0.0,0.0,0.0,0.0,0.0,0.0,0.0,-3.5113,-3.6112,-3.6767,-3.6597,-3.5551,-3.4985,-3.4318,0.0,0.0,0.0,0.0,0.0,0.0,0.0,0.0,0.0,0.0,0.0,0.0,0.0,0.0,0.0,0.0,0.0,0.0,0.0,0.0,0.0,0.0,0.0,0.0,0.0,0.0,0.0,0.0,0.0,0.0,0.0,0.0,0.0,0.0,0.0,0.0,0.0,0.0,0.0,0.0,0.0,0.0,0.0,0.0,0.0,0.0,0.0,0.0,0.0,0.0,0.0,0.0,0.0,0.0,0.0,0.0,0.0,0.0,0.0,0.0,0.0,0.0,0.0,0.0,0.0,0.0,0.0,0.0,0.0,0.0,0.0,0.0,0.0,0.0,0.0,0.0,0.0,0.0,0.0,0.0,0.0,0.0,0.0,0.0,0.0,0.0,0.0,0.0,0.0,0.0,0.0,0.0,0.0,0.0,0.0,0.0,0.0,0.0,0.0,0.0,0.0,0.0,0.0,0.0,0.0,0.0,0.0,0.0,-3.5789,-3.6604,-3.7234,-3.758,-3.7317,-3.621,-3.5318,0.0,0.0,0.0,0.0,0.0,0.0,0.0,0.0,0.0,0.0,0.0,0.0,0.0,0.0,0.0,0.0,0.0,0.0,0.0,0.0,0.0,0.0,0.0,0.0,0.0,0.0,0.0,0.0,0.0,0.0,0.0,0.0,0.0,0.0,0.0,0.0,0.0,0.0,0.0,0.0,0.0,0.0,0.0,0.0,0.0,0.0,0.0,0.0,0.0,0.0,0.0,0.0,0.0,0.0,0.0,0.0,0.0,0.0,0.0,0.0,0.0,0.0,0.0,0.0,0.0,0.0,0.0,0.0,0.0,0.0,0.0,0.0,0.0,0.0,0.0,0.0,0.0,0.0,0.0,0.0,0.0,0.0,0.0,0.0,0.0,0.0,0.0,0.0,0.0,0.0,0.0,0.0,0.0,0.0,0.0,0.0,0.0,0.0,0.0,0.0,0.0,0.0,0.0,0.0,0.0,0.0,0.0,0.0,-3.6651,-3.7685,-3.7829,-3.8083,-3.8138,-3.6701,-3.5585,0.0,0.0,0.0,0.0,0.0,0.0,0.0,0.0,0.0,0.0,0.0,0.0,0.0,0.0,0.0,0.0,0.0,0.0,0.0,0.0,0.0,0.0,0.0,0.0,0.0,0.0,0.0,0.0,0.0,0.0,0.0,0.0,0.0,0.0,0.0,0.0,0.0,0.0,0.0,0.0,0.0,0.0,0.0,0.0,0.0,0.0,0.0,0.0,-3.182,0.0,0.0,0.0,0.0,0.0,0.0,0.0,0.0,0.0,0.0,0.0,0.0,0.0,0.0,0.0,0.0,0.0,0.0,0.0,0.0,0.0,0.0,0.0,0.0,0.0,0.0,0.0,0.0,0.0,0.0,0.0,0.0,0.0,0.0,0.0,0.0,0.0,0.0,0.0,0.0,0.0,0.0,0.0,0.0,0.0,0.0,0.0,0.0,0.0,0.0,0.0,0.0,0.0,0.0,0.0,0.0,0.0,0.0,0.0,-3.7216,-3.8477,-3.8382,-3.8212,-3.8216,-3.7392,-3.6443,0.0,0.0,0.0,0.0,0.0,0.0,0.0,0.0,0.0,0.0,0.0,0.0,0.0,0.0,0.0,0.0,0.0,0.0,0.0,0.0,0.0,0.0,0.0,0.0,0.0,0.0,0.0,0.0,0.0,0.0,0.0,0.0,0.0,0.0,0.0,0.0,0.0,0.0,0.0,0.0,0.0,0.0,0.0,0.0,0.0,0.0,0.0,0.0,0.0,0.0,0.0,0.0,0.0,0.0,0.0,0.0,0.0,0.0,0.0,0.0,0.0,0.0,0.0,0.0,0.0,0.0,0.0,0.0,0.0,0.0,0.0,0.0,0.0,0.0,0.0,0.0,0.0,0.0,0.0,0.0,0.0,0.0,0.0,0.0,0.0,0.0,0.0,0.0,0.0,0.0,0.0,0.0,0.0,0.0,0.0,0.0,0.0,0.0,0.0,0.0,0.0,0.0,0.0,0.0,0.0,0.0,0.0,-3.6281,-3.7633,-3.908,-3.8811,-3.8441,-3.8015,-3.809,-3.7287,-3.5504,0.0,0.0,0.0,0.0,0.0,0.0,0.0,0.0,0.0,0.0,0.0,0.0,0.0,0.0,0.0,0.0,0.0,0.0,0.0,0.0,0.0,0.0,0.0,0.0,0.0,0.0,0.0,0.0,0.0,0.0,0.0,0.0,0.0,0.0,0.0,0.0,0.0,0.0,-3.0909,-3.1763,0.0,0.0,0.0,0.0,0.0,0.0,0.0,0.0,-3.3944,0.0,0.0,0.0,0.0,0.0,0.0,0.0,0.0,0.0,0.0,0.0,0.0,0.0,0.0,0.0,0.0,0.0,0.0,0.0,0.0,0.0,0.0,0.0,0.0,0.0,0.0,0.0,0.0,0.0,0.0,0.0,0.0,0.0,0.0,0.0,0.0,0.0,0.0,0.0,0.0,0.0,0.0,0.0,0.0,0.0,0.0,0.0,0.0,0.0,0.0,0.0,0.0,0.0,0.0,0.0,0.0,-3.492,-3.6554,-3.8039,-3.9233,-3.939,-3.9044,-3.8065,-3.8467,-3.7513,-3.5027,0.0,0.0,0.0,0.0,0.0,0.0,0.0,0.0,0.0,0.0,0.0,0.0,0.0,0.0,0.0,0.0,0.0,0.0,0.0,0.0,0.0,0.0,0.0,0.0,0.0,0.0,0.0,0.0,0.0,0.0,0.0,0.0,0.0,0.0,0.0,0.0,0.0,0.0,0.0,-3.3013,-3.3431,0.0,0.0,0.0,0.0,0.0,0.0,0.0,0.0,-3.4717,0.0,0.0,0.0,0.0,0.0,0.0,0.0,0.0,0.0,0.0,0.0,0.0,0.0,0.0,0.0,0.0,0.0,0.0,0.0,0.0,0.0,0.0,0.0,0.0,0.0,0.0,0.0,0.0,0.0,0.0,0.0,0.0,0.0,0.0,0.0,0.0,0.0,0.0,0.0,0.0,0.0,0.0,0.0,0.0,0.0,0.0,0.0,0.0,0.0,0.0,0.0,0.0,0.0,0.0,0.0,-3.5644,-3.7142,-3.8609,-4.0028,-3.9869,-3.9145,-3.8065,-3.8567,-3.7437,0.0,0.0,0.0,0.0,0.0,0.0,0.0,0.0,0.0,0.0,0.0,0.0,0.0,0.0,0.0,0.0,0.0,0.0,0.0,0.0,0.0,0.0,0.0,0.0,0.0,0.0,0.0,0.0,0.0,0.0,0.0,0.0,0.0,0.0,0.0,0.0,0.0,0.0,0.0,0.0,-3.3543,-3.449,-3.548,0.0,0.0,0.0,0.0,0.0,0.0,-3.5507,-3.534,0.0,0.0,0.0,0.0,0.0,0.0,0.0,0.0,0.0,0.0,0.0,0.0,0.0,0.0,0.0,0.0,0.0,0.0,0.0,0.0,0.0,0.0,0.0,0.0,0.0,0.0,0.0,0.0,0.0,0.0,0.0,0.0,0.0,0.0,0.0,0.0,0.0,0.0,0.0,0.0,0.0,0.0,0.0,0.0,0.0,0.0,0.0,0.0,0.0,0.0,0.0,0.0,0.0,0.0,0.0,-3.6202,-3.7458,-3.8951,-4.0557,-4.0045,-3.9145,-3.8065,-3.8366,-3.7061,0.0,0.0,0.0,0.0,0.0,0.0,0.0,0.0,0.0,0.0,0.0,0.0,0.0,0.0,0.0,0.0,0.0,0.0,0.0,0.0,0.0,0.0,0.0,0.0,0.0,0.0,0.0,0.0,0.0,0.0,0.0,0.0,0.0,0.0,0.0,0.0,0.0,0.0,0.0,0.0,0.0,-3.5404,-3.6157,-3.5494,0.0,0.0,0.0,0.0,-3.665,-3.6586,0.0,0.0,0.0,0.0,0.0,0.0,0.0,0.0,0.0,0.0,0.0,0.0,0.0,0.0,0.0,0.0,0.0,0.0,0.0,0.0,0.0,0.0,0.0,0.0,0.0,0.0,0.0,0.0,0.0,0.0,0.0,0.0,0.0,0.0,0.0,0.0,0.0,0.0,0.0,0.0,0.0,0.0,0.0,0.0,0.0,0.0,0.0,0.0,0.0,0.0,0.0,0.0,0.0,0.0,0.0,0.0,-3.5381,-3.7192,-3.8708,-3.9744,-3.9772,-3.917,-3.804,-3.7588,-3.6282,0.0,0.0,0.0,0.0,0.0,0.0,0.0,0.0,0.0,0.0,0.0,0.0,0.0,0.0,0.0,0.0,0.0,0.0,0.0,0.0,0.0,0.0,0.0,0.0,0.0,0.0,0.0,0.0,0.0,0.0,0.0,0.0,0.0,0.0,0.0,0.0,0.0,0.0,0.0,0.0,0.0,-3.5621,-3.7129,-3.7088,-3.6698,0.0,0.0,-3.8344,-3.8475,-3.9055,0.0,0.0,0.0,0.0,0.0,0.0,0.0,0.0,0.0,0.0,0.0,0.0,0.0,0.0,0.0,0.0,0.0,0.0,0.0,0.0,0.0,0.0,0.0,0.0,0.0,0.0,0.0,0.0,0.0,0.0,0.0,0.0,0.0,0.0,0.0,0.0,0.0,0.0,0.0,0.0,0.0,0.0,0.0,0.0,0.0,0.0,0.0,0.0,0.0,0.0,0.0,0.0,0.0,0.0,0.0,-3.3481,-3.5746,-3.7762,-3.9208,-4.0124,-3.9848,-3.9145,-3.804,-3.7764,-3.6332,0.0,0.0,0.0,0.0,0.0,0.0,0.0,0.0,0.0,0.0,0.0,0.0,0.0,0.0,0.0,0.0,0.0,0.0,0.0,0.0,0.0,0.0,0.0,0.0,0.0,0.0,0.0,0.0,0.0,0.0,0.0,0.0,0.0,0.0,0.0,0.0,0.0,0.0,0.0,0.0,0.0,0.0,-3.735,-3.7764,0.0,0.0,0.0,-3.8673,-3.8358,0.0,0.0,0.0,0.0,0.0,0.0,0.0,0.0,0.0,0.0,0.0,0.0,0.0,0.0,0.0,0.0,0.0,0.0,0.0,0.0,0.0,0.0,0.0,0.0,0.0,0.0,0.0,0.0,0.0,0.0,0.0,0.0,0.0,0.0,0.0,0.0,0.0,0.0,0.0,0.0,0.0,0.0,0.0,0.0,0.0,0.0,0.0,0.0,0.0,0.0,0.0,0.0,0.0,0.0,0.0,0.0,0.0,-3.6088,-3.8237,-3.969,-4.0275,-3.9898,-3.9145,-3.804,-3.799,0.0,0.0,0.0,0.0,0.0,0.0,0.0,0.0,0.0,0.0,0.0,0.0,0.0,0.0,0.0,0.0,0.0,0.0,0.0,0.0,0.0,0.0,0.0,0.0,0.0,0.0,0.0,-2.476,0.0,0.0,0.0,0.0,0.0,0.0,0.0,0.0,0.0,0.0,0.0,0.0,0.0,0.0,-3.691,-3.7742,-3.8564,-3.906,0.0,0.0,-3.9374,-3.8926,-4.0281,-4.0495,0.0,0.0,0.0,0.0,0.0,0.0,0.0,0.0,0.0,0.0,0.0,0.0,0.0,0.0,0.0,0.0,0.0,0.0,0.0,0.0,0.0,0.0,0.0,0.0,0.0,0.0,0.0,0.0,0.0,0.0,0.0,0.0,0.0,0.0,0.0,0.0,0.0,0.0,0.0,0.0,0.0,0.0,0.0,0.0,0.0,0.0,0.0,0.0,0.0,0.0,0.0,0.0,0.0,0.0,0.0,-3.6053,-3.8165,-3.949,-3.9747,-3.9722,-3.917,-3.804,-3.799,-3.6709,0.0,0.0,0.0,0.0,0.0,0.0,0.0,0.0,0.0,0.0,0.0,0.0,0.0,0.0,0.0,0.0,0.0,0.0,0.0,0.0,0.0,0.0,0.0,0.0,0.0,0.0,0.0,0.0,0.0,0.0,0.0,0.0,0.0,0.0,0.0,0.0,0.0,0.0,0.0,0.0,0.0,-3.6954,-3.8767,-4.0171,-4.0983,0.0,-4.1271,-4.1367,-4.1313,-4.2304,-4.2045,-3.9104,0.0,0.0,0.0,0.0,0.0,0.0,0.0,0.0,0.0,0.0,0.0,0.0,0.0,0.0,0.0,0.0,0.0,0.0,0.0,0.0,0.0,0.0,0.0,0.0,0.0,0.0,0.0,0.0,0.0,0.0,0.0,0.0,0.0,0.0,0.0,0.0,0.0,0.0,0.0,0.0,0.0,0.0,0.0,0.0,0.0,0.0,0.0,0.0,0.0,0.0,0.0,0.0,0.0,-3.4514,-3.5978,-3.8341,-3.9569,-3.9697,-3.9697,-3.932,-3.8567,-3.8542,-3.7236,0.0,0.0,0.0,0.0,0.0,0.0,0.0,0.0,0.0,0.0,0.0,0.0,0.0,0.0,0.0,0.0,0.0,0.0,0.0,0.0,0.0,0.0,0.0,0.0,0.0,0.0,0.0,0.0,-2.9352,-2.9632,-2.9254,0.0,0.0,0.0,0.0,0.0,0.0,0.0,0.0,0.0,0.0,-3.7811,-3.9655,-4.0775,0.0,0.0,-4.2328,-4.2481,-4.191,-4.2753,-4.2438,-3.9429,-3.8141,0.0,0.0,0.0,0.0,0.0,0.0,0.0,0.0,0.0,0.0,0.0,0.0,0.0,0.0,0.0,0.0,0.0,0.0,0.0,0.0,0.0,0.0,0.0,0.0,0.0,0.0,0.0,0.0,0.0,0.0,0.0,0.0,0.0,0.0,0.0,0.0,0.0,0.0,0.0,0.0,0.0,0.0,0.0,0.0,0.0,0.0,0.0,0.0,0.0,0.0,0.0,0.0,-3.4792,-3.6073,-3.8442,-3.9697,-3.9697,-3.9697,-3.9421,-3.8919,-3.9019,-3.7965,0.0,0.0,0.0,0.0,0.0,0.0,0.0,0.0,0.0,0.0,0.0,0.0,0.0,0.0,0.0,0.0,0.0,0.0,0.0,0.0,0.0,0.0,0.0,0.0,0.0,0.0,0.0,0.0,-3.0493,-3.054,-2.9353,0.0,0.0,0.0,0.0,0.0,0.0,0.0,0.0,0.0,0.0,-3.9096,-4.0521,-4.141,-4.1964,-4.2085,-4.2522,-4.2398,-4.1704,-4.2351,-4.2205,-3.9679,0.0,0.0,0.0,0.0,0.0,0.0,0.0,0.0,0.0,0.0,0.0,0.0,0.0,0.0,0.0,0.0,0.0,0.0,0.0,0.0,0.0,0.0,0.0,0.0,0.0,0.0,0.0,-2.7579,0.0,0.0,-2.5792,0.0,0.0,0.0,0.0,0.0,0.0,0.0,0.0,0.0,0.0,0.0,0.0,0.0,0.0,0.0,0.0,0.0,0.0,0.0,0.0,0.0,0.0,-3.5069,-3.6358,-3.8567,-3.9697,-3.9697,-3.9697,-3.9446,-3.8919,-3.9396,-3.8843,-3.7111,0.0,0.0,0.0,0.0,0.0,0.0,0.0,0.0,0.0,0.0,0.0,0.0,0.0,0.0,0.0,0.0,0.0,0.0,0.0,0.0,0.0,0.0,0.0,0.0,0.0,0.0,-2.9821,-3.0512,-3.0592,0.0,0.0,0.0,0.0,0.0,0.0,0.0,0.0,0.0,0.0,-3.9169,-4.0831,-4.1397,-4.1972,-4.2137,-4.1644,-4.1534,-4.1288,-4.0768,-4.1045,-4.1035,0.0,0.0,0.0,0.0,0.0,0.0,0.0,0.0,0.0,0.0,0.0,0.0,0.0,0.0,0.0,0.0,0.0,0.0,0.0,0.0,0.0,0.0,0.0,0.0,0.0,0.0,0.0,-2.9428,-2.9085,0.0,0.0,0.0,0.0,0.0,0.0,0.0,0.0,0.0,0.0,0.0,-3.2951,-3.2788,0.0,0.0,0.0,0.0,0.0,0.0,0.0,0.0,0.0,0.0,0.0,0.0,-3.5712,-3.6935,-3.8743,-3.9697,-3.9697,-3.9697,-3.9597,-3.9421,-3.9245,-3.8191,-3.6157,0.0,0.0,0.0,0.0,0.0,0.0,0.0,0.0,0.0,0.0,0.0,0.0,0.0,0.0,0.0,0.0,0.0,0.0,0.0,0.0,0.0,0.0,0.0,0.0,0.0,-3.1182,0.0,0.0,0.0,0.0,0.0,0.0,0.0,0.0,0.0,0.0,0.0,-3.6305,-3.88,-4.0,-4.1012,-4.1771,-4.1925,-4.2377,0.0,0.0,0.0,0.0,0.0,0.0,0.0,0.0,0.0,0.0,0.0,0.0,0.0,0.0,-4.0736,-3.9192,-3.923,-3.9727,-4.0325,0.0,0.0,0.0,0.0,0.0,0.0,0.0,0.0,0.0,0.0,0.0,0.0,0.0,0.0,-3.1236,0.0,-3.0253,0.0,0.0,0.0,0.0,0.0,0.0,0.0,0.0,-3.3744,-3.4899,-3.5342,-3.5151,-3.4987,0.0,-3.4511,-3.3241,0.0,0.0,0.0,0.0,0.0,0.0,0.0,0.0,-3.6081,-3.7186,-3.8843,-3.9697,-3.9697,-3.9697,-3.9697,-3.9672,-3.9145,-3.809,-3.6458,-3.5152,-3.3646,0.0,0.0,0.0,0.0,0.0,0.0,0.0,0.0,0.0,0.0,0.0,0.0,0.0,0.0,0.0,0.0,0.0,0.0,0.0,0.0,0.0,0.0,0.0,-3.2274,0.0,0.0,0.0,0.0,0.0,0.0,0.0,0.0,0.0,-3.4708,-3.6356,-3.8199,-4.0006,-4.1081,-4.1649,-4.184,0.0,0.0,0.0,0.0,0.0,0.0,0.0,-4.2757,-4.2332,-4.2624,-4.3344,-4.4763,-4.517,-4.5539,-4.6077,0.0,0.0,-4.253,-4.2455,-4.2969,-4.3438,-4.3507,-4.3769,-4.4601,-4.4652,-4.4772,0.0,0.0,0.0,0.0,0.0,0.0,0.0,0.0,-3.3242,-3.3042,0.0,-3.2364,0.0,0.0,0.0,0.0,0.0,-3.259,0.0,0.0,-3.7156,-3.8129,-3.7643,-3.7209,-3.7066,-3.7218,-3.6039,-3.5526,-3.5716,-3.4356,0.0,0.0,0.0,0.0,0.0,0.0,-3.6132,-3.7262,-3.8868,-3.9697,-3.9697,-3.9697,-3.9697,-3.9647,-3.917,-3.8592,-3.7965,-3.6458,-3.5102,-3.3947,-3.1888,0.0,0.0,0.0,0.0,0.0,0.0,0.0,0.0,0.0,0.0,0.0,0.0,0.0,0.0,0.0,0.0,0.0,0.0,0.0,0.0,-3.2374,0.0,0.0,0.0,0.0,0.0,0.0,0.0,0.0,0.0,0.0,-3.7152,-3.8561,-3.9816,-4.0659,0.0,0.0,0.0,0.0,-4.2446,-4.1426,-4.1652,-4.1738,-4.0659,-4.2338,-4.3864,-4.4037,0.0,0.0,-4.7733,-4.77,-4.7516,-4.7774,-4.8688,-4.8515,-4.5788,-4.5108,-4.5095,-4.5727,-4.5953,-4.6265,-4.741,-4.7542,-4.7585,-3.5543,0.0,0.0,0.0,0.0,-3.3682,-3.438,-3.5313,-3.5543,-3.5557,-3.5212,-3.5152,0.0,0.0,0.0,0.0,0.0,0.0,-3.4863,-3.5992,-3.737,-3.8087,-3.8515,-3.8344,-3.827,-3.8349,-3.8259,-3.8212,-3.8212,-3.8016,-3.6601,-3.4121,0.0,0.0,0.0,0.0,-3.7262,-3.8366,-3.9245,-3.9697,-3.9697,-3.9697,-3.9496,-3.912,-3.9346,-3.8818,-3.7487,-3.7337,-3.6433,-3.4575,-3.352,0.0,0.0,0.0,0.0,0.0,0.0,0.0,0.0,0.0,0.0,0.0,0.0,0.0,0.0,0.0,0.0,0.0,0.0,0.0,-3.414,-3.4199,-3.4,0.0,0.0,0.0,0.0,0.0,0.0,0.0,0.0,0.0,-4.0661,-4.0601,-4.0853,0.0,0.0,-4.242,-4.2308,-4.2539,-4.3285,-4.469,-4.4199,0.0,-4.5421,-4.5428,-4.5549,-4.6254,-4.7788,-4.91,-4.9734,-5.0155,-5.0517,-5.0877,-5.0842,-5.0529,-5.0112,-4.9542,-4.9388,-4.9821,-5.0102,-5.039,-5.1246,-5.1417,-5.152,-3.9014,-3.7911,-3.6117,-3.5672,-3.6041,-3.6148,-3.6781,-3.7676,-3.7816,-3.7699,-3.7504,-3.7489,-3.6796,-3.5491,-3.5201,0.0,0.0,0.0,-3.7132,-3.8289,-3.8736,-3.929,-3.9798,-3.9823,-3.9798,-3.9798,-4.0009,-4.014,-4.0115,-4.0019,-3.9068,-3.7121,0.0,0.0,-3.6493,-3.7365,-3.8291,-3.9195,-3.9948,-4.035,-4.035,-4.0124,-3.9772,-3.922,-3.932,-3.8768,-3.7563,-3.7613,-3.696,-3.5429,-3.465,-3.3607,0.0,0.0,0.0,0.0,0.0,0.0,0.0,0.0,0.0,0.0,0.0,-2.9184,-2.9372,0.0,0.0,0.0,-3.2919,-3.4418,-3.6024,-3.5638,0.0,0.0,0.0,0.0,0.0,0.0,0.0,-3.8448,-4.0406,-4.2045,-4.2622,-4.2389,-4.2447,-4.3286,-4.3256,-4.334,-4.3546,0.0,-4.4818,-4.609,-4.5801,-4.5863,-4.7036,-4.7365,-4.7783,-4.8676,-4.9816,-5.0601,-5.0908,-5.1515,-5.1911,-5.2154,-5.215,-5.2082,-5.2436,-5.2324,-5.2081,-5.1863,-5.2099,-5.249,-5.3423,-5.3725,-5.4026,-4.2233,-4.1948,-3.8909,-3.8052,-3.8606,-3.8854,-3.9373,-4.0174,-3.9773,-3.9608,-3.9675,-3.9474,-3.8999,-3.8256,-3.806,0.0,-3.9032,-3.9272,-3.9947,-4.0898,-4.0898,-4.1006,-4.1329,-4.1329,-4.1329,-4.1329,-4.1329,-4.1329,-4.1304,-4.0827,-4.0576,-4.0526,-3.8994,-3.7914,-3.7462,-3.8417,-3.922,-3.9772,-4.0752,-4.1254,-4.1254,-4.0777,-4.0249,-3.9697,-3.9195,-3.8668,-3.809,-3.7588,-3.7036,-3.6433,-3.5454,-3.4715,-3.4299,0.0,0.0,0.0,0.0,0.0,0.0,0.0,0.0,0.0,0.0,0.0,0.0,0.0,0.0,0.0,-3.5236,0.0,-3.771,-3.6802,0.0,0.0,0.0,-3.7099,-3.8289,-3.9596,-4.0641,-4.1192,0.0,0.0,-4.3588,-4.4174,-4.4646,-4.4962,-4.4993,-4.4995,-4.5024,-4.6069,-4.6708,-4.6421,-4.6953,-4.731,-4.7164,-4.8588,-5.0113,-5.0837,-5.1386,-5.1542,-5.1635,-5.1911,-5.2306,-5.2306,-5.2788,-5.3055,-5.3144,-5.3577,-5.3692,-5.2511,-5.2649,-5.3246,-5.4276,-5.471,-5.511,-4.329,-4.3217,-4.2079,-4.1169,-4.0658,-4.0658,-4.0561,-4.0415,-4.0707,-4.0852,-4.0852,-4.1257,-4.1086,-4.055,-3.9989,-4.0035,-4.0483,-4.0483,-4.0774,-4.1222,-4.1222,-4.1222,-4.1329,-4.1329,-4.1329,-4.1329,-4.1329,-4.1329,-4.1329,-4.1204,-4.1153,-4.1103,-4.0325,-3.9647,-3.912,-3.9371,-3.9772,-4.03,-4.0576,-4.0727,-4.0701,-4.0576,-4.0249,-3.9722,-3.9572,-3.9245,-3.8693,-3.8542,-3.8015,-3.7036,-3.6734,-3.6074,-3.4958,-3.2887,0.0,0.0,0.0,0.0,0.0,0.0,0.0,0.0,0.0,-3.1529,-3.2415,0.0,-3.4418,0.0,-3.7034,-3.8367,-3.9204,-3.8649,0.0,0.0,-3.9305,-3.9509,-4.035,-4.214,-4.3186,-4.2836,-4.4024,-4.5049,-4.5726,-4.5962,-4.6668,-4.8106,-4.6745,-4.5837,-4.6301,-4.724,-4.7975,-4.8267,-4.901,-4.9705,-4.9685,-5.0351,-5.0926,-5.1199,-5.1416,-5.1695,-5.191,-5.2155,-5.2397,-5.2608,-5.2877,-5.3144,-5.3496,-5.3813,-5.4179,-5.4333,-5.4598,-5.4875,-5.5393,-5.5745,-5.6093,-4.4525,-4.4476,-4.3954,-4.3382,-4.2673,-4.1977,-4.1471,-4.1225,-4.152,-4.1668,-4.1692,-4.1987,-4.2051,-4.1867,-4.1546,-4.1618,-4.1838,-4.1838,-4.1948,-4.2057,-4.2082,-4.2057,-4.2057,-4.2057,-4.2082,-4.2082,-4.2082,-4.2057,-4.2057,-4.2082,-4.2082,-4.2057,-4.1756,-4.1329,-4.0802,-4.03,-4.0199,-4.0526,-4.1003,-4.1254,-4.1229,-4.1003,-4.0501,-3.9722,-3.9446,-3.8944,-3.814,-3.8115,-3.7613,-3.6533,-3.6684,-3.6276,-3.5161,-3.3568,-3.223,0.0,0.0,0.0,0.0,0.0,0.0,0.0,0.0,0.0,0.0,0.0,-3.6372,-3.7272,-3.8474,-3.9463,-4.0256,-4.0105,-4.03,-4.1279,-4.1395,-4.1826,-4.2869,-4.4004,-4.4789,-4.4817,-4.5843,-4.6756,-4.7141,-4.7732,-4.8443,-4.9538,-4.8635,-4.8097,-4.8419,-4.8922,-4.9339,-4.9692,-5.0235,-5.0757,-5.0917,-5.1105,-5.1199,-5.1416,-5.1602,-5.188,-5.2063,-5.2337,-5.2608,-5.2819,-5.3055,-5.3409,-5.3813,-5.4189,-5.4613,-5.5113,-5.5491,-5.5733,-5.5927,-5.6165,-5.6369,-4.5698,-4.5648,-4.507,-4.4794,-4.4669,-4.3069,-4.2421,-4.2421,-4.2347,-4.2273,-4.2224,-4.2224,-4.2312,-4.2513,-4.2513,-4.2737,-4.2986,-4.2986,-4.2986,-4.2986,-4.2986,-4.2986,-4.2986,-4.2986,-4.2986,-4.2986,-4.2986,-4.2986,-4.2986,-4.2986,-4.2986,-4.2986,-4.2911,-4.2635,-4.2133,-4.1128,-4.0651,-4.0727,-4.1656,-4.2133,-4.2057,-4.1505,-4.0701,-3.9622,-3.912,-3.8366,-3.7362,-3.7287,-3.681,-3.5855,-3.6207,-3.6218,-3.5466,-3.4174,-3.3427,0.0,-3.18,0.0,0.0,0.0,0.0,0.0,0.0,0.0,0.0,-3.7494,-3.8282,-3.9312,-3.9939,-4.0516,-4.1424,-4.1482,-4.1947,-4.3079,-4.3224,-4.3889,-4.523,-4.5551,-4.5903,-4.6639,-4.7555,-4.812,-4.8208,-4.928,-4.9994,-5.005,-5.0312,-5.033,-5.0537,-5.0478,-5.0508,-5.0596,-5.0757,-5.0917,-5.1135,-5.1229,-5.1323,-5.1572,-5.1787,-5.2063,-5.2215,-5.2487,-5.2819,-5.3086,-5.3233,-5.3552,-5.4103,-5.4444,-5.4864,-5.536,-5.5766,-5.6086,-5.6165,-5.6323,-5.6447,-4.6828,-4.6778,-4.6225,-4.5748,-4.5271,-4.4502,-4.4086,-4.4061,-4.3612,-4.33,-4.2874,-4.2874,-4.2874,-4.2874,-4.2874,-4.2961,-4.2986,-4.2986,-4.2986,-4.2986,-4.2986,-4.2986,-4.2986,-4.2986,-4.2986,-4.2986,-4.2986,-4.2986,-4.2986,-4.2986,-4.2986,-4.2961,-4.2534,-4.2258,-4.2133,0.0,0.0,0.0,-4.2057,-4.1932,-4.1505,-4.0953,-4.0149,-3.9069,-3.8919,0.0,-3.7889,-3.7864,-3.7563,-3.691,-3.6985,0.0,0.0,0.0,0.0,0.0,0.0,0.0,0.0,0.0,0.0,0.0,-3.8583,-3.8672,-3.8116,-3.947,-4.0885,-4.2067,-4.2299,-4.2731,-4.3369,-4.3456,-4.3747,-4.4414,-4.4705,-4.5201,-4.5961,-4.6845,-4.7496,-4.7614,-4.8477,-4.9194,-4.9672,-5.003,-5.0359,-5.0837,-5.1046,-5.1041,-5.1041,-5.0917,-5.0728,-5.0728,-5.0917,-5.1105,-5.1229,-5.1229,-5.1293,-5.1572,-5.1787,-5.2063,-5.2337,-5.2518,-5.2819,-5.3055,-5.3233,-5.364,-5.4242,-5.4613,-5.498,-5.5604,-5.5927,-5.6165,-5.6323,-5.6525,-5.668,-4.738,-4.7129,-4.7104,-4.6778,0.0,-4.5974,-4.5849,-4.5799,-4.4669,-4.4041,-4.379,-4.379,-4.379,-4.379,-4.379,-4.379,-4.3765,-4.3514,-4.3388,-4.3363,-4.3112,-4.2986,-4.2986,-4.2986,-4.2986,-4.2986,-4.2986,-4.2986,-4.2986,-4.2986,-4.2986,-4.2961,-4.271,-4.2559,-4.2559,-4.2283,-4.2158,-4.2158,-4.2158,-4.2158,-4.2133,-4.1605,-4.0927,-4.0099,-3.9546,0.0,0.0,0.0,0.0,0.0,0.0,0.0,0.0,0.0,0.0,-3.7039,-3.6664,-3.6805,-3.7368,-3.8318,-3.9222,-4.0233,-4.1155,-4.1254,-4.0316,-4.1616,-4.2789,-4.3427,-4.3485,-4.3747,-4.4356,-4.4443,-4.4792,-4.5692,-4.6106,-4.6548,-4.7254,-4.7999,-4.8447,-4.8626,-4.9253,-4.9883,-5.0182,-5.0633,-5.0996,-5.1326,-5.1509,-5.1602,-5.1509,-5.1199,-5.1011,-5.1011,-5.1135,-5.1229,-5.1229,-5.1229,-5.1323,-5.1695,-5.191,-5.2185,-5.2427,-5.2608,-5.2788,-5.3144,-5.329,-5.364,-5.4444,-5.4729,-5.5063,-5.5766,-5.6006,-5.6244,-5.6447,-5.6603,-5.668,-4.7581,-4.7305,-4.7732,-4.7657,-4.728,-4.728,-4.7205,-4.7029,0.0,0.0,0.0,-4.4618,-4.4618,-4.4618,-4.4618,-4.4618,-4.4593,-4.4141,-4.394,-4.394,-4.3463,-4.3212,-4.3137,-4.3137,-4.3062,-4.2986,-4.2986,-4.2986,-4.2986,-4.2986,-4.2986,-4.2986,-4.2986,-4.2986,-4.2986,-4.2986,-4.276,-4.2308,-4.2208,-4.2359,-4.2811,-4.2283,-4.1756,-4.1204,-4.0325,-3.9546,-3.8894,-3.8417,-3.7914,-3.7387,-3.7764,-3.7834,-3.7362,-3.7744,-3.8012,-3.8194,-3.8168,-3.8658,-3.9881,-4.0399,-4.1141,-4.2278,-4.3234,-4.3512,-4.2768,-4.3575,-4.4211,-4.4327,-4.4443,-4.4705,-4.5169,-4.5343,-4.5808,-4.6882,-4.7274,-4.7753,-4.8437,-4.8919,-4.9222,-4.9494,-5.0002,-5.0391,-5.0543,-5.1148,-5.1572,-5.1695,-5.1787,-5.2002,-5.191,-5.1602,-5.1293,-5.1293,-5.1229,-5.1229,-5.1229,-5.1229,-5.1416,-5.191,-5.2002,-5.2185,-5.2549,-5.2729,-5.2877,-5.3321,-5.3377,-5.3813,-5.456,-5.4813,-5.5146,-5.5927,-5.6086,-5.6244,-5.6636,-5.6812,-5.6912,-4.7456,-4.7807,-4.7883,-4.7857,-4.7807,-4.7782,-4.7556,-4.7054,-4.5874,-4.5095,-4.4618,-4.4618,-4.4618,-4.4618,-4.4618,-4.4618,-4.4618,-4.4543,-4.4493,-4.4493,-4.4443,-4.4141,-4.3689,-4.3689,-4.3438,-4.3011,-4.2986,-4.2986,-4.2986,-4.2986,-4.2986,-4.2986,-4.2986,-4.2986,-4.2986,-4.2986,-4.2936,-4.2861,-4.2384,-4.2183,-4.2258,-4.1731,-4.1204,-4.0651,-4.0501,-3.9923,-3.8919,-3.8793,-3.8467,-3.7939,-3.7965,-3.8338,-3.9188,-3.9363,-3.9792,-4.0676,-4.0728,-4.1051,-4.1692,-4.2205,-4.2998,-4.4265,-4.521,-4.5287,-4.4409,-4.4617,-4.4995,-4.5576,-4.6069,-4.6446,-4.6592,-4.6998,-4.7346,-4.7701,-4.8009,-4.8345,-4.8584,-4.9426,-5.0,-5.0122,-5.069,-5.1143,-5.1299,-5.1512,-5.1695,-5.188,-5.1972,-5.2002,-5.1972,-5.1787,-5.1572,-5.1479,-5.1323,-5.1229,-5.1229,-5.1229,-5.1416,-5.191,-5.2002,-5.2155,-5.2639,-5.2729,-5.2877,-5.329,-5.3377,-5.3758,-5.4645,-5.4813,-5.5146,-5.5846,-5.6086,-5.6244,-5.6669,-5.7243,-5.7674,-4.7807,-4.7631,-4.8435,-4.846,-4.7933,-4.8234,-4.7908,-4.7104,-4.6602,-4.605,-4.5573,-4.5547,-4.5547,-4.5547,-4.5547,-4.5547,-4.5522,-4.5221,-4.5095,-4.507,-4.4769,-4.4493,-4.4267,-4.4242,-4.4116,-4.3865,-4.3865,-4.3865,-4.384,-4.3589,-4.3438,-4.3388,-4.3137,-4.2986,-4.2986,-4.2986,-4.2986,-4.2961,-4.2735,-4.2585,-4.2585,-4.2359,-4.2108,-4.1856,-4.158,-4.1178,-4.0676,-4.0074,-3.9647,-3.9371,-3.9069,-3.9348,-4.0081,-4.0132,-4.0436,-4.1198,-4.1324,-4.1655,-4.2572,-4.3687,-4.483,-4.5884,-4.6329,-4.6555,-4.635,-4.6475,-4.6592,-4.6882,-4.7172,-4.7346,-4.7346,-4.7608,-4.8021,-4.8435,-4.884,-4.9174,-4.9685,-5.0262,-5.075,-5.078,-5.102,-5.1293,-5.1572,-5.1695,-5.188,-5.2155,-5.2246,-5.2367,-5.2337,-5.2124,-5.1849,-5.1665,-5.1479,-5.1416,-5.1229,-5.1229,-5.1416,-5.191,-5.2002,-5.2185,-5.2639,-5.2729,-5.2877,-5.3144,-5.329,-5.3726,-5.4444,-5.4697,-5.5146,-5.5718,-5.6006,-5.6343,-5.7008,-5.8091,-5.8933,-4.8159,-4.7657,-4.8862,-4.8987,-4.8335,-4.8636,-4.8209,-4.733,-4.7179,-4.6828,-4.6351,-4.6326,-4.6326,-4.6326,-4.6326,-4.6301,-4.625,-4.5874,-4.5673,-4.5623,-4.5196,-4.4945,-4.4819,-4.4819,-4.4744,-4.4618,-4.4618,-4.4618,-4.4568,-4.4192,-4.3991,-4.394,-4.3564,-4.3363,-4.3338,-4.3338,-4.3288,-4.3187,-4.3162,-4.3112,-4.2986,-4.2986,-4.2986,-4.2961,-4.2559,-4.2283,-4.2133,-4.1354,-4.0827,-4.0701,-4.03,-4.0282,-4.0875,-4.0875,-4.108,-4.1589,-4.169,-4.2176,-4.3332,-4.472,-4.5958,-4.6899,-4.7138,-4.7387,-4.7891,-4.813,-4.8072,-4.784,-4.7898,-4.7985,-4.8014,-4.8159,-4.8486,-4.9238,-4.961,-4.9976,-5.0704,-5.1011,-5.1229,-5.1229,-5.1229,-5.1323,-5.1602,-5.1787,-5.2094,-5.2306,-5.2608,-5.2729,-5.2698,-5.2518,-5.2215,-5.1849,-5.1665,-5.1479,-5.1293,-5.1199,-5.1416,-5.188,-5.2002,-5.2185,-5.2518,-5.2608,-5.2819,-5.3055,-5.3321,-5.364,-5.4157,-5.4613,-5.5063,-5.5637,-5.5977,-5.6643,-5.7884,-5.8937,-5.9811,-4.8234,-4.8611,-4.8812,-4.9088,-4.9339,-4.8962,-4.8435,-4.7807,-4.7355,-4.6828,-4.6376,-4.6326,-4.6326,-4.6326,-4.6326,-4.6326,-4.6326,-4.625,-4.6225,-4.6225,-4.6175,-4.5899,-4.5447,-4.5422,-4.5146,-4.4719,-4.4694,-4.4719,-4.4719,-4.4618,-4.4543,-4.4543,-4.4493,-4.4418,-4.4443,-4.4443,-4.4217,-4.374,-4.3714,-4.3489,-4.3011,-4.2986,-4.2986,-4.2986,-4.2936,-4.266,-4.2208,-4.2057,-4.1756,-4.1329,-4.1204,-4.1367,-4.1898,-4.2003,-4.2213,-4.2736,-4.284,-4.3306,-4.4327,-4.5139,-4.6014,-4.6928,-4.7566,-4.8075,-4.8586,-4.9146,-4.9001,-4.8217,-4.8333,-4.8624,-4.8682,-4.9117,-4.9504,-4.9852,-5.0132,-5.0508,-5.0793,-5.1011,-5.1229,-5.1229,-5.1229,-5.1323,-5.1572,-5.188,-5.2155,-5.2518,-5.2608,-5.2729,-5.2729,-5.2608,-5.2518,-5.2215,-5.1941,-5.1572,-5.1479,-5.1293,-5.1416,-5.1572,-5.188,-5.2063,-5.2337,-5.2608,-5.2788,-5.2997,-5.3233,-5.3584,-5.4017,-5.4444,-5.4896,-5.5536,-5.6254,-5.7299,-5.8807,-5.9564,-5.9812,-4.8837,-4.8812,-4.9113,-4.9389,-4.954,-4.9339,-4.8937,-4.8385,-4.7832,-4.7305,-4.6778,-4.6451,-4.6326,-4.6326,-4.6326,-4.6326,-4.6326,-4.6326,-4.6326,-4.6326,-4.6326,-4.6175,-4.5999,-4.5974,-4.5824,-4.5648,-4.5623,-4.5623,-4.5573,-4.5296,-4.497,-4.4644,-4.4618,-4.4618,-4.4618,-4.4618,-4.4493,-4.4292,-4.4292,-4.4016,-4.3489,-4.3137,-4.2986,-4.2986,-4.2986,-4.2886,-4.2635,-4.2333,-4.2057,-4.1831,-4.153,-4.1544,-4.2182,-4.2182,-4.2394,-4.2945,-4.3651,-4.4433,-4.5356,-4.6146,-4.7047,-4.804,-4.8366,-4.8706,-4.9194,-4.9524,-4.9436,-4.9059,-4.9146,-4.9291,-4.9291,-4.9524,-4.9766,-5.0086,-5.0279,-5.0567,-5.0822,-5.1011,-5.1229,-5.1229,-5.1229,-5.1293,-5.1572,-5.1972,-5.2215,-5.2487,-5.2608,-5.2698,-5.2729,-5.2729,-5.2608,-5.2518,-5.2155,-5.1787,-5.1602,-5.1416,-5.1323,-5.1572,-5.1787,-5.2094,-5.2246,-5.2518,-5.2698,-5.2877,-5.3055,-5.3409,-5.3726,-5.4134,-5.4624,-5.5493,-5.6945,-5.819,-5.9282,-5.9825,-6.0139,-4.9364,-4.9088,-4.9439,-4.959,-4.959,-4.959,-4.9289,-4.8761,-4.8335,-4.7832,-4.7305,-4.6778,-4.6527,-4.6527,-4.6376,-4.6326,-4.6326,-4.6326,-4.6326,-4.6326,-4.6326,-4.6301,-4.6326,-4.6326,-4.6326,-4.6326,-4.6276,-4.6301,-4.6276,-4.5924,-4.5497,-4.5146,-4.5095,-4.5095,-4.5095,-4.507,-4.502,-4.4869,-4.4844,-4.4593,-4.4041,-4.3639,-4.3288,-4.3011,-4.2986,-4.2986,-4.2961,-4.2585,-4.2384,-4.2359,-4.2007,-4.1998,-4.2644,-4.2644,-4.2964,-4.3625,-4.4388,-4.5361,-4.6189,-4.6936,-4.7801,-4.8681,-4.8881,-4.9108,-4.9571,-4.9698,-4.9698,-4.964,-4.9698,-4.9669,-4.9698,-4.9698,-4.9795,-5.0086,-5.0309,-5.0567,-5.0822,-5.1011,-5.1229,-5.1229,-5.1229,-5.1323,-5.1572,-5.1849,-5.2124,-5.2306,-5.2518,-5.2608,-5.2698,-5.2608,-5.2608,-5.2518,-5.2155,-5.188,-5.1695,-5.1416,-5.1416,-5.1509,-5.1695,-5.1972,-5.2124,-5.2427,-5.2698,-5.2698,-5.2966,-5.333,-5.3871,-5.4135,-5.4853,-5.6198,-5.7441,-5.8561,-5.9317,-5.9826,-6.0226,-4.9565,-4.9565,-4.959,-4.959,-4.959,-4.959,-4.9289,-4.8837,-4.8736,-4.8385,-4.7857,-4.733,-4.7104,-4.7054,-4.6602,-4.6326,-4.6326,-4.6326,-4.6326,-4.6326,-4.6326,-4.6326,-4.6326,-4.6326,-4.6326,-4.6326,-4.6326,-4.6326,-4.6326,-4.6276,-4.6276,-4.62,-4.615,-4.6175,-4.615,-4.6125,-4.5949,-4.5497,-4.5447,-4.5171,-4.4669,-4.4543,-4.4041,-4.3187,-4.3011,-4.3011,-4.2986,-4.2961,-4.2911,-4.2936,-4.2861,-4.3083,-4.3661,-4.3771,-4.4183,-4.4941,-4.5395,-4.598,-4.6687,-4.7157,-4.7829,-4.8738,-4.8966,-4.9136,-4.9774,-4.9872,-4.9872,-4.9756,-4.9843,-4.9814,-4.9814,-4.9756,-4.9766,-5.0086,-5.0309,-5.0626,-5.0852,-5.119,-5.1259,-5.1319,-5.1349,-5.1383,-5.1602,-5.1572,-5.1849,-5.2124,-5.2306,-5.2397,-5.2518,-5.2427,-5.2306,-5.2215,-5.1972,-5.1695,-5.191,-5.1509,-5.1229,-5.1293,-5.1509,-5.1695,-5.1972,-5.2155,-5.2427,-5.2639,-5.3001,-5.3427,-5.401,-5.4804,-5.5809,-5.6765,-5.7452,-5.8382,-5.9208,-5.9555,-5.9892,-4.959,-4.959,-4.959,-4.959,-4.959,-4.959,-4.949,-4.9264,-4.8912,-4.8661,-4.8385,-4.7883,-4.7631,-4.7606,-4.7079,-4.6652,-4.6326,-4.6326,-4.6326,-4.6326,-4.6326,-4.6326,-4.6326,-4.6326,-4.6326,-4.6326,-4.6326,-4.6326,-4.6326,-4.6326,-4.6326,-4.6326,-4.6326,-4.6326,-4.6326,-4.6326,-4.62,-4.605,-4.6024,-4.5748,-4.5221,-4.5171,-4.4794,-4.4066,-4.3689,-4.3338,-4.2986,-4.2986,-4.2986,-4.2986,-4.2986,-4.3321,-4.3899,-4.4203,-4.4748,-4.5395,-4.5609,-4.6034,-4.7005,-4.7184,-4.7996,-4.938,-4.9509,-4.9882,-5.073,-5.0917,-5.0917,-5.0917,-5.0917,-5.0917,-5.0743,-5.0191,-4.9795,-4.9922,-5.0661,-5.1216,-5.1372,-5.1899,-5.2456,-5.2426,-5.2127,-5.1708,-5.1503,-5.1509,-5.1665,-5.1849,-5.1941,-5.2155,-5.2185,-5.2155,-5.2063,-5.2063,-5.1849,-5.1665,-5.1695,-5.1416,-5.1229,-5.1323,-5.1416,-5.1572,-5.1757,-5.2033,-5.2306,-5.2611,-5.3006,-5.3588,-5.4264,-5.5345,-5.6392,-5.7037,-5.7725,-5.8255,-5.912,-5.9241,-5.9508,-4.959,-4.959,-4.959,-4.959,-4.959,-4.959,-4.959,-4.9565,-4.9188,-4.9038,-4.8937,-4.8435,-4.8184,-4.8109,-4.7606,-4.7104,-4.6577,-4.6401,-4.6326,-4.6326,-4.6326,-4.6326,-4.6326,-4.6326,-4.6326,-4.6326,-4.6326,-4.6326,-4.6326,-4.6326,-4.6326,-4.6326,-4.6326,-4.6326,-4.6326,-4.6326,-4.6326,-4.6326,-4.6326,-4.6125,-4.5799,-4.5748,-4.5497,-4.4945,-4.4543,-4.3991,-4.3288,-4.3237,-4.3137,-4.3011,-4.3098,-4.3432,-4.3984,-4.4422,-4.4938,-4.5502,-4.5902,-4.6515,-4.7411,-4.7965,-4.8817,-5.0007,-5.0268,-5.0672,-5.1483,-5.1643,-5.1643,-5.1643,-5.1643,-5.1643,-5.1468,-5.0801,-5.0307,-5.0435,-5.1209,-5.1768,-5.1798,-5.2613,-5.3084,-5.3054,-5.2755,-5.2336,-5.1977,-5.2077,-5.2081,-5.1964,-5.212,-5.2183,-5.2063,-5.191,-5.188,-5.191,-5.1602,-5.1509,-5.1509,-5.1323,-5.1229,-5.1229,-5.1323,-5.1386,-5.1663,-5.2002,-5.2307,-5.2673,-5.3193,-5.3837,-5.4792,-5.5845,-5.6621,-5.7149,-5.7585,-5.7993,-5.8487,-5.876,-5.9062,-4.9615,-4.959,-4.959,-4.959,-4.959,-4.959,-4.959,-4.959,-4.9565,-4.9515,-4.9414,-4.8987,-4.8761,-4.8661,-4.8184,-4.7631,-4.7205,-4.6728,-4.6426,-4.6326,-4.6326,-4.6326,-4.6326,-4.6326,-4.6326,-4.6326,-4.6326,-4.6326,-4.6326,-4.6326,-4.6326,-4.6326,-4.6326,-4.6326,-4.6326,-4.6326,-4.6326,-4.6326,-4.6326,-4.6301,-4.6301,-4.625,-4.5999,-4.5547,-4.5447,-4.4945,-4.389,-4.3815,-4.3589,-4.3162,-4.3397,-4.3653,-4.4358,-4.4661,-4.5043,-4.5714,-4.6518,-4.7296,-4.8149,-4.9225,-5.0001,-5.0691,-5.1001,-5.1366,-5.1744,-5.1846,-5.1817,-5.1875,-5.1817,-5.1759,-5.1788,-5.1701,-5.1556,-5.1614,-5.1959,-5.2347,-5.2546,-5.294,-5.3204,-5.3264,-5.3204,-5.3174,-5.3144,-5.3061,-5.2822,-5.2653,-5.2597,-5.254,-5.2211,-5.1967,-5.1663,-5.1632,-5.1446,-5.1323,-5.1229,-5.1229,-5.1229,-5.1259,-5.1229,-5.1323,-5.172,-5.1967,-5.2486,-5.2915,-5.3621,-5.4297,-5.5503,-5.6464,-5.6776,-5.7277,-5.7559,-5.7684,-5.8026,-5.8303,-5.861,-4.9941,-4.9615,-4.959,-4.959,-4.959,-4.959,-4.959,-4.959,-4.959,-4.959,-4.9565,-4.9414,-4.9339,-4.9213,-4.8761,-4.841,-4.8209,-4.7657,-4.7029,-4.6426,-4.6326,-4.6351,-4.6326,-4.6326,-4.6326,-4.6326,-4.6326,-4.6326,-4.6326,-4.6326,-4.6326,-4.6326,-4.6326,-4.6326,-4.6326,-4.6326,-4.6326,-4.6326,-4.6326,-4.6326,-4.6326,-4.6326,-4.6225,-4.6075,-4.605,-4.5698,-4.4995,-4.4568,-4.4292,-4.4091,-4.4459,-4.4775,-4.5339,-4.5813,-4.6257,-4.6834,-4.7269,-4.7948,-4.8728,-4.9532,-5.0501,-5.1204,-5.1765,-5.2203,-5.2758,-5.2891,-5.2862,-5.2891,-5.292,-5.292,-5.292,-5.292,-5.2543,-5.173,-5.2325,-5.2893,-5.3225,-5.3952,-5.4311,-5.3982,-5.3892,-5.3713,-5.3324,-5.3234,-5.3301,-5.3061,-5.3002,-5.2948,-5.2738,-5.2287,-5.2012,-5.1982,-5.1618,-5.1409,-5.1528,-5.1648,-5.1708,-5.1678,-5.1588,-5.1648,-5.1892,-5.2231,-5.2752,-5.3395,-5.4104,-5.4969,-5.6084,-5.6676,-5.6957,-5.7115,-5.718,-5.737,-5.7684,-5.7871,-5.815,-5.0218,-4.9891,-4.969,-4.959,-4.959,-4.959,-4.959,-4.959,-4.959,-4.959,-4.959,-4.959,-4.959,-4.9515,-4.9213,-4.8962,-4.8736,-4.8385,-4.7757,-4.7004,-4.6903,-4.6803,-4.6602,-4.6376,-4.6326,-4.6326,-4.6326,-4.6326,-4.6326,-4.6326,-4.6326,-4.6326,-4.6326,-4.6326,-4.6326,-4.6326,-4.6326,-4.6326,-4.6326,-4.6326,-4.6326,-4.6326,-4.6326,-4.6301,-4.6301,-4.6125,-4.5773,-4.5422,-4.5045,-4.4719,-4.4965,-4.5565,-4.6108,-4.6447,-4.6922,-4.7393,-4.8107,-4.8763,-4.9442,-5.0444,-5.1307,-5.1995,-5.2397,-5.2856,-5.3413,-5.35,-5.35,-5.35,-5.3471,-5.35,-5.35,-5.35,-5.3123,-5.2455,-5.2894,-5.3437,-5.3904,-5.4637,-5.4999,-5.467,-5.4581,-5.4341,-5.4072,-5.3922,-5.3803,-5.3653,-5.3563,-5.3384,-5.3234,-5.2815,-5.2665,-5.2516,-5.2366,-5.2187,-5.2037,-5.2097,-5.2187,-5.2127,-5.2067,-5.2217,-5.2492,-5.2642,-5.3074,-5.3929,-5.4734,-5.5196,-5.6286,-5.6445,-5.6664,-5.6827,-5.6892,-5.7115,-5.7306,-5.7495,-5.7684,-5.0444,-5.0343,-4.9866,-4.964,-4.9615,-4.959,-4.959,-4.959,-4.959,-4.959,-4.959,-4.959,-4.959,-4.959,-4.9515,-4.9289,-4.8887,-4.8837,-4.856,-4.8134,-4.7983,-4.7757,-4.7179,-4.6778,-4.6602,-4.6552,-4.6527,-4.6502,-4.6577,-4.6577,-4.6376,-4.6426,-4.6451,-4.6351,-4.6326,-4.6326,-4.6326,-4.6326,-4.6326,-4.6326,-4.6326,-4.6326,-4.6326,-4.6326,-4.6301,-4.6276,-4.6225,-4.615,-4.5723,-4.5011,-4.5566,-4.6051,-4.6517,-4.6915,-4.7245,-4.766,-4.8897,-4.9556,-5.027,-5.1525,-5.2509,-5.2566,-5.3097,-5.35,-5.35,-5.35,-5.35,-5.35,-5.35,-5.35,-5.35,-5.35,-5.3442,-5.35,-5.3669,-5.4142,-5.4671,-5.4976,-5.5119,-5.5149,-5.5179,-5.5149,-5.4999,-5.4999,-5.476,-5.4431,-5.4251,-5.4012,-5.3683,-5.3473,-5.3294,-5.3144,-5.3025,-5.2785,-5.2576,-5.2576,-5.2725,-5.2995,-5.2875,-5.2965,-5.3174,-5.3421,-5.3729,-5.4556,-5.5145,-5.5637,-5.6047,-5.6274,-5.647,-5.6567,-5.673,-5.6827,-5.7019,-5.7115,-5.7337,-5.0795,-5.0419,-5.0268,-4.9967,-4.964,-4.959,-4.959,-4.959,-4.959,-4.959,-4.959,-4.959,-4.959,-4.959,-4.959,-4.9515,-4.9364,-4.9364,-4.9339,-4.9188,-4.9163,-4.8586,-4.7857,-4.7556,-4.7456,-4.7431,-4.738,-4.7481,-4.7506,-4.7405,-4.7255,-4.6928,-4.6903,-4.6702,-4.6376,-4.6376,-4.6326,-4.6326,-4.6326,-4.6351,-4.6326,-4.6326,-4.6326,-4.6326,-4.6326,-4.6326,-4.6301,-4.6566,-4.6704,-4.6611,-4.6652,-4.703,-4.7649,-4.8021,-4.8338,-4.8706,-4.963,-5.0325,-5.0906,-5.192,-5.268,-5.2787,-5.3184,-5.35,-5.35,-5.35,-5.35,-5.35,-5.35,-5.35,-5.35,-5.35,-5.35,-5.35,-5.3919,-5.42,-5.4436,-5.4845,-5.5209,-5.5209,-5.5209,-5.5209,-5.5209,-5.5179,-5.5119,-5.494,-5.485,-5.482,-5.4401,-5.4132,-5.3922,-5.3743,-5.3563,-5.3294,-5.3114,-5.3114,-5.3294,-5.3773,-5.3832,-5.3832,-5.4042,-5.4281,-5.475,-5.537,-5.528,-5.562,-5.5849,-5.6077,-5.6176,-5.6274,-5.647,-5.6567,-5.6761,-5.6954,-5.7112,-5.1172,-5.0419,-5.0419,-5.0092,-4.9615,-4.959,-4.959,-4.959,-4.959,-4.959,-4.959,-4.959,-4.959,-4.959,-4.959,-4.959,-4.959,-4.959,-4.959,-4.959,-4.9565,-4.9063,-4.8385,-4.8083,-4.7908,-4.7908,-4.7933,-4.7908,-4.7883,-4.7908,-4.7732,-4.7506,-4.7456,-4.728,-4.7054,-4.6979,-4.6979,-4.6954,-4.6803,-4.6677,-4.6652,-4.6426,-4.6326,-4.6326,-4.6326,-4.6326,-4.6301,-4.6686,-4.69,-4.7087,-4.7324,-4.7703,-4.8172,-4.8663,-4.901,-4.9328,-5.0123,-5.0795,-5.1348,-5.2221,-5.268,-5.2894,-5.3319,-5.3395,-5.35,-5.35,-5.35,-5.35,-5.35,-5.35,-5.35,-5.35,-5.35,-5.35,-5.3919,-5.42,-5.4304,-5.4743,-5.5078,-5.5209,-5.5209,-5.5209,-5.5209,-5.5209,-5.5209,-5.5179,-5.5119,-5.5119,-5.5059,-5.479,-5.4551,-5.4341,-5.4281,-5.4132,-5.4042,-5.4042,-5.3982,-5.4401,-5.4491,-5.4521,-5.464,-5.491,-5.51,-5.535,-5.5381,-5.5481,-5.5681,-5.578,-5.588,-5.5979,-5.6176,-5.6403,-5.6531,-5.6966,-5.7161,-5.1473,-5.0569,-5.0469,-5.0117,-4.9715,-4.9615,-4.959,-4.959,-4.959,-4.959,-4.959,-4.959,-4.959,-4.959,-4.959,-4.959,-4.959,-4.959,-4.959,-4.959,-4.9565,-4.9264,-4.8887,-4.8485,-4.8284,-4.8259,-4.8109,-4.8184,-4.8284,-4.8209,-4.8083,-4.8033,-4.8008,-4.7933,-4.7732,-4.7782,-4.7883,-4.7707,-4.738,-4.7205,-4.7154,-4.6878,-4.6702,-4.6677,-4.6527,-4.6426,-4.6471,-4.6661,-4.7019,-4.7205,-4.7586,-4.7821,-4.8172,-4.8779,-4.924,-4.967,-5.0348,-5.1128,-5.1787,-5.2329,-5.2787,-5.3001,-5.3319,-5.353,-5.353,-5.3617,-5.3733,-5.3733,-5.3617,-5.3646,-5.35,-5.35,-5.35,-5.35,-5.371,-5.4023,-5.42,-5.4539,-5.4905,-5.5179,-5.5179,-5.5209,-5.5209,-5.5209,-5.5209,-5.5209,-5.5209,-5.5209,-5.5209,-5.5029,-5.497,-5.497,-5.4999,-5.5089,-5.5059,-5.5059,-5.497,-5.5029,-5.497,-5.497,-5.494,-5.5089,-5.5149,-5.528,-5.528,-5.528,-5.528,-5.5381,-5.5611,-5.5771,-5.6061,-5.6229,-5.6488,-5.7098,-5.7442,-5.1574,-5.1649,-5.0795,-5.0343,-5.0193,-4.9791,-4.9615,-4.959,-4.959,-4.959,-4.959,-4.959,-4.959,-4.959,-4.959,-4.959,-4.959,-4.959,-4.959,-4.959,-4.959,-4.9565,-4.9389,-4.9188,-4.9188,-4.9163,-4.9213,-4.9213,-4.9188,-4.9063,-4.9012,-4.8636,-4.856,-4.836,-4.8033,-4.8058,-4.7933,-4.7908,-4.7807,-4.7757,-4.7732,-4.7581,-4.7456,-4.7431,-4.7154,-4.6874,-4.6762,-4.6993,-4.7205,-4.756,-4.7755,-4.8068,-4.8198,-4.8779,-4.924,-4.967,-5.046,-5.1128,-5.1815,-5.2386,-5.2816,-5.3251,-5.3492,-5.35,-5.3559,-5.4052,-5.4255,-5.4284,-5.4284,-5.411,-5.3762,-5.3559,-5.3646,-5.3675,-5.3751,-5.3827,-5.4052,-5.4466,-5.4875,-5.5078,-5.5179,-5.5209,-5.5209,-5.5209,-5.5209,-5.5209,-5.5209,-5.5209,-5.5209,-5.5209,-5.5209,-5.5209,-5.5209,-5.5209,-5.5209,-5.5209,-5.5209,-5.5209,-5.5209,-5.5209,-5.5209,-5.5209,-5.5209,-5.5209,-5.5179,-5.5209,-5.5209,-5.5299,-5.5561,-5.5752,-5.6104,-5.6416,-5.6889,-5.7405,-5.7841,-5.1774,-5.1322,-5.1222,-5.0745,-5.0092,-4.9992,-4.9841,-4.964,-4.959,-4.959,-4.959,-4.959,-4.959,-4.959,-4.959,-4.959,-4.959,-4.959,-4.959,-4.959,-4.959,-4.959,-4.959,-4.959,-4.959,-4.959,-4.959,-4.959,-4.959,-4.959,-4.9414,-4.9188,-4.9138,-4.9038,-4.8736,-4.8661,-4.8736,-4.8686,-4.8435,-4.8309,-4.8284,-4.8033,-4.7908,-4.7883,-4.7631,-4.7478,-4.7643,-4.793,-4.8146,-4.848,-4.8573,-4.8577,-4.8393,-4.8779,-4.9354,-4.9783,-5.046,-5.1516,-5.2343,-5.2921,-5.3468,-5.405,-5.4293,-5.44,-5.4429,-5.4749,-5.4894,-5.4923,-5.4894,-5.4749,-5.4458,-5.44,-5.44,-5.44,-5.44,-5.4507,-5.4709,-5.4716,-5.4671,-5.4976,-5.5078,-5.5179,-5.5209,-5.5359,-5.5299,-5.5329,-5.5299,-5.5269,-5.5209,-5.5209,-5.5209,-5.5209,-5.5209,-5.5209,-5.5209,-5.5209,-5.5209,-5.5209,-5.5209,-5.5209,-5.5209,-5.5209,-5.5209,-5.5239,-5.5329,-5.5209,-5.5209,-5.5359,-5.5658,-5.5939,-5.6414,-5.6817,-5.7281,-5.7837,-5.8213,-5.2026,-5.087,-5.1649,-5.1147,-5.0042,-5.0243,-5.0067,-4.964,-4.959,-4.959,-4.959,-4.959,-4.959,-4.959,-4.959,-4.959,-4.959,-4.959,-4.959,-4.959,-4.959,-4.959,-4.959,-4.959,-4.959,-4.959,-4.959,-4.959,-4.959,-4.959,-4.9565,-4.9565,-4.959,-4.9464,-4.954,-4.959,-4.9464,-4.9364,-4.9063,-4.8887,-4.8862,-4.8485,-4.8284,-4.8109,-4.8208,-4.8207,-4.8451,-4.8769,-4.9064,-4.9507,-4.975,-4.9348,-4.9009,-4.9044,-4.9737,-5.0335,-5.1011,-5.21,-5.3323,-5.3766,-5.4185,-5.5278,-5.5358,-5.5358,-5.5329,-5.5445,-5.5562,-5.5562,-5.5533,-5.5474,-5.5416,-5.5213,-5.5271,-5.53,-5.5358,-5.5496,-5.5537,-5.5008,-5.4968,-5.5218,-5.5705,-5.5867,-5.5777,-5.5807,-5.5598,-5.5478,-5.5448,-5.5448,-5.5418,-5.5359,-5.5448,-5.5329,-5.5329,-5.5209,-5.5209,-5.5269,-5.5269,-5.5388,-5.5329,-5.5448,-5.5478,-5.5748,-5.5837,-5.5508,-5.5478,-5.5448,-5.5658,-5.6047,-5.6286,-5.6406,-5.6809,-5.7363,-5.7828,-5.8189,-5.858,-5.2352,-5.2452,-5.1724,-5.1247,-5.0946,-5.0619,-5.0167,-4.964,-4.964,-4.959,-4.959,-4.959,-4.959,-4.959,-4.959,-4.959,-4.959,-4.959,-4.959,-4.959,-4.959,-4.959,-4.959,-4.959,-4.959,-4.959,-4.959,-4.959,-4.959,-4.959,-4.959,-4.959,-4.959,-4.959,-4.959,-4.959,-4.959,-4.959,-4.9439,-4.9389,-4.9314,-4.9213,-4.8962,-4.8787,-4.8888,-4.8937,-4.8953,-4.9193,-4.9507,-4.975,-4.9897,-4.9939,-5.0168,-5.0445,-5.1008,-5.1571,-5.2003,-5.2854,-5.4116,-5.4394,-5.4754,-5.5169,-5.5533,-5.5503,-5.562,-5.591,-5.62,-5.6229,-5.6171,-5.6055,-5.5445,-5.5591,-5.5474,-5.5445,-5.5533,-5.5562,-5.5583,-5.5596,-5.5848,-5.6301,-5.6586,-5.6615,-5.6436,-5.6346,-5.6346,-5.6286,-5.6316,-5.6346,-5.6346,-5.6166,-5.6017,-5.5807,-5.5508,-5.5359,-5.5209,-5.5299,-5.5388,-5.5628,-5.5748,-5.6017,-5.6166,-5.6585,-5.6615,-5.6346,-5.6166,-5.6166,-5.6436,-5.6765,-5.6915,-5.7004,-5.7453,-5.7932,-5.8248,-5.8594,-5.8834,-5.2528,-5.2477,-5.2201,-5.18,-5.1348,-5.1322,-5.0795,-5.0067,-5.0017,-4.9841,-4.9665,-4.959,-4.959,-4.959,-4.959,-4.959,-4.959,-4.959,-4.959,-4.959,-4.959,-4.959,-4.959,-4.959,-4.959,-4.959,-4.959,-4.959,-4.959,-4.959,-4.959,-4.959,-4.959,-4.959,-4.959,-4.959,-4.959,-4.959,-4.959,-4.959,-4.959,-4.959,-4.9517,-4.9544,-4.9698,-4.9824,-5.0146,-5.0168,-5.0416,-5.0663,-5.0786,-5.1031,-5.1493,-5.1803,-5.2095,-5.2342,-5.2669,-5.3469,-5.4713,-5.5023,-5.5501,-5.6263,-5.6345,-5.6403,-5.6432,-5.6694,-5.6839,-5.6868,-5.6868,-5.6752,-5.6461,-5.6345,-5.6374,-5.6374,-5.6345,-5.6316,-5.6345,-5.6566,-5.6975,-5.7183,-5.7001,-5.6914,-5.6974,-5.6944,-5.7064,-5.7094,-5.7154,-5.7184,-5.7244,-5.6944,-5.6645,-5.6406,-5.6166,-5.6077,-5.5897,-5.5867,-5.5867,-5.6017,-5.6286,-5.6555,-5.6765,-5.7094,-5.7334,-5.7304,-5.7154,-5.6974,-5.7004,-5.7244,-5.7423,-5.7663,-5.8141,-5.853,-5.868,-5.886,-5.9117,-5.2678,-5.2302,-5.2754,-5.2352,-5.1599,-5.19,-5.1523,-5.072,-5.0594,-5.0293,-4.9816,-4.9766,-4.9715,-4.9615,-4.959,-4.959,-4.959,-4.959,-4.959,-4.959,-4.959,-4.959,-4.959,-4.959,-4.959,-4.959,-4.959,-4.959,-4.959,-4.959,-4.959,-4.959,-4.959,-4.959,-4.959,-4.959,-4.959,-4.959,-4.959,-4.959,-4.959,-4.959,-4.9719,-5.0129,-5.0104,-5.0461,-5.0865,-5.109,-5.1216,-5.1465,-5.1642,-5.1917,-5.2465,-5.2983,-5.3037,-5.2842,-5.2972,-5.4058,-5.514,-5.5651,-5.6049,-5.693,-5.7245,-5.7274,-5.7245,-5.7158,-5.7274,-5.7303,-5.7274,-5.7245,-5.7129,-5.7245,-5.7245,-5.7216,-5.7187,-5.7274,-5.7158,-5.7324,-5.7488,-5.7525,-5.7183,-5.7327,-5.7647,-5.7812,-5.7962,-5.7962,-5.8022,-5.7962,-5.7962,-5.7573,-5.7274,-5.7064,-5.6915,-5.6885,-5.6795,-5.6705,-5.6675,-5.6645,-5.6974,-5.7274,-5.7393,-5.7543,-5.7782,-5.8082,-5.7992,-5.7812,-5.7782,-5.7812,-5.8112,-5.8441,-5.883,-5.9009,-5.8949,-5.8979,-5.9069,-5.2879,-5.2829,-5.2904,-5.2578,-5.2076,-5.2101,-5.1774,-5.1222,-5.1172,-5.0845,-5.0343,-5.0293,-5.0067,-4.9715,-4.9615,-4.959,-4.959,-4.959,-4.959,-4.959,-4.959,-4.959,-4.959,-4.959,-4.959,-4.959,-4.959,-4.959,-4.959,-4.959,-4.959,-4.959,-4.959,-4.959,-4.959,-4.959,-4.959,-4.959,-4.959,-4.959,-4.959,-4.959,-4.9873,-5.0104,-5.0359,-5.0741,-5.112,-5.1372,-5.1596,-5.1596,-5.1846,-5.2218,-5.2588,-5.32,-5.3833,-5.4149,-5.4713,-5.5182,-5.5993,-5.6194,-5.6422,-5.7162,-5.7303,-5.7303,-5.7303,-5.7303,-5.7303,-5.7303,-5.7303,-5.7303,-5.7303,-5.7303,-5.7303,-5.7303,-5.7303,-5.7303,-5.7303,-5.7416,-5.764,-5.7863,-5.7605,-5.808,-5.8602,-5.8692,-5.889,-5.889,-5.886,-5.874,-5.862,-5.8201,-5.7932,-5.7752,-5.7663,-5.7663,-5.7693,-5.7603,-5.7543,-5.7423,-5.7663,-5.7992,-5.8052,-5.8201,-5.856,-5.877,-5.865,-5.856,-5.853,-5.862,-5.889,-5.8979,-5.9039,-5.9069,-5.9099,-5.9099,-5.9099,-5.2929,-5.2929,-5.2929,-5.2804,-5.2578,-5.2578,-5.2251,-5.1825,-5.1749,-5.1423,-5.0971,-5.0896,-5.0594,-5.0117,-4.9766,-4.959,-4.959,-4.9615,-4.959,-4.9615,-4.9615,-4.959,-4.959,-4.959,-4.959,-4.959,-4.959,-4.959,-4.959,-4.959,-4.959,-4.959,-4.959,-4.959,-4.959,-4.959,-4.959,-4.959,-4.959,-4.959,-4.959,-4.9719,-4.9976,-5.0359,-5.0741,-5.0994,-5.1372,-5.1497,-5.1596,-5.1596,-5.1872,-5.2218,-5.2711,-5.3322,-5.4074,-5.446,-5.5026,-5.5584,-5.6279,-5.6394,-5.6737,-5.7078,-5.7303,-5.7303,-5.7303,-5.7303,-5.7303,-5.7303,-5.7303,-5.7303,-5.7303,-5.7303,-5.7303,-5.7303,-5.7303,-5.7303,-5.7303,-5.7303,-5.7416,-5.7751,-5.7974,-5.8445,-5.8773,-5.8961,-5.8931,-5.9009,-5.8979,-5.8949,-5.8919,-5.88,-5.859,-5.8471,-5.8411,-5.8411,-5.8471,-5.8471,-5.8441,-5.8381,-5.8381,-5.865,-5.871,-5.8919,-5.9069,-5.9099,-5.8949,-5.8949,-5.9099,-5.9099,-5.9039,-5.9069,-5.9099,-5.9099,-5.9099,-5.9099,-5.9099,-5.2929,-5.2929,-5.2929,-5.2929,-5.2929,-5.2929,-5.2678,-5.2327,-5.2302,-5.2,-5.1548,-5.1348,-5.0996,-5.0645,-5.0268,-5.0142,-5.0067,-4.9866,-4.9816,-4.9791,-4.9665,-4.959,-4.959,-4.959,-4.959,-4.9615,-4.959,-4.959,-4.959,-4.959,-4.959,-4.959,-4.959,-4.959,-4.959,-4.959,-4.959,-4.959,-4.959,-4.959,-4.959,-4.9976,-5.0232,-5.0614,-5.0994,-5.1246,-5.1596,-5.1596,-5.1596,-5.1721,-5.1996,-5.2368,-5.2711,-5.3592,-5.4221,-5.4726,-5.5172,-5.5729,-5.6164,-5.6394,-5.6737,-5.7078,-5.7303,-5.7303,-5.7303,-5.7303,-5.7303,-5.7303,-5.7303,-5.7303,-5.7303,-5.7303,-5.7303,-5.7303,-5.7303,-5.7303,-5.7303,-5.7303,-5.7303,-5.7528,-5.7863,-5.8114,-5.8555,-5.8773,-5.8991,-5.9099,-5.9099,-5.9099,-5.9099,-5.9099,-5.9009,-5.88,-5.88,-5.88,-5.886,-5.8979,-5.9069,-5.9099,-5.9099,-5.9099,-5.9009,-5.9009,-5.9099,-5.9099,-5.9099,-5.9099,-5.9099,-5.9099,-5.9099,-5.9099,-5.9099,-5.9099,-5.9099,-5.9099,-5.9099,-5.2929,-5.2929,-5.2929,-5.2929,-5.2929,-5.2929,-5.2904,-5.2804,-5.2829,-5.2528,-5.2026,-5.1574,-5.1322,-5.1172,-5.1071,-5.0996,-5.1071,-5.0594,-5.0419,-5.0193,-4.9916,-4.9816,-4.9816,-4.9841,-4.9741,-4.9741,-4.9841,-4.9816,-4.964,-4.9766,-4.969,-4.959,-4.964,-4.9615,-4.959,-4.959,-4.959,-4.959,-4.959,-4.959,-4.9719,-4.9976,-5.0232,-5.0588,-5.0968,-5.1246,-5.1596,-5.1596,-5.1596,-5.1596,-5.2218,-5.2492,-5.2861,-5.3713,-5.4341,-5.4699,-5.5054,-5.5729,-5.6193,-5.6394,-5.6737,-5.7078,-5.7303,-5.7303,-5.7303,-5.7303,-5.7303,-5.7303,-5.7303,-5.7303,-5.7303,-5.7303,-5.7303,-5.7303,-5.7303,-5.7303,-5.7303,-5.7303,-5.7303,-5.7416,-5.764,-5.8003,-5.8335,-5.8664,-5.8882,-5.9099,-5.9099,-5.9099,-5.9099,-5.9099,-5.9099,-5.9039,-5.9039,-5.9039,-5.9039,-5.9099,-5.9099,-5.9099,-5.9099,-5.9099,-5.9099,-5.9099,-5.9099,-5.9099,-5.9099,-5.9099,-5.9099,-5.9099,-5.9099,-5.9099,-5.9099,-5.9099,-5.9099,-5.9099,-5.9099,-5.2929,-5.2929,-5.2929,-5.2929,-5.2929,-5.2929,-5.2929,-5.2929,-5.2929,-5.2829,-5.2553,-5.2051,-5.18,-5.1724,-5.1398,-5.1272,-5.1247,-5.1071,-5.0971,-5.0896,-5.072,-5.0645,-5.0645,-5.0569,-5.0645,-5.0594,-5.0594,-5.0645,-5.067,-5.0268,-5.0117,-5.0042,-4.9816,-4.964,-4.959,-4.959,-4.959,-4.959,-4.959,-4.959,-4.9744,-4.9976,-5.0232,-5.0588,-5.0994,-5.122,-5.1596,-5.1596,-5.1596,-5.1721,-5.2218,-5.2465,-5.2711,-5.3713,-5.4341,-5.458,-5.5054,-5.5496,-5.6077,-5.6308,-5.6623,-5.7191,-5.7303,-5.7303,-5.7303,-5.7303,-5.7303,-5.7303,-5.7303,-5.7303,-5.7303,-5.7303,-5.7303,-5.7303,-5.7303,-5.7303,-5.7303,-5.7303,-5.7303,-5.7303,-5.764,-5.7892,-5.8225,-5.8555,-5.8773,-5.8991,-5.9099,-5.9099,-5.9099,-5.9099,-5.9099,-5.9099,-5.9099,-5.9099,-5.9099,-5.9099,-5.9099,-5.9099,-5.9099,-5.9099,-5.9099,-5.9099,-5.9099,-5.9099,-5.9099,-5.9099,-5.9099,-5.9099,-5.9099,-5.9099,-5.9099,-5.9099,-5.9099,-5.9099,-5.9189,-5.2929,-5.2929,-5.2929,-5.2929,-5.2929,-5.2929,-5.2929,-5.2929,-5.2929,-5.2929,-5.2904,-5.2503,-5.2352,-5.2226,-5.2026,-5.1825,-5.1825,-5.1649,-5.1548,-5.1423,-5.1322,-5.1322,-5.1272,-5.1222,-5.1122,-5.1272,-5.1272,-5.1222,-5.1147,-5.0845,-5.072,-5.0519,-5.0142,-4.9866,-4.959,-4.959,-4.959,-4.959,-4.959,-4.959,-4.9615,-4.9976,-5.0232,-5.0588,-5.0867,-5.122,-5.1471,-5.1596,-5.1596,-5.1721,-5.2094,-5.2465,-5.2834,-5.3349,-5.4074,-5.458,-5.4936,-5.5261,-5.5845,-5.6423,-5.6737,-5.7191,-5.7303,-5.7303,-5.7303,-5.7303,-5.7303,-5.7303,-5.7303,-5.7303,-5.7303,-5.7303,-5.7303,-5.7303,-5.7303,-5.7303,-5.7303,-5.7303,-5.7303,-5.7303,-5.7528,-5.7781,-5.8114,-5.8445,-5.8773,-5.8991,-5.9099,-5.9099,-5.9099,-5.9099,-5.9099,-5.9099,-5.9099,-5.9099,-5.9099,-5.9099,-5.9099,-5.9099,-5.9099,-5.9099,-5.9099,-5.9099,-5.9099,-5.9099,-5.9099,-5.9099,-5.9099,-5.9129,-5.9099,-5.9099,-5.9099,-5.9099,-5.9099,-5.9129,-5.9338,-5.2929,-5.2929,-5.2929,-5.2929,-5.2929,-5.2929,-5.2929,-5.2929,-5.2929,-5.2929,-5.2929,-5.2829,-5.2829,-5.2804,-5.2653,-5.2628,-5.2553,-5.2251,-5.2076,-5.2,-5.1774,-5.1448,-5.1423,-5.1498,-5.1624,-5.1348,-5.1473,-5.1574,-5.1448,-5.1322,-5.1272,-5.1046,-5.0619,-5.0042,-4.964,-4.959,-4.959,-4.959,-4.959,-4.959,-4.959,-4.9847,-5.0232,-5.0487,-5.0867,-5.1094,-5.1471,-5.1596,-5.1596,-5.1721,-5.1996,-5.2245,-5.2615,-5.3227,-5.3861,-5.446,-5.4817,-5.5261,-5.599,-5.6537,-5.688,-5.7191,-5.7191,-5.7303,-5.7303,-5.7303,-5.7303,-5.7303,-5.7303,-5.7303,-5.7303,-5.7303,-5.7303,-5.7303,-5.7303,-5.7303,-5.7303,-5.7303,-5.7303,-5.7303,-5.7303,-5.7445,-5.7892,-5.8335,-5.8664,-5.8991,-5.9099,-5.9099,-5.9099,-5.9099,-5.9099,-5.9099,-5.9099,-5.9099,-5.9099,-5.9099,-5.9099,-5.9099,-5.9099,-5.9099,-5.9099,-5.9099,-5.9099,-5.9129,-5.9099,-5.9099,-5.9129,-5.9129,-5.9279,-5.9398,-5.9159,-5.9099,-5.9099,-5.9279,-5.9578,-5.2929,-5.2929,-5.2929,-5.2929,-5.2929,-5.2929,-5.2929,-5.2929,-5.2929,-5.2929,-5.2929,-5.2929,-5.2929,-5.2929,-5.2929,-5.2929,-5.2879,-5.2854,-5.2653,-5.2603,-5.2352,-5.2427,-5.2327,-5.2251,-5.2302,-5.2377,-5.2352,-5.2277,-5.2402,-5.2026,-5.185,-5.1649,-5.0921,-5.0167,-4.9741,-4.959,-4.959,-4.959,-4.959,-4.959,-4.959,-4.9719,-4.9976,-5.0232,-5.0614,-5.0994,-5.122,-5.1471,-5.1596,-5.1596,-5.1846,-5.2121,-5.2368,-5.2861,-5.3498,-5.3981,-5.446,-5.5172,-5.5757,-5.6193,-5.6537,-5.688,-5.7191,-5.7303,-5.7303,-5.7303,-5.7303,-5.739,-5.7477,-5.7448,-5.7303,-5.7332,-5.7332,-5.7303,-5.7303,-5.7303,-5.7303,-5.7303,-5.7303,-5.7303,-5.7303,-5.7557,-5.7781,-5.8114,-5.8555,-5.8882,-5.8991,-5.9099,-5.9099,-5.9099,-5.9099,-5.9099,-5.9099,-5.9099,-5.9099,-5.9099,-5.9099,-5.9099,-5.9099,-5.9099,-5.9099,-5.9099,-5.9189,-5.9219,-5.9159,-5.9129,-5.9368,-5.9608,-5.9697,-5.9727,-5.9608,-5.9608,-5.9757,-5.9907,-6.0086,-5.2929,-5.2929,-5.2929,-5.2929,-5.2929,-5.2929,-5.2929,-5.2929,-5.2929,-5.2929,-5.2929,-5.2929,-5.2929,-5.2929,-5.2929,-5.2929,-5.2929,-5.2929,-5.2929,-5.2929,-5.2904,-5.2829,-5.2854,-5.2929,-5.2779,-5.2929,-5.2929,-5.2879,-5.2804,-5.2553,-5.2277,-5.1875,-5.1172,-5.0544,-5.0042,-4.9766,-4.959,-4.959,-4.959,-4.959,-4.959,-4.959,-4.9719,-5.0104,-5.0359,-5.0614,-5.0994,-5.122,-5.1471,-5.1596,-5.1721,-5.1996,-5.2245,-5.2492,-5.2983,-5.3619,-5.4341,-5.5054,-5.5496,-5.599,-5.6308,-5.6652,-5.6993,-5.7191,-5.739,-5.7565,-5.7681,-5.7739,-5.7826,-5.7942,-5.7971,-5.7913,-5.7884,-5.7913,-5.7913,-5.7942,-5.7942,-5.7971,-5.7739,-5.7681,-5.7419,-5.7615,-5.7839,-5.8003,-5.8335,-5.8555,-5.8882,-5.8991,-5.9099,-5.9099,-5.9099,-5.9099,-5.9099,-5.9099,-5.9099,-5.9099,-5.9099,-5.9099,-5.9099,-5.9129,-5.9099,-5.9129,-5.9219,-5.9398,-5.9518,-5.9668,-5.9937,-6.0116,-6.0356,-6.0386,-6.0236,-6.0296,-6.0416,-6.0565,-6.0685,-5.2929,-5.2929,-5.2929,-5.2929,-5.2929,-5.2929,-5.2929,-5.2929,-5.2929,-5.2929,-5.2929,-5.2929,-5.2929,-5.2929,-5.2929,-5.2929,-5.2929,-5.2929,-5.2929,-5.2929,-5.2929,-5.2929,-5.2929,-5.2929,-5.2929,-5.2929,-5.2929,-5.2929,-5.2904,-5.2804,-5.2553,-5.2101,-5.1574,-5.0921,-5.0368,-4.9967,-4.9715,-4.964,-4.959,-4.959,-4.959,-4.959,-4.9719,-4.9976,-5.0104,-5.0487,-5.0741,-5.112,-5.122,-5.1471,-5.1596,-5.1846,-5.1996,-5.2121,-5.2738,-5.347,-5.4433,-5.479,-5.5144,-5.5613,-5.6103,-5.6594,-5.6795,-5.7051,-5.7451,-5.8,-5.8261,-5.8464,-5.861,-5.8929,-5.9103,-5.9074,-5.9016,-5.9016,-5.9045,-5.9016,-5.8958,-5.8784,-5.8464,-5.8174,-5.7739,-5.7707,-5.7903,-5.8068,-5.8261,-5.8335,-5.8555,-5.8803,-5.8882,-5.9099,-5.9099,-5.9099,-5.9099,-5.9099,-5.9099,-5.9099,-5.9099,-5.9099,-5.9129,-5.9129,-5.9129,-5.9338,-5.9638,-5.9907,-6.0057,-6.0236,-6.0446,-6.0745,-6.1074,-6.1074,-6.1074,-6.1074,-6.1224,-6.1164,-6.1313,-5.2929,-5.2929,-5.2929,-5.2929,-5.2929,-5.2929,-5.2929,-5.2929,-5.2929,-5.2929,-5.2929,-5.2929,-5.2929,-5.2929,-5.2929,-5.2929,-5.2929,-5.2929,-5.2929,-5.2929,-5.2929,-5.2929,-5.2929,-5.2929,-5.2929,-5.2929,-5.2929,-5.2929,-5.2929,-5.2929,-5.2653,-5.2126,-5.19,-5.1297,-5.0695,-5.0268,-4.9941,-4.9665,-4.9615,-4.959,-4.959,-4.959,-4.9719,-4.9719,-4.9976,-5.0232,-5.0487,-5.0867,-5.112,-5.1246,-5.1471,-5.1721,-5.1721,-5.1996,-5.2492,-5.347,-5.3954,-5.4194,-5.4908,-5.5144,-5.5664,-5.6617,-5.7108,-5.7571,-5.7974,-5.8581,-5.8987,-5.9132,-5.9335,-5.9568,-5.9655,-5.9626,-5.9626,-5.9655,-5.9655,-5.9626,-5.9568,-5.9364,-5.9016,-5.8726,-5.8261,-5.8087,-5.8227,-5.8107,-5.8244,-5.8121,-5.8283,-5.8593,-5.8862,-5.8971,-5.9099,-5.9099,-5.9099,-5.9099,-5.9099,-5.9099,-5.9099,-5.9099,-5.9219,-5.9428,-5.9727,-5.9967,-6.0206,-6.0505,-6.0835,-6.0924,-6.0954,-6.1343,-6.1792,-6.2002,-6.2032,-6.2032,-6.2002,-6.1912,-6.1942,-5.2929,-5.2929,-5.2929,-5.2929,-5.2929,-5.2929,-5.2929,-5.2929,-5.2929,-5.2929,-5.2929,-5.2929,-5.2929,-5.2929,-5.2929,-5.2929,-5.2929,-5.2929,-5.2929,-5.2929,-5.2929,-5.2929,-5.2929,-5.2929,-5.2929,-5.2929,-5.2929,-5.2929,-5.2929,-5.2904,-5.2703,-5.2477,-5.2277,-5.1574,-5.0971,-5.0494,-5.0092,-4.9791,-4.959,-4.959,-4.959,-4.959,-4.959,-4.959,-4.9847,-4.9976,-5.0129,-5.0614,-5.0741,-5.0994,-5.1372,-5.1471,-5.1675,-5.2154,-5.2588,-5.3359,-5.385,-5.4215,-5.4726,-5.5325,-5.5877,-5.6689,-5.7468,-5.8226,-5.8811,-5.9335,-5.9597,-5.9713,-5.9945,-6.0119,-6.009,-6.0061,-6.009,-6.009,-6.009,-6.009,-5.9974,-5.9829,-5.9568,-5.9277,-5.9016,-5.8784,-5.8666,-5.846,-5.8457,-5.883,-5.9002,-5.9114,-5.9155,-5.8991,-5.914,-5.9099,-5.9099,-5.9099,-5.9159,-5.92,-5.9398,-5.9488,-5.9608,-5.9877,-6.0266,-6.0625,-6.0864,-6.1283,-6.1732,-6.1792,-6.1822,-6.2151,-6.251,-6.266,-6.269,-6.26,-6.254,-6.254,-6.266,-5.2929,-5.2929,-5.2929,-5.2929,-5.2929,-5.2929,-5.2929,-5.2929,-5.2929,-5.2929,-5.2929,-5.2929,-5.2929,-5.2929,-5.2929,-5.2929,-5.2929,-5.2929,-5.2929,-5.2929,-5.2929,-5.2929,-5.2929,-5.2929,-5.2929,-5.2929,-5.2929,-5.2929,-5.2929,-5.2904,-5.2904,-5.2879,-5.2477,-5.1925,-5.1398,-5.0996,-5.0544,-4.9941,-4.9791,-4.9766,-4.964,-4.959,-4.959,-4.959,-4.959,-4.9719,-5.0001,-5.0257,-5.0359,-5.0741,-5.112,-5.122,-5.1753,-5.2213,-5.2701,-5.3005,-5.3493,-5.397,-5.4515,-5.5056,-5.5909,-5.6837,-5.7845,-5.8725,-5.9257,-5.9821,-6.0027,-6.0351,-6.0526,-6.0642,-6.0671,-6.0642,-6.0671,-6.0671,-6.0671,-6.0671,-6.0613,-6.0438,-6.0235,-5.9916,-5.9626,-5.9422,-5.9277,-5.9103,-5.8898,-5.9333,-5.9507,-5.9563,-5.9585,-5.9333,-5.9347,-5.9299,-5.9389,-5.9398,-5.9478,-5.9598,-5.9737,-5.9827,-5.9976,-6.0505,-6.1014,-6.1313,-6.1523,-6.1942,-6.2391,-6.266,-6.2839,-6.2899,-6.2869,-6.2929,-6.2959,-6.3019,-6.3019,-6.2959,-6.2989,-5.2929,-5.2929,-5.2929,-5.2929,-5.2929,-5.2929,-5.2929,-5.2929,-5.2929,-5.2929,-5.2929,-5.2929,-5.2929,-5.2929,-5.2929,-5.2929,-5.2929,-5.2929,-5.2929,-5.2929,-5.2929,-5.2929,-5.2929,-5.2929,-5.2929,-5.2929,-5.2929,-5.2929,-5.2929,-5.2929,-5.2929,-5.2929,-5.2678,-5.2377,-5.1875,-5.1523,-5.1122,-5.0293,-5.0218,-4.9992,-4.9715,-4.9615,-4.959,-4.959,-4.959,-4.959,-4.9873,-5.0001,-5.0104,-5.0359,-5.0867,-5.1246,-5.1622,-5.1904,-5.2082,-5.2332,-5.2713,-5.3423,-5.4213,-5.4896,-5.5783,-5.7032,-5.8043,-5.8777,-5.955,-6.0151,-6.0572,-6.087,-6.1048,-6.1135,-6.1193,-6.1193,-6.1193,-6.1193,-6.1193,-6.1193,-6.1193,-6.1019,-6.0816,-6.0555,-6.0206,-6.0061,-5.9916,-5.9713,-5.9393,-5.9394,-5.9364,-5.948,-5.977,-5.9707,-5.9879,-5.99,-5.9782,-5.9924,-5.9889,-5.9941,-5.9971,-6.0261,-6.0581,-6.1141,-6.1762,-6.1918,-6.2157,-6.26,-6.2959,-6.3049,-6.3079,-6.3049,-6.3049,-6.3079,-6.3079,-6.3079,-6.3079,-6.3019,-6.3049,-5.2929,-5.2929,-5.2929,-5.2929,-5.2929,-5.2929,-5.2929,-5.2929,-5.2929,-5.2929,-5.2929,-5.2929,-5.2929,-5.2929,-5.2929,-5.2929,-5.2929,-5.2929,-5.2929,-5.2929,-5.2929,-5.2929,-5.2929,-5.2929,-5.2929,-5.2929,-5.2929,-5.2929,-5.2929,-5.2929,-5.2929,-5.2929,-5.2879,-5.2678,-5.2201,-5.2051,-5.1699,-5.0845,-5.082,-5.0494,-4.9967,-4.9791,-4.9615,-4.959,-4.959,-4.959,-4.959,-4.9847,-4.9976,-5.0104,-5.0614,-5.0994,-5.1324,-5.1684,-5.2014,-5.2318,-5.2648,-5.3005,-5.3905,-5.4727,-5.5578,-5.6886,-5.8022,-5.8578,-5.9284,-5.9863,-6.0079,-6.0381,-6.0745,-6.0923,-6.0952,-6.1073,-6.1193,-6.1193,-6.1193,-6.1193,-6.1193,-6.1106,-6.1019,-6.0932,-6.0729,-6.07,-6.0613,-6.0584,-6.0322,-6.0322,-6.0177,-6.0061,-6.0267,-6.018,-6.0384,-6.0326,-6.0353,-6.0144,-6.0048,-6.0077,-6.0339,-6.066,-6.104,-6.1456,-6.1872,-6.2374,-6.2817,-6.2817,-6.2933,-6.3079,-6.3079,-6.2963,-6.3079,-6.3079,-6.3079,-6.3079,-6.3079,-6.3079,-6.3079,-5.2929,-5.2929,-5.2929,-5.2929,-5.2929,-5.2929,-5.2929,-5.2929,-5.2929,-5.2929,-5.2929,-5.2929,-5.2929,-5.2929,-5.2929,-5.2929,-5.2929,-5.2929,-5.2929,-5.2929,-5.2929,-5.2929,-5.2929,-5.2929,-5.2929,-5.2929,-5.2929,-5.2929,-5.2929,-5.2929,-5.2929,-5.2929,-5.2829,-5.2703,-5.2352,-5.2176,-5.1925,-5.1523,-5.1297,-5.1046,-5.0544,-4.9992,-4.9766,-4.9665,-4.959,-4.959,-4.959,-4.959,-4.9719,-4.9976,-5.0359,-5.0741,-5.1071,-5.1405,-5.1814,-5.2019,-5.2555,-5.3023,-5.388,-5.4681,-5.5618,-5.6514,-5.7542,-5.8297,-5.8829,-5.9205,-5.9454,-5.9825,-6.0316,-6.0681,-6.0681,-6.0831,-6.0952,-6.1073,-6.1073,-6.1193,-6.1193,-6.1193,-6.1193,-6.1193,-6.1164,-6.1135,-6.1135,-6.1135,-6.1164,-6.1164,-6.1193,-6.1193,-6.1048,-6.0848,-6.0821,-6.0734,-6.0647,-6.0501,-6.0294,-6.0468,-6.0703,-6.1025,-6.1407,-6.1615,-6.191,-6.2292,-6.2615,-6.2615,-6.2731,-6.2847,-6.2847,-6.2731,-6.2847,-6.2963,-6.2963,-6.2963,-6.3079,-6.3079,-6.3079,-5.2929,-5.2929,-5.2929,-5.2929,-5.2929,-5.2929,-5.2929,-5.2929,-5.2929,-5.2929,-5.2929,-5.2929,-5.2929,-5.2929,-5.2929,-5.2929,-5.2929,-5.2929,-5.2929,-5.2929,-5.2929,-5.2929,-5.2929,-5.2929,-5.2929,-5.2929,-5.2929,-5.2929,-5.2929,-5.2929,-5.2929,-5.2929,-5.2929,-5.2879,-5.2829,-5.2653,-5.2452,-5.2101,-5.1875,-5.1674,-5.1147,-5.0594,-5.0017,-4.9816,-4.959,-4.959,-4.959,-4.959,-4.959,-4.9719,-4.9976,-5.0359,-5.0665,-5.1022,-5.1405,-5.1765,-5.2302,-5.3106,-5.3783,-5.449,-5.5457,-5.6536,-5.7275,-5.7688,-5.8071,-5.8325,-5.8704,-5.908,-5.9578,-6.0071,-6.0316,-6.0438,-6.056,-6.056,-6.056,-6.0831,-6.1073,-6.1073,-6.1193,-6.1193,-6.1193,-6.1164,-6.1164,-6.1164,-6.1164,-6.1193,-6.1193,-6.1193,-6.1193,-6.1193,-6.1193,-6.1139,-6.1025,-6.1051,-6.0935,-6.1028,-6.1292,-6.1439,-6.1615,-6.1704,-6.1762,-6.2057,-6.2234,-6.2234,-6.2234,-6.2351,-6.2351,-6.2468,-6.2498,-6.2615,-6.2615,-6.2731,-6.2963,-6.3079,-6.2963]}]]